[[{"header":{"parameterUnit":"m.s-1","parameterCategory":1,"la1":30.6,"la2":28.766,"lo1":-90.7593,"lo2":-88.6598,"dy":0.0162,"dx":0.0183,"nx":116,"ny":114,"refTime":"2023-02-24T18:00:00:Z","depth":0,"parameterNumber":2,"parameterNumberName":"U-component_of_WINDS"},"data":[0.0,0.0,0.0,0.0,0.0,0.0,0.0,0.0,0.0,0.0,0.0,0.0,0.0,0.0,0.0,0.0,0.0,0.0,0.0,0.0,0.0,0.0,0.0,0.0,0.0,0.0,0.0,0.0,0.0,0.0,0.0,0.0,0.0,0.0,0.0,0.0,0.0,0.0,0.0,0.0,0.0,0.0,0.0,0.0,0.0,0.0,0.0,0.0,0.0,0.0,0.0,0.0,0.0,0.0,0.0,0.0,0.0,0.0,0.0,0.0,0.0,0.0,0.0,0.0,0.0,0.0,0.0,0.0,0.0,0.0,0.0,0.0,0.0,0.0,0.0,0.0,0.0,0.0,0.0,0.0,0.0,0.0,0.0,0.0,0.0,0.0,0.0,0.0,0.0,0.0,0.0,0.0,0.0,0.0,0.0,0.0,0.0,0.0,0.0,0.0,0.0,0.0,0.0,0.0,0.0,0.0,0.0,0.0,0.0,0.0,0.0,0.0,0.0,0.0,0.0,0.0,0.0,0.0,0.0,0.0,0.0,0.0,0.0,0.0,0.0,0.0,0.0,0.0,0.0,0.0,0.0,0.0,0.0,0.0,0.0,0.0,0.0,0.0,0.0,0.0,0.0,0.0,0.0,0.0,0.0,0.0,0.0,0.0,0.0,0.0,0.0,0.0,0.0,0.0,0.0,0.0,0.0,0.0,0.0,0.0,0.0,0.0,0.0,0.0,0.0,0.0,0.0,0.0,0.0,0.0,0.0,0.0,0.0,0.0,0.0,0.0,0.0,0.0,0.0,0.0,0.0,0.0,0.0,0.0,0.0,0.0,0.0,0.0,0.0,0.0,0.0,0.0,0.0,0.0,0.0,0.0,0.0,0.0,0.0,0.0,0.0,0.0,0.0,0.0,0.0,0.0,0.0,0.0,0.0,0.0,0.0,0.0,0.0,0.0,0.0,0.0,0.0,0.0,0.0,0.0,0.0,0.0,0.0,0.0,0.0,0.0,0.0,0.0,0.0,0.0,0.0,0.0,0.0,0.0,0.0,0.0,0.0,0.0,0.0,0.0,0.0,0.0,0.0,0.0,0.0,0.0,0.0,0.0,0.0,0.0,0.0,0.0,0.0,0.0,0.0,0.0,0.0,0.0,0.0,0.0,0.0,0.0,0.0,0.0,0.0,0.0,0.0,0.0,0.0,0.0,0.0,0.0,0.0,0.0,0.0,0.0,0.0,0.0,0.0,0.0,0.0,0.0,0.0,0.0,0.0,0.0,0.0,0.0,0.0,0.0,0.0,0.0,0.0,0.0,0.0,0.0,0.0,0.0,0.0,0.0,0.0,0.0,0.0,0.0,0.0,0.0,0.0,0.0,0.0,0.0,0.0,0.0,0.0,0.0,0.0,0.0,0.0,0.0,0.0,0.0,0.0,0.0,0.0,0.0,0.0,0.0,0.0,0.0,0.0,0.0,0.0,0.0,0.0,0.0,0.0,0.0,0.0,0.0,0.0,0.0,0.0,0.0,0.0,0.0,0.0,0.0,0.0,0.0,0.0,0.0,0.0,0.0,0.0,0.0,0.0,0.0,0.0,0.0,0.0,0.0,0.0,0.0,0.0,0.0,0.0,0.0,0.0,0.0,0.0,0.0,0.0,0.0,0.0,0.0,0.0,0.0,0.0,0.0,0.0,0.0,0.0,0.0,0.0,0.0,0.0,0.0,0.0,0.0,0.0,0.0,0.0,0.0,0.0,0.0,0.0,0.0,0.0,0.0,0.0,0.0,0.0,0.0,0.0,0.0,0.0,0.0,0.0,0.0,0.0,0.0,0.0,0.0,0.0,0.0,0.0,0.0,0.0,0.0,0.0,0.0,0.0,0.0,0.0,0.0,0.0,0.0,0.0,0.0,0.0,0.0,0.0,0.0,0.0,0.0,0.0,0.0,0.0,0.0,0.0,0.0,0.0,0.0,0.0,0.0,0.0,0.0,0.0,0.0,0.0,0.0,0.0,0.0,0.0,0.0,0.0,0.0,0.0,0.0,0.0,0.0,0.0,0.0,0.0,0.0,0.0,0.0,0.0,0.0,0.0,0.0,0.0,0.0,0.0,0.0,0.0,0.0,0.0,0.0,0.0,0.0,0.0,0.0,0.0,0.0,0.0,0.0,0.0,0.0,0.0,0.0,0.0,0.0,0.0,0.0,0.0,0.0,0.0,0.0,0.0,0.0,0.0,0.0,0.0,0.0,0.0,0.0,0.0,0.0,0.0,0.0,0.0,0.0,0.0,0.0,0.0,0.0,0.0,0.0,0.0,0.0,0.0,0.0,0.0,0.0,0.0,0.0,0.0,0.0,0.0,0.0,0.0,0.0,0.0,0.0,0.0,0.0,0.0,0.0,0.0,0.0,0.0,0.0,0.0,0.0,0.0,0.0,0.0,0.0,0.0,0.0,0.0,0.0,0.0,0.0,0.0,0.0,0.0,0.0,0.0,0.0,0.0,0.0,0.0,0.0,0.0,0.0,0.0,0.0,0.0,0.0,0.0,0.0,0.0,0.0,0.0,0.0,0.0,0.0,0.0,0.0,0.0,0.0,0.0,0.0,0.0,0.0,0.0,0.0,0.0,0.0,0.0,0.0,0.0,0.0,0.0,0.0,0.0,0.0,0.0,0.0,0.0,0.0,0.0,0.0,0.0,0.0,0.0,0.0,0.0,0.0,0.0,0.0,0.0,0.0,0.0,0.0,0.0,0.0,0.0,0.0,0.0,0.0,0.0,0.0,0.0,0.0,0.0,0.0,0.0,0.0,0.0,0.0,0.0,0.0,0.0,0.0,0.0,0.0,0.0,0.0,0.0,0.0,0.0,0.0,0.0,0.0,0.0,0.0,0.0,0.0,0.0,0.0,0.0,0.0,0.0,0.0,0.0,0.0,0.0,0.0,0.0,0.0,0.0,0.0,0.0,0.0,0.0,0.0,0.0,0.0,0.0,0.0,0.0,0.0,0.0,0.0,0.0,0.0,0.0,0.0,0.0,0.0,0.0,0.0,0.0,0.0,0.0,0.0,0.0,0.0,0.0,0.0,0.0,0.0,0.0,0.0,0.0,0.0,0.0,0.0,0.0,0.0,0.0,0.0,0.0,0.0,0.0,0.0,0.0,0.0,0.0,0.0,0.0,0.0,0.0,0.0,0.0,0.0,0.0,0.0,0.0,0.0,0.0,0.0,0.0,0.0,0.0,0.0,0.0,0.0,0.0,0.0,0.0,0.0,0.0,0.0,0.0,0.0,0.0,0.0,0.0,0.0,0.0,0.0,0.0,0.0,0.0,0.0,0.0,0.0,0.0,0.0,0.0,0.0,0.0,0.0,0.0,0.0,0.0,0.0,0.0,0.0,0.0,0.0,0.0,0.0,0.0,0.0,0.0,0.0,0.0,0.0,0.0,0.0,0.0,0.0,0.0,0.0,0.0,0.0,0.0,0.0,0.0,0.0,0.0,0.0,0.0,0.0,0.0,0.0,0.0,0.0,0.0,0.0,0.0,0.0,0.0,0.0,0.0,0.0,0.0,0.0,0.0,0.0,0.0,0.0,0.0,0.0,0.0,0.0,0.0,0.0,0.0,0.0,0.0,0.0,0.0,0.0,0.0,0.0,0.0,0.0,0.0,0.0,0.0,0.0,0.0,0.0,0.0,0.0,0.0,0.0,0.0,0.0,0.0,0.0,0.0,0.0,0.0,0.0,0.0,0.0,0.0,0.0,0.0,0.0,0.0,0.0,0.0,0.0,0.0,0.0,0.0,0.0,0.0,0.0,0.0,0.0,0.0,0.0,0.0,0.0,0.0,0.0,0.0,0.0,0.0,0.0,0.0,0.0,0.0,0.0,0.0,0.0,0.0,0.0,0.0,0.0,0.0,0.0,0.0,0.0,0.0,0.0,0.0,0.0,0.0,0.0,0.0,0.0,0.0,0.0,0.0,0.0,0.0,0.0,0.0,0.0,0.0,0.0,0.0,0.0,0.0,0.0,0.0,0.0,0.0,0.0,0.0,0.0,0.0,0.0,0.0,0.0,0.0,0.0,0.0,0.0,0.0,0.0,0.0,0.0,0.0,0.0,0.0,0.0,0.0,0.0,0.0,0.0,0.0,0.0,0.0,0.0,0.0,0.0,0.0,0.0,0.0,0.0,0.0,0.0,0.0,0.0,0.0,0.0,0.0,0.0,0.0,0.0,0.0,0.0,0.0,0.0,0.0,0.0,0.0,0.0,0.0,0.0,0.0,0.0,0.0,0.0,0.0,0.0,0.0,0.0,0.0,0.0,0.0,0.0,0.0,0.0,0.0,0.0,0.0,0.0,0.0,0.0,0.0,0.0,0.0,0.0,0.0,0.0,0.0,0.0,0.0,0.0,0.0,0.0,0.0,0.0,0.0,0.0,0.0,0.0,0.0,0.0,0.0,0.0,0.0,0.0,0.0,0.0,0.0,0.0,0.0,0.0,0.0,0.0,0.0,0.0,0.0,0.0,0.0,0.0,0.0,0.0,0.0,0.0,0.0,0.0,0.0,0.0,0.0,0.0,0.0,0.0,0.0,0.0,0.0,0.0,0.0,0.0,0.0,0.0,0.0,0.0,0.0,0.0,0.0,0.0,0.0,0.0,0.0,0.0,0.0,0.0,0.0,0.0,0.0,0.0,0.0,0.0,0.0,0.0,0.0,0.0,0.0,0.0,0.0,0.0,0.0,0.0,0.0,0.0,0.0,0.0,0.0,0.0,0.0,0.0,0.0,0.0,0.0,0.0,0.0,0.0,0.0,0.0,0.0,0.0,0.0,0.0,0.0,0.0,0.0,0.0,0.0,0.0,0.0,0.0,0.0,0.0,0.0,0.0,0.0,0.0,0.0,0.0,0.0,0.0,0.0,0.0,0.0,0.0,0.0,0.0,0.0,0.0,0.0,0.0,0.0,0.0,0.0,0.0,0.0,0.0,0.0,0.0,0.0,0.0,0.0,0.0,0.0,0.0,0.0,0.0,0.0,0.0,0.0,0.0,0.0,0.0,0.0,0.0,0.0,0.0,0.0,0.0,0.0,0.0,0.0,0.0,0.0,0.0,0.0,0.0,0.0,0.0,0.0,0.0,0.0,0.0,0.0,0.0,0.0,0.0,0.0,0.0,0.0,0.0,0.0,0.0,0.0,0.0,0.0,0.0,0.0,0.0,0.0,0.0,0.0,0.0,0.0,0.0,0.0,0.0,0.0,0.0,0.0,0.0,0.0,0.0,0.0,0.0,0.0,0.0,0.0,0.0,0.0,0.0,0.0,0.0,0.0,0.0,0.0,0.0,0.0,0.0,0.0,0.0,0.0,0.0,0.0,0.0,0.0,0.0,0.0,0.0,0.0,0.0,0.0,0.0,0.0,0.0,0.0,0.0,0.0,0.0,0.0,0.0,0.0,0.0,0.0,0.0,0.0,0.0,0.0,0.0,0.0,0.0,0.0,0.0,0.0,0.0,0.0,0.0,0.0,0.0,0.0,0.0,0.0,0.0,0.0,0.0,0.0,0.0,0.0,0.0,0.0,0.0,0.0,0.0,0.0,0.0,0.0,0.0,0.0,0.0,0.0,0.0,0.0,0.0,0.0,0.0,0.0,0.0,0.0,0.0,0.0,0.0,0.0,0.0,0.0,0.0,0.0,0.0,0.0,0.0,0.0,0.0,0.0,0.0,0.0,0.0,0.0,0.0,0.0,0.0,0.0,0.0,0.0,0.0,0.0,0.0,0.0,0.0,0.0,0.0,0.0,0.0,0.0,0.0,0.0,0.0,0.0,0.0,0.0,0.0,0.0,0.0,0.0,0.0,0.0,0.0,0.0,0.0,0.0,0.0,0.0,0.0,0.0,0.0,0.0,0.0,0.0,0.0,0.0,0.0,0.0,0.0,0.0,0.0,0.0,0.0,0.0,0.0,0.0,0.0,0.0,0.0,0.0,0.0,0.0,0.0,0.0,0.0,0.0,0.0,0.0,0.0,0.0,0.0,0.0,0.0,0.0,0.0,0.0,0.0,0.0,0.0,0.0,0.0,0.0,0.0,0.0,0.0,0.0,0.0,0.0,0.0,0.0,0.0,0.0,0.0,0.0,0.0,-5.6592,0.0,0.0,0.0,0.0,0.0,0.0,0.0,0.0,0.0,0.0,0.0,0.0,0.0,0.0,0.0,0.0,0.0,0.0,0.0,0.0,0.0,0.0,0.0,0.0,0.0,0.0,0.0,0.0,0.0,0.0,0.0,0.0,0.0,0.0,0.0,0.0,0.0,0.0,0.0,0.0,0.0,0.0,0.0,0.0,0.0,0.0,0.0,0.0,0.0,0.0,0.0,0.0,0.0,0.0,0.0,0.0,0.0,0.0,0.0,0.0,0.0,0.0,0.0,0.0,0.0,0.0,0.0,0.0,0.0,0.0,0.0,0.0,0.0,0.0,0.0,0.0,0.0,0.0,0.0,0.0,0.0,0.0,0.0,0.0,0.0,0.0,0.0,0.0,0.0,0.0,0.0,0.0,0.0,0.0,0.0,0.0,0.0,0.0,0.0,0.0,0.0,0.0,0.0,0.0,0.0,0.0,0.0,0.0,0.0,0.0,0.0,0.0,0.0,0.0,0.0,0.0,-5.6622,0.0,0.0,0.0,0.0,0.0,0.0,0.0,0.0,0.0,0.0,0.0,0.0,0.0,0.0,0.0,0.0,0.0,0.0,0.0,0.0,0.0,0.0,0.0,0.0,0.0,0.0,0.0,0.0,0.0,0.0,0.0,0.0,0.0,0.0,0.0,0.0,0.0,0.0,0.0,0.0,0.0,0.0,0.0,0.0,0.0,0.0,0.0,0.0,0.0,0.0,0.0,0.0,0.0,0.0,0.0,0.0,0.0,0.0,0.0,0.0,0.0,0.0,0.0,0.0,0.0,0.0,0.0,0.0,0.0,0.0,0.0,0.0,0.0,0.0,0.0,0.0,0.0,0.0,0.0,0.0,0.0,0.0,0.0,0.0,0.0,0.0,0.0,0.0,0.0,0.0,0.0,0.0,0.0,0.0,0.0,0.0,0.0,0.0,0.0,0.0,0.0,0.0,0.0,0.0,0.0,0.0,0.0,0.0,-6.0074,-6.0538,-6.0576,-6.1427,-6.1427,-6.0692,-5.8952,-5.7937,-5.7473,0.0,0.0,0.0,0.0,0.0,0.0,0.0,0.0,0.0,0.0,0.0,0.0,0.0,0.0,0.0,0.0,0.0,0.0,0.0,0.0,0.0,0.0,0.0,0.0,0.0,0.0,0.0,0.0,0.0,0.0,0.0,0.0,0.0,0.0,0.0,0.0,0.0,0.0,0.0,-6.2808,-6.2923,-6.2974,-6.2897,0.0,0.0,0.0,0.0,0.0,0.0,0.0,0.0,0.0,0.0,0.0,0.0,0.0,0.0,0.0,0.0,0.0,0.0,0.0,0.0,0.0,0.0,0.0,0.0,0.0,0.0,0.0,0.0,0.0,0.0,0.0,0.0,0.0,0.0,0.0,0.0,0.0,0.0,0.0,0.0,0.0,0.0,0.0,0.0,-5.6012,-5.6012,0.0,0.0,0.0,0.0,0.0,0.0,0.0,0.0,0.0,0.0,0.0,0.0,0.0,-5.9571,-5.9571,-6.0344,-6.077,-6.0809,-6.2433,-6.3216,-6.3216,-6.4097,-6.4445,-6.4213,-6.2472,0.0,-5.8372,-5.7482,0.0,0.0,0.0,0.0,0.0,0.0,0.0,0.0,0.0,0.0,0.0,0.0,0.0,0.0,0.0,0.0,0.0,0.0,0.0,0.0,0.0,0.0,0.0,0.0,0.0,0.0,0.0,0.0,0.0,0.0,0.0,0.0,0.0,0.0,0.0,0.0,-6.0512,-6.2397,-6.4051,-6.4551,-6.4743,-6.4743,-6.3974,-6.2858,-6.1524,-6.1524,0.0,0.0,0.0,0.0,0.0,0.0,0.0,0.0,0.0,0.0,0.0,0.0,0.0,0.0,0.0,0.0,0.0,0.0,0.0,0.0,0.0,0.0,0.0,0.0,0.0,0.0,0.0,0.0,0.0,0.0,0.0,0.0,0.0,0.0,0.0,0.0,0.0,0.0,0.0,-5.5702,-5.6012,-5.6012,-5.5277,-5.4658,0.0,0.0,0.0,0.0,0.0,0.0,0.0,0.0,0.0,-5.8758,-6.0422,-6.1543,-6.2017,-6.2859,-6.3516,-6.398,-6.5257,-6.5837,-6.5876,-6.6727,-6.6882,-6.634,-6.5064,-6.3632,-6.2008,-5.9725,-5.8178,-5.7241,0.0,0.0,0.0,0.0,-5.6738,-5.6777,0.0,0.0,0.0,0.0,0.0,0.0,0.0,0.0,0.0,0.0,0.0,0.0,0.0,0.0,0.0,0.0,0.0,0.0,0.0,0.0,0.0,0.0,0.0,0.0,0.0,0.0,0.0,0.0,-6.2397,-6.4243,-6.5936,-6.6782,-6.7167,-6.7167,-6.7167,-6.5513,-6.2743,-6.2512,-6.0935,0.0,0.0,0.0,0.0,0.0,0.0,0.0,0.0,0.0,0.0,0.0,0.0,0.0,0.0,0.0,0.0,0.0,0.0,0.0,0.0,0.0,0.0,0.0,0.0,0.0,0.0,0.0,0.0,0.0,0.0,0.0,0.0,0.0,0.0,0.0,0.0,0.0,0.0,-5.5664,-5.6313,-5.6313,-5.6012,-5.5664,0.0,0.0,0.0,0.0,0.0,0.0,-5.7946,-5.9609,-6.0654,-6.0847,-6.2511,-6.3787,-6.4638,-6.5528,-6.6263,-6.6882,-6.7733,-6.8158,-6.8158,-6.8816,-6.8738,-6.8081,-6.6998,-6.6069,-6.5025,-6.1621,-5.9455,-5.8208,-5.7791,-5.725,-5.6747,-5.7404,-5.7637,-5.7714,0.0,0.0,0.0,0.0,0.0,0.0,0.0,0.0,0.0,0.0,0.0,0.0,0.0,0.0,0.0,0.0,0.0,0.0,0.0,0.0,0.0,0.0,0.0,0.0,0.0,0.0,0.0,-6.3128,-6.5628,-6.7744,-6.9475,-7.0283,-7.0667,-7.0667,-7.0667,-6.8359,-6.4436,-6.3589,-6.1781,-5.9358,0.0,0.0,0.0,0.0,0.0,0.0,0.0,0.0,0.0,0.0,0.0,0.0,0.0,0.0,0.0,0.0,0.0,0.0,0.0,0.0,0.0,0.0,0.0,0.0,0.0,0.0,0.0,0.0,0.0,0.0,0.0,0.0,0.0,0.0,0.0,0.0,0.0,0.0,0.0,-5.7241,-5.7946,0.0,0.0,0.0,0.0,-5.7241,-5.8758,-5.9725,-5.9764,-6.135,-6.2665,-6.3487,-6.5141,-6.6417,-6.7307,-6.8158,-6.8622,-6.87,-6.9473,-6.986,-6.986,-6.9899,-6.9899,-6.9783,-6.8158,-6.6959,-6.5876,-6.2433,-6.1002,-6.077,-5.9145,-5.8488,-5.8449,-5.8526,-5.8526,-5.8526,0.0,0.0,0.0,0.0,0.0,0.0,0.0,0.0,0.0,0.0,0.0,0.0,0.0,0.0,0.0,0.0,0.0,0.0,0.0,0.0,0.0,0.0,0.0,0.0,0.0,0.0,-6.2435,-6.4974,-6.7513,-6.9629,-7.1321,-7.2168,-7.2591,-7.2591,-7.2591,-7.1437,-6.9321,-6.6821,-6.3974,-6.105,-5.9627,0.0,0.0,0.0,0.0,0.0,0.0,0.0,0.0,0.0,0.0,0.0,0.0,0.0,0.0,0.0,0.0,0.0,0.0,0.0,0.0,0.0,0.0,0.0,0.0,0.0,0.0,0.0,0.0,0.0,0.0,0.0,0.0,0.0,0.0,0.0,0.0,0.0,0.0,-5.8913,-5.9687,0.0,-5.9764,-6.0035,-6.0074,-5.9764,-6.135,-6.2365,-6.2365,-6.4483,-6.5837,-6.6147,-6.7268,-6.8274,-6.9087,-6.9435,-6.986,-7.0402,-7.0711,-7.0827,-7.0827,-7.0827,-7.0827,-7.075,-6.9048,-6.8158,-6.7655,-6.4793,-6.2936,-6.1892,-6.1273,-6.0692,-6.0267,-6.0847,-6.0692,-6.0306,0.0,0.0,0.0,0.0,0.0,0.0,0.0,0.0,0.0,0.0,0.0,0.0,0.0,0.0,0.0,0.0,0.0,0.0,0.0,0.0,0.0,0.0,0.0,0.0,0.0,0.0,0.0,0.0,0.0,0.0,0.0,0.0,0.0,0.0,0.0,0.0,0.0,0.0,0.0,0.0,0.0,0.0,-5.7753,0.0,0.0,0.0,0.0,0.0,0.0,0.0,0.0,0.0,0.0,0.0,0.0,0.0,0.0,0.0,0.0,0.0,0.0,0.0,0.0,0.0,0.0,0.0,0.0,0.0,0.0,0.0,0.0,0.0,0.0,0.0,0.0,0.0,0.0,0.0,-6.0306,-6.1466,-6.2588,-6.3362,-6.3671,-6.3439,-6.3245,-6.3245,-6.4329,-6.4986,-6.4986,-6.6843,-6.8081,-6.8313,-6.8893,-6.9589,-7.044,-7.044,-7.0711,-7.1291,-7.1291,-7.1137,-7.0866,-7.0866,-7.0711,-7.0363,-6.897,-6.8352,-6.8197,-6.6224,-6.4715,-6.3632,-6.3052,-6.2472,-6.2046,-6.2627,-6.2278,-6.1582,0.0,0.0,0.0,0.0,0.0,0.0,0.0,0.0,0.0,0.0,0.0,0.0,0.0,0.0,0.0,0.0,0.0,0.0,0.0,0.0,0.0,0.0,0.0,0.0,0.0,0.0,0.0,0.0,0.0,0.0,0.0,0.0,0.0,0.0,0.0,0.0,0.0,0.0,0.0,0.0,0.0,0.0,-5.955,0.0,0.0,0.0,0.0,0.0,0.0,0.0,0.0,0.0,0.0,0.0,0.0,0.0,0.0,0.0,0.0,0.0,0.0,0.0,0.0,0.0,0.0,0.0,0.0,0.0,0.0,0.0,0.0,0.0,0.0,0.0,0.0,0.0,-5.7589,-6.0412,-6.3207,-6.4948,-6.6611,-6.7965,-6.8816,-6.8119,-6.7617,-6.7617,-6.7617,-6.7617,-6.7617,-6.8429,-6.9241,-7.0015,-7.0054,-7.044,-7.1291,-7.1291,-7.1291,-7.1291,-7.1253,-7.0827,-6.9976,-6.9976,-6.9551,-6.8738,-6.7887,-6.7501,-6.7423,-6.6572,-6.6185,-6.6031,-6.4416,-6.3797,-6.3797,-6.3758,-6.3168,-6.2278,0.0,0.0,0.0,0.0,0.0,0.0,0.0,0.0,0.0,0.0,0.0,0.0,0.0,0.0,0.0,0.0,0.0,0.0,0.0,0.0,0.0,0.0,0.0,0.0,0.0,0.0,0.0,0.0,0.0,0.0,0.0,0.0,0.0,0.0,0.0,0.0,0.0,0.0,0.0,0.0,0.0,0.0,-6.2166,0.0,0.0,0.0,0.0,0.0,0.0,0.0,0.0,0.0,0.0,0.0,0.0,0.0,0.0,0.0,0.0,0.0,0.0,0.0,0.0,0.0,0.0,0.0,0.0,0.0,0.0,0.0,0.0,0.0,0.0,0.0,0.0,-6.1505,-6.1892,-6.4329,-6.6727,-6.8429,-6.9589,-7.0363,-7.0595,-7.0402,-7.0247,-7.0247,-7.0247,-7.0247,-7.0247,-7.0479,-7.0711,-7.0943,-7.0943,-7.1059,-7.1291,-7.1291,-7.1291,-7.1291,-7.0672,-7.0208,-6.9976,-6.9396,-6.9009,-6.8738,-6.7887,-6.7501,-6.7423,-6.6572,-6.6185,-6.6147,-6.5682,-6.5489,-6.545,-6.487,-6.3671,-6.2278,0.0,0.0,0.0,0.0,0.0,0.0,0.0,0.0,0.0,0.0,0.0,0.0,0.0,0.0,0.0,0.0,0.0,0.0,0.0,0.0,0.0,0.0,0.0,0.0,0.0,0.0,0.0,0.0,0.0,0.0,0.0,0.0,0.0,0.0,0.0,0.0,0.0,0.0,0.0,0.0,0.0,0.0,-6.5859,-6.4628,-6.3358,-6.2089,-6.1358,-6.0589,-5.9781,-5.905,0.0,0.0,0.0,0.0,0.0,0.0,0.0,0.0,0.0,0.0,0.0,0.0,0.0,0.0,0.0,0.0,0.0,0.0,0.0,0.0,0.0,0.0,0.0,0.0,-6.2085,-6.5218,-6.7152,-6.839,-6.986,-7.1872,-7.3226,-7.396,-7.396,-7.3651,-7.3303,-7.2916,-7.2258,-7.1833,-7.1833,-7.1485,-7.1291,-7.1291,-7.1291,-7.1291,-7.1291,-7.1291,-7.1098,-7.075,-7.0247,-6.9628,-6.8932,-6.8468,-6.8081,0.0,-6.7191,-6.6959,-6.692,-6.6417,-6.6185,0.0,0.0,0.0,0.0,0.0,-6.3284,-6.2278,0.0,0.0,0.0,0.0,0.0,0.0,0.0,0.0,0.0,0.0,0.0,0.0,0.0,0.0,0.0,0.0,0.0,0.0,0.0,0.0,0.0,0.0,0.0,0.0,0.0,0.0,0.0,0.0,0.0,0.0,0.0,0.0,0.0,0.0,0.0,0.0,0.0,0.0,0.0,0.0,0.0,0.0,-7.009,-6.8436,-6.7244,-6.6244,-6.4512,-6.3358,-6.2409,-6.0666,0.0,0.0,0.0,0.0,0.0,0.0,0.0,0.0,0.0,0.0,0.0,0.0,0.0,0.0,0.0,0.0,0.0,0.0,0.0,0.0,0.0,0.0,0.0,0.0,-6.5102,-6.897,-7.2413,-7.2375,-7.2916,-7.5276,-7.69,-7.779,-7.7713,-7.6978,-7.6204,-7.5314,-7.369,-7.2761,-7.2761,0.0,0.0,0.0,0.0,-7.1253,-7.1137,-7.1137,-7.0711,-6.986,-6.9783,-6.8932,-6.7501,-6.7384,-6.692,-6.6185,-6.6185,-6.6185,-6.6185,-6.6185,-6.6185,-6.6185,-6.6108,-6.5566,-6.4638,-6.3013,-6.2356,0.0,0.0,0.0,0.0,0.0,0.0,0.0,0.0,0.0,0.0,0.0,0.0,0.0,0.0,0.0,0.0,0.0,0.0,0.0,0.0,0.0,0.0,0.0,0.0,0.0,0.0,0.0,0.0,0.0,0.0,0.0,0.0,0.0,0.0,0.0,0.0,0.0,0.0,0.0,0.0,0.0,0.0,0.0,-7.363,-7.2629,-7.1283,-6.9706,-6.8013,-6.6859,-6.5859,-6.4166,-6.3166,-6.2281,-6.0589,0.0,0.0,0.0,0.0,0.0,0.0,0.0,0.0,0.0,0.0,0.0,0.0,0.0,0.0,0.0,0.0,0.0,0.0,0.0,0.0,-6.4677,-6.7617,-7.0711,-7.4154,-7.5662,-7.69,-7.8099,-7.8525,-7.8486,-7.7751,-7.7558,-7.7094,-7.6204,-7.4618,-7.3651,-7.3651,-7.2142,-7.1291,-7.1291,-7.1291,-7.0943,-7.0247,-7.0247,-6.9821,-6.9009,0.0,0.0,-6.7501,-6.6766,-6.6379,-6.6185,-6.6185,-6.6185,-6.6185,-6.6185,-6.6185,-6.6147,-6.5489,-6.4725,-6.3835,-6.2781,-6.1969,-6.135,0.0,0.0,0.0,0.0,0.0,0.0,0.0,0.0,0.0,0.0,0.0,0.0,0.0,0.0,0.0,0.0,0.0,0.0,0.0,0.0,0.0,0.0,0.0,0.0,0.0,0.0,0.0,0.0,0.0,0.0,0.0,0.0,0.0,0.0,0.0,0.0,0.0,0.0,0.0,0.0,0.0,0.0,-7.8284,-7.6207,-7.4591,-7.3168,-7.1052,-6.9744,-6.8667,-6.6551,-6.5282,-6.432,-6.2589,-6.0896,-5.9281,0.0,0.0,0.0,0.0,0.0,0.0,0.0,0.0,0.0,0.0,0.0,0.0,0.0,0.0,-5.7211,0.0,0.0,-6.4638,-6.7617,-7.0595,-7.3303,-7.5469,-7.7248,-7.8525,-7.895,-7.9376,-7.9105,-7.7829,-7.7713,-7.7171,-7.5856,-7.4618,-7.3728,-7.3264,-7.2026,-7.1291,-7.1291,-7.0866,-7.044,-6.9976,-6.9589,-6.897,-6.8158,-6.7694,-6.7268,-6.6843,-6.6417,-6.6185,-6.6185,-6.6185,-6.6185,-6.6185,-6.6185,-6.6185,-6.6069,-6.4831,-6.4068,-6.3526,-6.224,-6.1466,-6.1118,0.0,0.0,0.0,0.0,0.0,0.0,0.0,0.0,0.0,0.0,0.0,0.0,0.0,0.0,0.0,0.0,0.0,0.0,0.0,0.0,0.0,0.0,0.0,0.0,0.0,0.0,0.0,0.0,0.0,0.0,0.0,0.0,0.0,0.0,0.0,0.0,0.0,0.0,0.0,0.0,0.0,0.0,-8.1939,-7.8746,-7.7015,-7.5899,-7.3168,-7.1629,-7.0514,-6.7975,-6.6667,-6.582,-6.4089,-6.2397,-6.0704,-5.905,-5.6626,0.0,0.0,0.0,0.0,0.0,0.0,0.0,0.0,0.0,-5.5276,-5.59,-5.7946,-6.0151,-6.2008,-6.487,-6.7771,-7.0324,-7.3187,-7.5469,-7.6514,-7.7867,-7.868,-7.8525,-7.9376,-7.9376,-7.7829,-7.7558,-7.6784,-7.5237,-7.4193,-7.3342,-7.2645,-7.1756,-7.1214,-7.1059,-7.0363,-6.9821,-6.9512,-6.8854,-6.8119,-6.7268,-6.7268,-6.6882,-6.6185,-6.6185,-6.6185,-6.6185,-6.6185,-6.6185,-6.6185,-6.6185,-6.6185,-6.6031,-6.4338,-6.3719,-6.3487,-6.1737,-6.1118,-6.1118,0.0,0.0,0.0,0.0,0.0,0.0,0.0,0.0,0.0,0.0,0.0,0.0,0.0,0.0,0.0,0.0,0.0,0.0,0.0,0.0,0.0,0.0,0.0,0.0,0.0,0.0,0.0,0.0,0.0,0.0,0.0,0.0,0.0,0.0,0.0,0.0,0.0,0.0,0.0,0.0,0.0,0.0,-8.2016,-7.9361,-7.7861,-7.6707,-7.3399,-7.1629,-7.0514,-6.7975,-6.7051,-6.6667,-6.4974,-6.3281,-6.1601,-5.9896,0.0,-5.4318,-5.3433,-5.251,-5.1769,-5.1885,-5.3031,-5.4428,0.0,0.0,-5.8491,-6.0055,-6.1853,-6.3874,-6.634,-6.8313,-7.044,-7.3032,-7.4386,-7.5662,-7.7326,-7.7713,-7.7558,-7.6784,-7.8138,-7.8757,-7.779,-7.6978,-7.6127,-7.5148,-7.3651,-7.2684,-7.2607,-7.1756,-7.0943,-7.017,-7.0054,-6.928,-6.781,-6.7694,-6.723,-6.634,-6.634,-6.6301,-6.6185,-6.6185,-6.6185,-6.6185,-6.6185,-6.6185,-6.6185,-6.6185,-6.6185,-6.6031,-6.4338,-6.3719,-6.3487,-6.1737,-6.1118,-6.1118,0.0,0.0,0.0,0.0,0.0,0.0,0.0,0.0,0.0,0.0,0.0,0.0,0.0,0.0,0.0,0.0,0.0,0.0,0.0,0.0,0.0,0.0,0.0,0.0,0.0,0.0,0.0,0.0,0.0,0.0,0.0,0.0,0.0,0.0,0.0,0.0,0.0,0.0,0.0,0.0,0.0,0.0,-8.19,-7.84,-7.5899,-7.4091,-7.2129,-7.0244,0.0,0.0,-6.532,-6.4782,-6.4051,-6.2704,-6.1089,-5.9858,-5.7126,0.0,-5.2818,-5.2538,-5.301,-5.4552,-5.5874,-5.7284,-5.9186,-6.0597,-6.1872,-6.3129,-6.4715,-6.6379,-6.7965,-7.0054,-7.2026,0.0,-7.543,-7.6707,-7.69,-7.6939,-7.663,-7.574,-7.543,-7.5314,-7.5469,-7.516,-7.4579,-7.3728,-7.2993,-7.2375,-7.1872,-7.1021,-7.0363,-7.0015,-6.9048,-6.8197,-6.7501,-6.6998,-6.6572,-6.6185,-6.6185,-6.6185,-6.6185,-6.6185,-6.6185,-6.6185,-6.6185,-6.6185,-6.6185,-6.6185,-6.6185,-6.6031,-6.4338,-6.3719,-6.3487,-6.1737,-6.1118,-6.1118,0.0,0.0,0.0,0.0,0.0,0.0,0.0,0.0,0.0,0.0,0.0,0.0,0.0,0.0,0.0,0.0,0.0,0.0,0.0,0.0,0.0,0.0,0.0,0.0,0.0,0.0,0.0,0.0,0.0,0.0,0.0,0.0,0.0,0.0,0.0,0.0,0.0,0.0,0.0,0.0,0.0,0.0,-8.0785,-7.6553,-7.3091,-7.036,-6.9475,-6.7667,0.0,0.0,-6.2435,-6.1935,-6.1935,-6.0935,-5.9588,-5.8704,-5.6395,-5.3857,-5.2577,-5.3251,-5.485,-5.7212,-5.8816,-6.046,-6.2818,-6.4105,-6.5064,-6.6147,-6.7152,-6.8197,-6.928,-7.0982,-7.2607,-7.3728,-7.5624,-7.6746,-7.6127,-7.6049,-7.5546,-7.4231,-7.2993,-7.2297,-7.2491,-7.2916,-7.3032,-7.2645,-7.2375,-7.1949,-7.133,-7.0479,-6.9899,-6.9667,-6.8274,-6.7384,-6.7152,-6.6533,-6.6185,-6.6185,-6.6185,-6.6185,-6.6185,-6.6185,-6.6185,-6.6185,-6.6185,-6.6185,-6.6185,-6.6185,-6.6185,-6.6031,-6.4338,-6.3719,-6.3487,-6.1737,-6.1118,-6.1118,0.0,0.0,0.0,0.0,0.0,0.0,0.0,0.0,0.0,0.0,0.0,0.0,0.0,0.0,0.0,0.0,0.0,0.0,0.0,0.0,0.0,0.0,0.0,0.0,0.0,0.0,0.0,0.0,0.0,0.0,0.0,0.0,0.0,0.0,0.0,0.0,0.0,0.0,0.0,0.0,0.0,0.0,-7.813,-7.3899,-6.9706,-6.5974,-6.5089,0.0,0.0,0.0,-5.8473,-5.8473,-5.8473,-5.7857,0.0,-5.6088,-5.4587,0.0,0.0,0.0,-5.7377,-5.9111,-6.1509,-6.391,-6.5687,-6.6773,-6.7849,-6.9512,-6.928,-6.928,-7.0905,-7.1291,-7.191,-7.3612,-7.4618,-7.5148,-7.516,-7.516,-7.4231,-7.1717,-7.1369,-7.0711,0.0,-7.0402,-7.1717,-7.2529,-7.1833,-7.133,-7.1291,-7.0479,-6.9628,-6.8854,-6.7965,-6.7075,-6.6263,-6.6224,-6.6185,-6.6185,-6.6185,-6.6185,-6.6185,-6.6185,-6.6185,-6.6185,-6.6185,-6.6185,-6.6185,-6.6185,-6.6185,-6.6031,-6.4338,-6.3719,-6.3487,-6.1737,-6.1118,-6.1118,0.0,0.0,0.0,0.0,0.0,0.0,0.0,0.0,0.0,0.0,0.0,0.0,0.0,0.0,0.0,0.0,0.0,0.0,0.0,0.0,0.0,0.0,0.0,0.0,0.0,0.0,0.0,0.0,0.0,0.0,0.0,0.0,0.0,0.0,0.0,0.0,0.0,0.0,0.0,0.0,0.0,0.0,-7.4794,-7.0555,-6.6663,-6.2964,0.0,0.0,0.0,0.0,0.0,0.0,-5.4934,0.0,0.0,-5.4318,0.0,0.0,0.0,0.0,-6.0327,-6.318,-6.5048,-6.6741,-6.9054,-6.896,-6.8661,-6.9783,-6.8893,-6.8119,-6.8661,-6.9241,-7.0015,-7.1137,-7.2491,-7.3651,-7.4231,-7.3806,-7.2916,-7.1485,-7.0324,0.0,0.0,0.0,0.0,-7.0789,-7.0595,-7.044,-7.044,-6.9667,-6.8816,-6.7965,-6.7075,-6.6495,-6.6185,-6.6185,-6.6185,-6.6185,-6.6185,-6.6185,-6.6185,-6.6185,-6.6185,-6.6185,-6.6185,-6.6185,-6.6185,-6.6185,-6.6185,-6.6031,-6.4338,-6.3719,-6.3487,-6.1737,-6.1118,-6.1118,0.0,0.0,0.0,0.0,0.0,0.0,0.0,0.0,0.0,0.0,0.0,0.0,0.0,0.0,0.0,0.0,0.0,0.0,0.0,0.0,0.0,0.0,0.0,0.0,0.0,0.0,0.0,0.0,0.0,0.0,0.0,0.0,0.0,0.0,0.0,0.0,0.0,0.0,0.0,0.0,0.0,0.0,-7.0464,-6.6491,-6.2905,0.0,0.0,0.0,0.0,0.0,0.0,0.0,0.0,0.0,0.0,0.0,0.0,0.0,0.0,-6.0822,-6.3902,-6.6786,-6.8133,-6.9237,-7.0943,-7.0015,-6.8777,-6.8661,-6.7307,-6.6031,-6.5721,-6.6379,-6.7346,-6.8468,-7.0363,-7.1988,-7.2839,-7.2761,-7.2142,-7.0982,-6.986,-6.9009,0.0,0.0,0.0,-6.9512,-6.9821,-6.9976,-6.9976,-6.9512,-6.8854,-6.8003,-6.7114,-6.6495,-6.6185,-6.6185,-6.6185,-6.6185,-6.6185,-6.6185,-6.6185,-6.6185,-6.6185,-6.6185,-6.6185,-6.6185,-6.6185,-6.6185,-6.6185,-6.6031,-6.4338,-6.3719,-6.3487,-6.1737,-6.1118,-6.1118,0.0,0.0,0.0,0.0,0.0,0.0,0.0,0.0,0.0,0.0,0.0,0.0,0.0,0.0,0.0,0.0,0.0,0.0,0.0,0.0,0.0,0.0,0.0,0.0,0.0,0.0,0.0,0.0,0.0,0.0,0.0,0.0,0.0,0.0,0.0,0.0,0.0,0.0,0.0,0.0,0.0,0.0,-6.5307,-6.1951,0.0,0.0,0.0,0.0,0.0,0.0,0.0,0.0,0.0,0.0,0.0,0.0,0.0,-5.904,-6.0853,-6.437,-6.8006,-6.9745,-7.0794,-7.133,-7.1291,-6.9938,-6.8158,-6.6379,-6.4638,-6.3168,0.0,0.0,-6.4068,-6.5721,-6.8158,-7.017,-7.1098,-7.1988,-7.191,0.0,0.0,0.0,0.0,0.0,0.0,-6.8816,0.0,-6.9976,-6.9976,-6.9976,-6.9589,-6.8777,-6.7926,-6.7075,-6.6224,-6.6185,-6.6185,-6.6185,-6.6185,-6.6185,-6.6185,-6.6185,-6.6185,-6.6185,-6.6185,-6.6185,-6.6185,-6.6185,-6.6185,-6.6031,-6.4338,-6.3719,-6.3487,-6.1737,-6.1118,-6.1118,0.0,0.0,0.0,0.0,0.0,0.0,0.0,0.0,0.0,0.0,0.0,0.0,0.0,0.0,0.0,0.0,0.0,0.0,0.0,0.0,0.0,0.0,0.0,0.0,0.0,0.0,0.0,0.0,0.0,0.0,0.0,0.0,0.0,0.0,0.0,0.0,0.0,0.0,0.0,0.0,0.0,0.0,-6.1148,0.0,0.0,0.0,0.0,0.0,0.0,0.0,0.0,0.0,0.0,-5.3588,-5.5459,0.0,0.0,-6.2797,-6.5125,-6.7956,-7.0683,-7.2457,-7.2595,-7.2104,-7.1446,-6.9009,-6.6185,-6.3864,-6.1505,-5.9609,0.0,0.0,0.0,-6.3091,-6.6069,0.0,-7.0131,-7.1059,0.0,-7.0131,0.0,-6.9589,-6.8584,-6.8661,0.0,0.0,-6.9551,-6.9976,-6.9976,-6.9976,-6.9319,-6.7887,-6.7617,-6.7075,-6.6224,-6.6185,-6.6185,-6.6185,-6.6185,-6.6185,-6.6185,-6.6185,-6.6185,-6.6185,-6.6185,-6.6185,-6.6185,-6.6185,-6.6185,-6.6031,-6.4338,-6.3719,-6.3487,-6.1737,-6.1118,-6.1118,0.0,0.0,0.0,0.0,0.0,0.0,0.0,0.0,0.0,0.0,0.0,0.0,0.0,0.0,0.0,0.0,0.0,0.0,0.0,0.0,0.0,0.0,0.0,0.0,0.0,0.0,0.0,0.0,0.0,0.0,0.0,0.0,0.0,0.0,0.0,0.0,0.0,0.0,0.0,0.0,0.0,0.0,0.0,0.0,0.0,0.0,0.0,0.0,0.0,0.0,0.0,-5.1846,-5.4318,-5.6307,-5.8297,-6.1176,0.0,-6.6879,-6.9082,-7.1556,-7.3617,-7.4259,-7.3496,-7.2065,-7.0092,-6.6998,-6.371,-6.077,-5.8449,0.0,-5.578,-5.7018,0.0,0.0,0.0,0.0,-6.8622,-6.9938,-7.0827,0.0,-7.0789,0.0,-6.9938,-6.9899,-6.9744,0.0,-6.9744,-6.9976,-6.9976,-7.0363,-6.9783,-6.8119,-6.8081,-6.7462,-6.6224,-6.6185,-6.6185,-6.6185,-6.6185,-6.6185,-6.6185,-6.6185,-6.6185,-6.6185,0.0,-6.6185,-6.6185,-6.6185,-6.6185,-6.6069,-6.4793,-6.4029,-6.3526,-6.2162,-6.1427,-6.1118,0.0,0.0,0.0,0.0,0.0,0.0,0.0,0.0,0.0,0.0,0.0,0.0,0.0,0.0,0.0,0.0,0.0,0.0,0.0,0.0,0.0,0.0,0.0,0.0,0.0,0.0,0.0,0.0,0.0,0.0,0.0,0.0,0.0,0.0,0.0,0.0,0.0,0.0,0.0,0.0,0.0,0.0,0.0,0.0,0.0,0.0,0.0,0.0,0.0,0.0,-5.3227,-5.3459,-5.6747,-5.9145,-6.1389,-6.4677,-6.8042,-7.1021,-7.2645,-7.4811,-7.6359,-7.5508,-7.3844,-7.1523,-6.8119,-6.4599,-6.1079,-5.7512,0.0,-5.4039,-5.3149,-5.4465,-5.6283,-5.8139,0.0,-6.4609,-6.7152,-6.8932,-7.0634,-7.2375,-7.1833,-7.133,-7.1446,-7.1369,-7.0982,-7.0208,-7.017,-7.017,-7.017,-7.0905,-7.0518,-6.8854,-6.8584,-6.7733,-6.6224,-6.6185,-6.6185,-6.6185,-6.6185,-6.6185,-6.6185,-6.6185,-6.6185,-6.6185,0.0,0.0,-6.6185,-6.6185,-6.6185,-6.6108,-6.5296,-6.4532,-6.3758,-6.2897,-6.2008,-6.1273,0.0,0.0,0.0,0.0,0.0,0.0,0.0,0.0,0.0,0.0,-6.0963,-6.0654,0.0,0.0,0.0,0.0,0.0,0.0,0.0,0.0,0.0,0.0,0.0,0.0,0.0,0.0,0.0,0.0,0.0,0.0,0.0,0.0,0.0,0.0,0.0,0.0,0.0,0.0,0.0,0.0,0.0,0.0,0.0,0.0,0.0,0.0,0.0,0.0,0.0,0.0,-5.4813,-5.6902,-5.9609,-6.2588,-6.5644,-6.8352,-7.1562,-7.4425,-7.5469,-7.6591,-7.7248,-7.6397,-7.3844,-7.0634,-6.7191,-6.3284,0.0,0.0,-5.2801,-5.1323,-5.0519,-5.2337,-5.4735,-5.7134,-6.1002,-6.4609,-6.7152,-6.8932,-7.0634,0.0,-7.1833,-7.1562,-7.2297,-7.1717,0.0,0.0,0.0,-7.1059,-7.1059,-7.1214,-7.0518,-6.8854,-6.7384,-6.6495,-6.6185,-6.6185,-6.6185,-6.6185,-6.6185,-6.6185,-6.6185,-6.6185,-6.6185,-6.6185,-6.6185,0.0,-6.6185,-6.6185,-6.6185,-6.6108,-6.5296,-6.4919,-6.4687,-6.3797,-6.2936,-6.2162,0.0,0.0,0.0,0.0,0.0,0.0,0.0,-6.0692,-6.1776,-6.1776,-6.1776,-6.1466,-6.0615,-6.0151,0.0,0.0,0.0,0.0,0.0,0.0,0.0,0.0,0.0,0.0,0.0,0.0,0.0,0.0,0.0,0.0,0.0,0.0,0.0,0.0,0.0,0.0,0.0,0.0,0.0,0.0,0.0,0.0,0.0,0.0,0.0,0.0,0.0,0.0,0.0,0.0,-5.5586,-5.7744,-6.0306,-6.3439,-6.6804,-6.9783,-7.3109,-7.6088,-7.7403,-7.8061,-7.8061,-7.6707,-7.3496,-6.9512,-6.5218,0.0,0.0,0.0,-5.1138,-5.0171,-4.9784,-5.1061,0.0,-5.5586,-5.8836,-6.2095,-6.5102,-6.7346,0.0,-7.1678,-7.1562,-7.164,0.0,-7.1794,0.0,0.0,0.0,-7.1291,-7.1291,-7.0479,-6.9435,-6.8158,-6.6882,-6.6185,-6.6185,-6.6185,-6.6185,-6.6185,-6.6185,-6.6185,-6.6185,-6.6185,-6.6185,-6.6185,-6.6185,0.0,-6.6185,-6.6185,-6.6185,-6.6147,-6.576,-6.5373,-6.4957,-6.4532,-6.3826,-6.3091,0.0,0.0,0.0,0.0,0.0,0.0,0.0,-6.077,-6.2394,-6.2394,-6.2549,-6.2356,-6.1466,-6.0654,-6.0074,0.0,0.0,0.0,0.0,0.0,0.0,0.0,0.0,0.0,0.0,0.0,0.0,0.0,0.0,0.0,0.0,0.0,0.0,0.0,0.0,0.0,0.0,0.0,0.0,0.0,0.0,0.0,0.0,0.0,0.0,0.0,0.0,0.0,0.0,0.0,-5.5238,-5.694,-5.9493,-6.3013,-6.6843,-7.0054,-7.3419,-7.6514,-7.8254,-7.8718,-7.8293,-7.6552,-7.2916,-6.839,-6.3284,-5.9484,0.0,-5.1517,-4.9977,-4.9436,-4.9436,-5.0094,-5.1478,0.0,-5.667,-5.9455,-6.2714,-6.5334,-6.7965,0.0,-7.1021,0.0,-7.2491,0.0,0.0,0.0,0.0,0.0,-7.1021,-6.9628,-6.839,-6.7539,-6.665,-6.6185,-6.6185,-6.6185,-6.6185,-6.6185,-6.6185,-6.6185,-6.6185,-6.6185,-6.6185,-6.6185,-6.6185,0.0,0.0,-6.6185,-6.6185,-6.6185,-6.6185,-6.5799,-6.5257,-6.5257,-6.4725,-6.399,0.0,0.0,0.0,0.0,0.0,0.0,0.0,-6.077,-6.2394,-6.2394,-6.3091,-6.3245,-6.2394,-6.1505,-6.0692,0.0,0.0,0.0,0.0,0.0,0.0,0.0,0.0,0.0,0.0,0.0,0.0,0.0,0.0,0.0,0.0,0.0,0.0,0.0,0.0,0.0,0.0,0.0,0.0,0.0,0.0,0.0,0.0,0.0,0.0,0.0,0.0,0.0,0.0,0.0,0.0,-5.4271,-5.6863,-6.1582,-6.6727,-6.9357,0.0,0.0,-7.7365,-7.7829,-7.7403,-7.5662,-7.2026,-6.7578,-6.2394,0.0,-5.4929,-5.0674,-4.9126,-4.8508,-4.8508,-4.9243,-5.0635,0.0,0.0,-5.8333,-6.0963,-6.3594,-6.6456,-6.9744,0.0,0.0,0.0,0.0,0.0,0.0,0.0,0.0,-7.017,-6.928,-6.839,-6.7539,-6.665,-6.6185,-6.6185,-6.6185,-6.6185,-6.6185,-6.6185,-6.6185,-6.6185,-6.6185,-6.6185,-6.6185,-6.6185,0.0,0.0,-6.6185,-6.6185,-6.6185,-6.6185,-6.6147,-6.6108,-6.6108,-6.5566,-6.488,0.0,0.0,0.0,0.0,0.0,0.0,-5.8613,-6.077,-6.2588,-6.3091,-6.3487,-6.3565,-6.3207,-6.2394,-6.1543,0.0,0.0,0.0,0.0,0.0,0.0,0.0,0.0,0.0,0.0,0.0,0.0,0.0,0.0,0.0,0.0,0.0,0.0,0.0,0.0,0.0,0.0,0.0,0.0,0.0,0.0,0.0,0.0,0.0,0.0,0.0,0.0,0.0,0.0,0.0,0.0,0.0,-5.5122,-5.8139,0.0,0.0,-7.0131,-7.3303,-7.5546,-7.6127,-7.5856,-7.4657,-7.0789,-6.6031,-6.1427,0.0,-5.4078,-4.9784,-4.9049,-4.901,-4.8508,-4.9126,-5.0364,0.0,0.0,0.0,-5.8526,0.0,-6.4329,-6.6688,-6.7887,0.0,0.0,0.0,0.0,0.0,0.0,0.0,-7.0054,-6.9241,-6.839,-6.7539,-6.665,-6.6185,-6.6185,-6.6185,-6.6185,-6.6185,-6.6185,-6.6185,-6.6185,-6.6185,-6.6185,-6.6185,-6.6185,0.0,0.0,-6.6185,-6.6185,-6.6185,-6.6185,-6.6185,-6.6185,-6.6185,-6.5992,-6.5721,0.0,0.0,0.0,0.0,0.0,-5.8294,-5.8574,-6.0538,-6.2317,-6.3207,-6.3526,-6.3603,-6.3323,-6.2781,-6.2046,-6.1195,0.0,0.0,0.0,0.0,0.0,0.0,0.0,0.0,0.0,0.0,0.0,0.0,0.0,0.0,0.0,0.0,0.0,0.0,0.0,0.0,0.0,0.0,0.0,0.0,0.0,0.0,0.0,0.0,0.0,0.0,0.0,0.0,0.0,0.0,0.0,0.0,0.0,0.0,0.0,0.0,-6.692,-7.0286,-7.2607,-7.3612,-7.3728,-7.2645,-6.9087,-6.4677,0.0,0.0,-5.3652,-4.9629,-4.9281,-4.9513,-4.8894,-4.9281,-5.0171,0.0,0.0,0.0,0.0,-5.93,-6.2124,0.0,0.0,0.0,0.0,0.0,0.0,0.0,0.0,0.0,0.0,-6.9241,-6.839,-6.7539,-6.665,-6.6185,-6.6185,-6.6185,-6.6185,-6.6185,-6.6185,-6.6185,-6.6185,-6.6185,-6.6185,-6.6185,0.0,0.0,0.0,-6.6185,-6.6185,-6.6185,-6.6185,-6.6185,-6.6185,-6.6185,-6.6185,-6.6185,0.0,0.0,0.0,0.0,0.0,0.0,-5.8449,-6.0035,-6.1427,-6.2317,-6.3168,-6.3362,-6.2511,-6.2433,-6.2046,-6.1195,0.0,0.0,0.0,0.0,0.0,0.0,0.0,0.0,0.0,0.0,-5.8613,-5.8613,-5.8613,0.0,0.0,0.0,0.0,0.0,0.0,0.0,0.0,0.0,0.0,0.0,0.0,0.0,0.0,0.0,0.0,0.0,0.0,0.0,0.0,0.0,0.0,0.0,0.0,0.0,0.0,0.0,-6.2936,-6.665,-6.839,-7.0092,-7.0943,-6.928,-6.692,-6.3671,0.0,0.0,-5.3846,-5.0403,-4.9707,-4.9707,-4.9707,-4.9707,-4.9977,0.0,0.0,0.0,0.0,0.0,0.0,0.0,0.0,0.0,0.0,0.0,0.0,0.0,0.0,0.0,0.0,-6.9241,-6.839,-6.7539,-6.665,-6.6185,-6.6185,-6.6185,-6.6185,-6.6185,-6.6185,-6.6185,-6.6185,-6.6185,-6.6185,0.0,0.0,0.0,0.0,-6.6185,-6.6185,-6.6185,-6.6185,-6.6185,-6.6185,-6.6185,-6.6185,-6.6185,0.0,0.0,0.0,0.0,0.0,0.0,0.0,-5.9184,-6.0576,-6.1389,-6.2278,-6.2704,-6.2433,-6.2394,-6.2046,-6.1195,0.0,0.0,0.0,0.0,0.0,0.0,0.0,0.0,0.0,0.0,-6.0306,-6.0306,-5.9764,-5.9493,-5.9493,-5.8874,0.0,0.0,0.0,0.0,0.0,0.0,0.0,0.0,0.0,0.0,0.0,0.0,0.0,0.0,0.0,0.0,0.0,0.0,0.0,0.0,0.0,0.0,0.0,0.0,0.0,0.0,-6.398,-6.5257,-6.6002,-6.545,-6.2936,-5.988,-5.7056,-5.4658,-5.2376,-5.0171,-5.0132,-5.0357,-4.9784,-5.0171,-5.0589,-5.0859,0.0,0.0,0.0,0.0,0.0,0.0,0.0,0.0,0.0,0.0,0.0,0.0,0.0,0.0,0.0,-6.9241,-6.839,-6.7539,-6.665,-6.6185,-6.6185,-6.6185,-6.6185,-6.6185,-6.6185,-6.6185,-6.6185,-6.6185,0.0,0.0,0.0,0.0,0.0,-6.6185,-6.6185,-6.6185,-6.6185,-6.6185,-6.6185,-6.6185,-6.6185,-6.6185,0.0,0.0,0.0,0.0,0.0,0.0,0.0,-5.8217,-5.9339,-6.0499,-6.1118,-6.1582,-6.1892,-6.193,-6.1698,-6.1157,0.0,0.0,0.0,0.0,0.0,0.0,0.0,0.0,0.0,-6.1118,-6.1118,-6.1118,-6.0615,-6.0344,-6.0344,-5.9803,-5.9377,-5.9068,0.0,0.0,0.0,0.0,0.0,0.0,0.0,0.0,-5.6012,0.0,0.0,0.0,0.0,0.0,0.0,0.0,0.0,0.0,0.0,0.0,0.0,0.0,0.0,0.0,0.0,-6.0847,-6.1708,-6.135,-5.9455,0.0,0.0,-5.3575,-5.1796,-5.0442,-5.055,-5.0743,-5.0241,-5.055,-5.0898,-5.0898,0.0,0.0,0.0,0.0,0.0,0.0,0.0,0.0,0.0,0.0,0.0,0.0,0.0,0.0,0.0,-6.8777,-6.7926,-6.7036,-6.6495,-6.6185,-6.6185,-6.6185,-6.6185,-6.6185,-6.6185,-6.6185,-6.6185,-6.6185,0.0,0.0,0.0,0.0,0.0,-6.6185,-6.6185,-6.6185,-6.6185,-6.6185,-6.6185,-6.6185,-6.6185,-6.6185,0.0,0.0,0.0,0.0,0.0,0.0,0.0,-5.7241,-5.786,-5.9493,-5.9803,-6.019,-6.0925,-6.1079,-6.1118,-6.1118,0.0,0.0,0.0,0.0,0.0,0.0,0.0,0.0,0.0,-6.1118,-6.1118,-6.1118,-6.1118,-6.1118,-6.1118,-6.1118,-6.0692,-5.9996,-5.9919,-5.9455,-5.869,-5.8651,-5.8178,-5.7473,-5.7357,-5.6815,0.0,0.0,0.0,0.0,0.0,0.0,0.0,0.0,0.0,0.0,0.0,0.0,0.0,0.0,0.0,0.0,0.0,0.0,0.0,0.0,0.0,0.0,0.0,0.0,0.0,-5.1053,-5.0898,-5.0898,-5.0898,-5.0898,-5.0898,0.0,0.0,0.0,0.0,0.0,0.0,0.0,0.0,0.0,0.0,0.0,0.0,0.0,0.0,0.0,0.0,-6.7926,-6.7114,-6.6224,-6.6185,-6.6185,-6.6185,-6.6185,-6.6185,-6.6185,-6.6185,-6.6185,-6.6185,-6.6185,0.0,0.0,0.0,0.0,0.0,-6.6185,-6.6185,-6.6185,-6.6185,-6.6185,-6.6185,-6.6185,-6.6185,-6.6185,0.0,0.0,0.0,0.0,0.0,0.0,0.0,0.0,0.0,0.0,-5.9068,-5.9957,-6.0151,-6.0731,-6.1118,0.0,0.0,0.0,0.0,0.0,0.0,0.0,0.0,0.0,0.0,-6.1118,-6.1118,-6.1118,-6.1118,-6.1118,-6.1118,-6.1118,-6.1002,-6.0809,-6.0151,-5.9803,-5.9532,-5.8874,-5.8874,-5.9184,-5.7821,-5.7164,0.0,0.0,0.0,0.0,-5.5006,-5.4116,0.0,0.0,0.0,0.0,0.0,0.0,0.0,0.0,-5.1053,0.0,0.0,0.0,0.0,0.0,0.0,0.0,0.0,0.0,0.0,0.0,0.0,0.0,0.0,0.0,0.0,0.0,0.0,0.0,0.0,0.0,0.0,0.0,0.0,0.0,0.0,0.0,0.0,0.0,0.0,0.0,0.0,-6.7617,-6.7114,-6.6224,-6.6185,-6.6185,-6.6185,-6.6185,-6.6185,-6.6185,-6.6185,-6.6185,-6.6185,-6.6185,0.0,0.0,0.0,0.0,-6.6185,-6.6185,-6.6185,-6.6185,-6.6185,-6.6185,-6.6185,-6.6185,-6.6185,-6.6185,0.0,0.0,0.0,0.0,0.0,0.0,0.0,0.0,0.0,0.0,0.0,0.0,0.0,0.0,0.0,0.0,0.0,0.0,0.0,0.0,0.0,0.0,0.0,0.0,-6.1118,-6.1118,-6.1118,-6.1118,-6.1505,-6.1698,-6.1698,-6.1698,-6.1698,-6.166,-6.0809,-6.046,-6.0422,-5.9957,-5.9803,-5.9764,-5.8449,0.0,0.0,0.0,0.0,0.0,-5.5509,-5.4542,0.0,-5.2956,-5.195,-5.0898,0.0,0.0,0.0,0.0,-5.0898,0.0,0.0,0.0,0.0,0.0,0.0,0.0,0.0,0.0,0.0,0.0,0.0,0.0,0.0,0.0,0.0,0.0,-5.2221,0.0,0.0,0.0,0.0,0.0,0.0,0.0,0.0,0.0,0.0,0.0,0.0,0.0,0.0,-6.7114,-6.6688,-6.6224,-6.6185,-6.6185,-6.6185,-6.6185,-6.6185,-6.6185,-6.6185,-6.6185,-6.6185,-6.6185,-6.6185,0.0,0.0,0.0,-6.6185,-6.6185,-6.6185,-6.6185,-6.6185,-6.6185,-6.6185,-6.6185,-6.6185,-6.6185,0.0,0.0,0.0,0.0,0.0,0.0,0.0,0.0,0.0,0.0,0.0,0.0,0.0,0.0,0.0,0.0,0.0,0.0,0.0,0.0,0.0,0.0,0.0,-6.1118,-6.1118,-6.1118,-6.1157,-6.1311,-6.2046,-6.2472,-6.2588,-6.2588,-6.2549,-6.2356,-6.1505,-6.1118,-6.1118,-6.1118,-6.0692,-5.9996,-5.9145,0.0,0.0,0.0,0.0,0.0,0.0,0.0,0.0,-5.3498,-5.2337,-5.0898,-5.0898,0.0,0.0,0.0,0.0,0.0,0.0,0.0,0.0,0.0,0.0,0.0,0.0,0.0,0.0,0.0,0.0,0.0,0.0,-5.1014,0.0,0.0,0.0,0.0,0.0,0.0,0.0,0.0,0.0,0.0,0.0,0.0,0.0,0.0,0.0,0.0,0.0,-6.6611,-6.6185,-6.6185,-6.6185,-6.6185,-6.6185,-6.6185,-6.6185,-6.6185,-6.6185,-6.6185,-6.6185,-6.6185,-6.6185,0.0,0.0,0.0,-6.6185,-6.6185,-6.6185,-6.6185,-6.6185,-6.6185,-6.6185,-6.6185,-6.6185,-6.6185,0.0,0.0,0.0,0.0,0.0,0.0,0.0,0.0,0.0,0.0,0.0,0.0,0.0,0.0,0.0,0.0,0.0,0.0,0.0,0.0,0.0,0.0,-6.1118,-6.1118,-6.1118,-6.1118,-6.1466,-6.2201,-6.2317,-6.2781,-6.3487,-6.3487,-6.3091,-6.2356,-6.1505,-6.1118,-6.1118,-6.1118,-6.1041,-6.0847,-6.0035,0.0,0.0,0.0,0.0,0.0,0.0,0.0,0.0,-5.3498,-5.2337,-5.0898,-5.0898,0.0,0.0,0.0,0.0,0.0,-5.0898,-5.0898,-5.0898,-5.0898,0.0,0.0,0.0,0.0,0.0,0.0,0.0,0.0,0.0,-5.1486,-5.2298,0.0,0.0,0.0,0.0,0.0,0.0,0.0,0.0,0.0,0.0,0.0,0.0,0.0,0.0,0.0,0.0,-6.6263,-6.6185,-6.6185,-6.6185,-6.6185,-6.6185,-6.6185,-6.6185,-6.6185,-6.6185,-6.6185,-6.6185,-6.6185,-6.6185,0.0,0.0,-6.6185,-6.6185,-6.6185,-6.6185,-6.6185,-6.6185,-6.6185,-6.6185,-6.6185,-6.6185,-6.6185,0.0,0.0,0.0,0.0,0.0,0.0,0.0,0.0,0.0,0.0,0.0,0.0,0.0,0.0,0.0,0.0,0.0,0.0,0.0,0.0,0.0,-6.1118,-6.1118,-6.1118,-6.1118,-6.1543,-6.2008,-6.2394,-6.3323,-6.4019,-6.4377,-6.3913,-6.3245,-6.2356,-6.1505,-6.1118,-6.1118,-6.1118,-6.1118,-6.1041,0.0,0.0,0.0,0.0,0.0,0.0,0.0,0.0,0.0,0.0,-5.2647,-5.1525,-5.1053,0.0,0.0,0.0,0.0,0.0,-5.0898,-5.0898,-5.0898,-5.0898,0.0,0.0,0.0,0.0,0.0,0.0,0.0,0.0,0.0,0.0,-5.4194,-5.5973,0.0,0.0,0.0,0.0,0.0,0.0,0.0,0.0,0.0,0.0,0.0,0.0,0.0,0.0,0.0,0.0,-6.6185,-6.6185,-6.6185,-6.6185,-6.6185,-6.6185,-6.6185,-6.6185,-6.6185,-6.6185,-6.6185,-6.6185,-6.6185,-6.6185,0.0,-6.6185,-6.6185,-6.6185,-6.6185,-6.6185,-6.6185,-6.6185,-6.6185,-6.6185,-6.6185,-6.6185,0.0,0.0,0.0,0.0,0.0,0.0,0.0,0.0,0.0,0.0,0.0,0.0,0.0,0.0,0.0,0.0,0.0,0.0,0.0,0.0,-6.1118,-6.1118,-6.1118,-6.1195,-6.1389,-6.2046,-6.2588,-6.3013,-6.4329,-6.4986,-6.4986,-6.4106,-6.3245,-6.2356,-6.1505,-6.1118,-6.1118,-6.1118,-6.1118,-6.1041,0.0,0.0,0.0,0.0,0.0,0.0,0.0,0.0,0.0,0.0,0.0,0.0,0.0,0.0,0.0,0.0,-5.0898,-5.0898,-5.0898,-5.0898,-5.0898,-5.0898,0.0,0.0,0.0,0.0,0.0,0.0,0.0,0.0,0.0,0.0,0.0,0.0,0.0,0.0,0.0,0.0,0.0,0.0,0.0,0.0,0.0,0.0,0.0,0.0,0.0,0.0,0.0,0.0,-6.6185,-6.6185,-6.6185,-6.6108,-6.5915,-6.5915,-6.5992,-6.6185,-6.6185,-6.6108,-6.5915,-6.5915,-6.5915,-6.5915,-6.5915,-6.6031,-6.6185,-6.6185,-6.6185,-6.6185,-6.6185,-6.6185,-6.6185,-6.6185,-6.6185,-6.6185,0.0,0.0,0.0,0.0,0.0,0.0,0.0,0.0,0.0,0.0,0.0,0.0,0.0,0.0,0.0,0.0,0.0,0.0,0.0,0.0,-6.1118,-6.1118,-6.1118,-6.1466,-6.2278,-6.2356,-6.3207,-6.4793,-6.4948,-6.4986,-6.4986,-6.4106,-6.3245,-6.2356,-6.1505,-6.1118,-6.1118,-6.1118,-6.1118,-6.1079,-6.1041,0.0,0.0,0.0,0.0,0.0,0.0,0.0,0.0,0.0,0.0,0.0,0.0,0.0,0.0,0.0,0.0,-5.0898,-5.0898,-5.0898,-5.0898,-5.0898,-5.0898,0.0,-5.1912,-5.2113,0.0,-5.3227,0.0,0.0,0.0,0.0,0.0,0.0,0.0,0.0,0.0,0.0,0.0,0.0,0.0,0.0,0.0,0.0,0.0,0.0,0.0,0.0,0.0,0.0,0.0,-6.6185,-6.6185,-6.5837,-6.5102,-6.5102,-6.545,-6.6185,-6.6185,-6.5799,-6.5102,-6.5102,-6.5102,-6.5102,-6.5102,-6.5489,-6.6185,-6.6185,-6.6185,-6.6185,-6.6185,-6.6185,-6.6185,-6.6185,-6.6185,-6.6185,0.0,0.0,0.0,0.0,0.0,0.0,0.0,0.0,0.0,0.0,0.0,0.0,0.0,0.0,0.0,0.0,0.0,0.0,0.0,0.0,-6.1118,-6.1118,-6.1118,-6.1776,-6.3168,-6.3207,-6.3787,-6.4986,-6.5489,-6.5489,-6.4986,-6.4106,-6.3245,-6.2356,-6.1505,-6.1118,-6.1118,-6.1118,-6.1118,-6.1118,-6.1118,-6.0615,0.0,0.0,0.0,0.0,0.0,0.0,0.0,0.0,0.0,0.0,0.0,0.0,0.0,0.0,0.0,-5.0898,-5.0898,-5.0898,-5.0898,-5.0898,-5.1331,0.0,0.0,-5.3033,-5.4039,-5.489,-5.5509,0.0,0.0,0.0,0.0,0.0,0.0,0.0,0.0,0.0,0.0,0.0,0.0,0.0,0.0,0.0,0.0,0.0,0.0,0.0,0.0,0.0,0.0,-6.545,-6.4909,-6.4493,-6.4184,-6.4184,-6.4338,-6.4638,-6.4638,-6.4493,-6.4184,-6.4184,-6.4184,-6.4222,-6.4764,-6.518,-6.5489,-6.5992,-6.6185,-6.6185,-6.6185,-6.6185,-6.6185,-6.6185,-6.6185,-6.6185,0.0,0.0,0.0,0.0,0.0,0.0,0.0,0.0,0.0,0.0,0.0,0.0,0.0,0.0,0.0,0.0,0.0,0.0,0.0,-6.1118,-6.1118,-6.1118,-6.1118,-6.1776,-6.3245,-6.3284,-6.398,-6.5373,-6.5915,-6.5644,-6.4571,-6.399,-6.3091,-6.1969,-6.1389,-6.1118,-6.1118,-6.1118,-6.1118,-6.1118,-6.1118,-6.077,0.0,0.0,0.0,0.0,0.0,0.0,0.0,0.0,0.0,0.0,0.0,0.0,0.0,0.0,0.0,0.0,-5.0898,-5.0898,-5.0975,-5.1254,0.0,0.0,-5.3265,-5.431,-5.5586,-5.694,-5.7714,0.0,0.0,0.0,0.0,0.0,0.0,0.0,0.0,0.0,0.0,0.0,0.0,0.0,0.0,0.0,0.0,0.0,0.0,0.0,0.0,0.0,0.0,0.0,-6.4029,-6.3565,-6.3284,-6.3284,-6.3129,-6.2859,-6.2859,-6.3013,-6.3284,-6.3284,-6.3284,-6.3323,-6.3903,-6.4483,-6.5025,-6.5605,-6.5953,-6.6185,-6.6185,-6.6185,-6.6185,-6.6185,-6.6185,-6.6185,0.0,0.0,0.0,0.0,0.0,0.0,0.0,0.0,0.0,0.0,0.0,0.0,0.0,0.0,0.0,0.0,0.0,0.0,-6.1118,-6.1118,-6.1118,-6.1118,-6.1118,-6.1505,-6.2394,-6.2433,-6.3671,-6.6185,-6.6185,-6.5334,-6.3681,-6.3681,-6.2743,-6.1118,-6.1118,-6.1118,-6.1118,-6.1118,-6.1118,-6.1118,-6.1118,-6.1118,-6.0925,0.0,0.0,0.0,0.0,0.0,0.0,0.0,0.0,0.0,0.0,0.0,0.0,0.0,-5.0898,-5.0898,-5.0898,-5.0898,-5.1091,0.0,0.0,0.0,-5.5625,-5.6051,-5.6786,-5.9416,0.0,-5.9919,-5.9919,0.0,0.0,0.0,0.0,0.0,0.0,0.0,0.0,0.0,0.0,0.0,0.0,0.0,0.0,0.0,0.0,0.0,0.0,0.0,0.0,0.0,-6.3681,-6.3245,-6.2394,-6.2394,-6.1969,-6.1118,-6.1118,-6.1543,-6.2394,-6.2394,-6.2394,-6.2394,-6.2394,-6.3362,-6.4986,-6.4986,-6.5489,-6.6185,-6.6185,-6.6185,-6.6185,-6.6185,-6.6185,-6.6185,0.0,0.0,0.0,0.0,0.0,0.0,0.0,0.0,0.0,0.0,0.0,0.0,0.0,0.0,0.0,0.0,0.0,0.0,-6.1118,-6.1118,-6.1118,-6.1118,-6.1118,-6.1505,-6.2394,-6.3013,-6.3671,-6.4454,-6.5064,-6.4483,-6.2781,-6.2781,-6.2162,-6.1118,-6.1118,-6.1118,-6.1118,-6.1118,-6.1118,-6.1118,-6.1118,-6.077,-6.0112,0.0,0.0,0.0,0.0,0.0,0.0,0.0,0.0,0.0,0.0,0.0,0.0,0.0,-5.0898,-5.0898,-5.0898,-5.0898,0.0,-5.1989,0.0,0.0,0.0,-5.7869,0.0,0.0,-6.2559,-6.2559,-6.2559,0.0,0.0,0.0,0.0,0.0,0.0,0.0,0.0,0.0,0.0,0.0,0.0,0.0,0.0,0.0,0.0,0.0,0.0,0.0,0.0,0.0,-6.2201,-6.1737,-6.1505,-6.1505,-6.135,-6.1118,-6.1118,-6.1234,-6.1505,-6.1505,-6.1505,-6.1505,-6.2124,-6.3052,-6.4184,-6.5373,-6.5992,-6.6185,-6.6185,-6.6185,-6.6185,-6.6185,-6.6185,-6.6185,0.0,0.0,0.0,0.0,0.0,0.0,0.0,0.0,0.0,0.0,0.0,0.0,0.0,0.0,0.0,0.0,0.0,0.0,0.0,0.0,-6.1118,-6.1118,-6.1118,-6.135,-6.1892,-6.2743,-6.3013,-6.2665,-6.3913,-6.3748,-6.2394,-6.2394,-6.193,-6.1118,-6.1118,-6.1118,-6.1118,-6.1118,-6.1118,-6.1118,-6.1118,-6.0615,-5.9803,0.0,0.0,0.0,0.0,0.0,0.0,0.0,0.0,0.0,0.0,0.0,0.0,-5.0898,-5.0898,-5.0898,-5.0898,-5.113,0.0,-5.2492,-5.4,-5.5973,-5.8711,0.0,0.0,0.0,0.0,-6.4106,0.0,0.0,0.0,0.0,0.0,0.0,0.0,0.0,0.0,0.0,0.0,0.0,0.0,0.0,0.0,0.0,0.0,0.0,0.0,0.0,0.0,0.0,-6.1389,-6.1118,-6.1118,-6.1118,-6.1118,-6.1118,-6.1118,-6.1118,-6.1118,-6.1118,-6.1118,-6.1157,-6.2008,-6.2897,-6.3797,-6.5141,-6.5915,-6.6185,-6.6185,-6.6185,-6.6185,-6.6185,-6.6185,-6.6185,0.0,0.0,0.0,0.0,0.0,0.0,0.0,0.0,0.0,0.0,0.0,0.0,0.0,0.0,0.0,0.0,0.0,0.0,0.0,0.0,-6.1118,-6.1118,-6.1118,-6.1118,-6.1118,-6.1892,-6.1892,-6.1118,-6.2781,-6.3129,-6.2278,-6.2278,-6.1853,-6.1118,-6.1118,-6.1118,-6.1118,-6.1118,-6.1079,-6.1002,-6.1002,-6.046,-5.9571,-5.8758,0.0,0.0,0.0,0.0,0.0,0.0,0.0,0.0,0.0,0.0,-5.0898,-5.0898,-5.0898,-5.0898,-5.0898,0.0,0.0,-5.3265,-5.489,0.0,-6.1582,-6.3129,-6.3758,-6.3913,0.0,0.0,0.0,0.0,0.0,0.0,0.0,0.0,0.0,0.0,0.0,0.0,0.0,0.0,0.0,0.0,0.0,0.0,0.0,0.0,0.0,0.0,0.0,0.0,-6.0886,-6.0886,-6.0886,-6.0886,-6.0886,0.0,-6.0963,-6.1002,-6.1002,-6.1079,-6.1118,-6.1157,-6.2008,-6.2859,-6.3681,-6.4609,-6.5412,-6.6108,-6.6185,-6.6185,-6.6185,-6.6185,-6.6185,-6.6185,0.0,0.0,0.0,0.0,0.0,0.0,0.0,0.0,0.0,0.0,0.0,0.0,0.0,0.0,0.0,0.0,0.0,0.0,0.0,0.0,-6.1118,-6.1118,-6.1118,-6.1118,-6.1118,-6.1273,-6.1273,-6.1118,-6.2162,-6.224,-6.1389,-6.1389,-6.1273,-6.1118,-6.1118,-6.1118,-6.1118,-6.1118,-6.0731,-6.0151,-6.0151,-5.9223,-5.783,-5.7637,-5.7056,0.0,0.0,0.0,0.0,0.0,0.0,0.0,-5.3265,-5.2144,-5.0898,-5.0898,-5.0898,-5.0898,0.0,-5.1525,0.0,0.0,-5.578,-5.899,-6.2588,-6.3565,-6.4068,-6.5373,0.0,0.0,0.0,0.0,0.0,0.0,0.0,0.0,0.0,0.0,0.0,0.0,0.0,0.0,0.0,0.0,0.0,0.0,0.0,0.0,0.0,0.0,0.0,-5.9145,-5.9145,-5.9145,-5.9145,-5.9145,-5.9145,0.0,-5.9841,-6.0151,-6.019,-6.0809,-6.1118,-6.1157,-6.2008,-6.2511,-6.282,-6.4367,-6.5102,-6.5334,-6.5953,-6.6185,-6.6185,-6.6185,-6.6185,-6.6185,0.0,0.0,0.0,0.0,0.0,0.0,0.0,0.0,0.0,0.0,0.0,0.0,0.0,0.0,0.0,0.0,0.0,0.0,0.0,0.0,0.0,-6.1118,-6.1118,-6.1118,-6.1118,-6.1118,-6.1118,-6.1118,-6.1543,-6.1543,-6.1118,-6.1118,-6.1118,-6.1118,-6.1118,-6.1118,-6.1079,-6.0692,-6.0267,-5.9841,-5.9455,-5.8488,-5.728,-5.728,-5.6738,-5.6012,-5.6012,0.0,0.0,0.0,0.0,0.0,0.0,0.0,-5.0898,-5.0898,-5.0898,0.0,0.0,0.0,0.0,-5.4813,0.0,-5.988,-6.2472,-6.34,-6.3952,0.0,0.0,0.0,0.0,0.0,0.0,0.0,0.0,0.0,0.0,0.0,0.0,0.0,0.0,0.0,0.0,0.0,0.0,0.0,0.0,0.0,0.0,-5.8613,-5.8613,-5.8613,-5.8613,-5.8613,-5.8613,-5.8613,-5.8613,-5.8613,-5.9068,-5.9493,-5.9919,-6.0731,-6.1118,-6.1118,-6.1582,-6.2008,-6.2472,-6.3362,-6.4251,-6.5025,-6.545,-6.5876,-6.6185,-6.6185,-6.6185,-6.6185,0.0,0.0,0.0,0.0,0.0,0.0,0.0,0.0,0.0,0.0,0.0,0.0,0.0,0.0,0.0,0.0,0.0,0.0,0.0,0.0,0.0,0.0,-6.1118,-6.1118,-6.1118,-6.1118,-6.1118,-6.1118,-6.1118,-6.1118,-6.1118,-6.1118,-6.1118,-6.1118,-6.1118,-6.1118,-6.1041,-6.0228,-5.9803,-5.9609,-5.872,-5.7869,-5.7086,-5.7086,-5.6622,-5.6012,-5.6012,-5.6012,-5.6012,0.0,0.0,0.0,0.0,0.0,-5.0898,-5.0898,0.0,0.0,0.0,0.0,-5.3149,-5.6321,-5.8255,0.0,-6.1776,-6.2743,0.0,0.0,0.0,0.0,0.0,0.0,0.0,0.0,0.0,0.0,0.0,0.0,0.0,0.0,0.0,0.0,0.0,0.0,0.0,0.0,0.0,0.0,-5.8139,-5.8139,-5.8139,-5.8139,-5.8139,-5.8139,-5.8139,-5.8139,-5.8139,-5.8139,-5.8294,-5.8836,-5.9687,-6.0538,-6.0963,-6.1118,-6.1118,-6.1505,-6.2201,-6.2356,-6.3245,-6.4561,-6.487,-6.5412,-6.5992,-6.6147,-6.6185,-6.6185,0.0,0.0,0.0,0.0,0.0,0.0,0.0,0.0,0.0,0.0,0.0,0.0,0.0,0.0,0.0,0.0,0.0,0.0,0.0,0.0,0.0,0.0,-6.1118,-6.1118,-6.1118,-6.1118,-6.1118,-6.1118,-6.1118,-6.1118,-6.1118,-6.1118,-6.1118,-6.1118,-6.1118,-6.1118,-6.1041,-6.0228,-5.9455,-5.8681,-5.783,-5.6932,-5.6158,-5.6158,-5.6081,-5.6012,-5.6012,-5.6012,0.0,0.0,0.0,0.0,0.0,0.0,0.0,0.0,0.0,0.0,0.0,0.0,-5.3768,0.0,-5.6932,-5.8285,0.0,0.0,0.0,0.0,0.0,0.0,0.0,0.0,0.0,0.0,0.0,0.0,0.0,0.0,0.0,0.0,0.0,0.0,0.0,0.0,0.0,0.0,0.0,0.0,-5.6399,-5.636,-5.636,-5.636,-5.636,-5.636,-5.636,-5.636,-5.636,-5.636,-5.7095,-5.7946,-5.8806,-5.9648,-6.0422,-6.1118,-6.1118,-6.1157,-6.135,-6.2085,-6.2549,-6.2897,-6.4406,-6.5064,-6.5218,-6.5953,-6.6185,-6.6185,0.0,0.0,0.0,0.0,0.0,0.0,0.0,0.0,0.0,0.0,0.0,0.0,0.0,0.0,0.0,0.0,0.0,0.0,0.0,0.0,0.0,0.0,-6.1118,-6.1118,-6.1118,-6.1118,-6.1118,-6.1118,-6.1118,-6.1118,-6.1118,-6.1621,-6.1582,-6.1118,-6.1118,-6.1118,-6.1041,-5.9725,-5.8952,-5.8488,-5.7134,-5.6351,-5.6012,0.0,0.0,0.0,0.0,0.0,0.0,0.0,0.0,-5.4155,0.0,0.0,0.0,0.0,0.0,0.0,-5.0898,-5.1834,-5.3188,0.0,-5.5935,-5.7134,-5.9223,0.0,0.0,0.0,0.0,0.0,0.0,0.0,0.0,0.0,0.0,0.0,0.0,0.0,0.0,0.0,0.0,0.0,0.0,0.0,0.0,0.0,0.0,-5.5741,-5.5354,-5.4851,-5.4619,-5.4619,-5.4619,-5.4813,-5.5316,-5.5316,-5.5548,-5.6012,-5.639,-5.7018,-5.7869,-5.8255,-5.9184,-6.046,-6.0886,-6.1118,-6.1118,-6.1505,-6.1969,-6.2511,-6.3787,-6.4571,-6.5102,-6.5915,-6.6185,-6.6185,0.0,0.0,0.0,0.0,0.0,0.0,0.0,0.0,0.0,0.0,0.0,0.0,0.0,0.0,0.0,0.0,0.0,0.0,0.0,0.0,0.0,0.0,0.0,-6.1118,-6.1118,-6.1118,-6.1118,-6.1118,-6.1118,-6.1118,-6.1118,-6.1776,-6.1853,-6.1427,-6.1427,-6.1427,-6.1311,-5.9416,-5.8613,-5.8458,-5.6708,-5.6012,0.0,0.0,0.0,0.0,0.0,0.0,0.0,0.0,0.0,0.0,0.0,0.0,0.0,0.0,0.0,0.0,0.0,0.0,-5.25,-5.3807,-5.4774,-5.578,0.0,0.0,0.0,0.0,0.0,0.0,0.0,0.0,0.0,0.0,0.0,0.0,0.0,0.0,0.0,0.0,0.0,0.0,0.0,0.0,0.0,0.0,0.0,-5.4465,-5.4465,-5.3846,-5.3498,-5.3498,-5.3498,-5.3807,-5.4465,-5.4697,-5.5084,-5.5702,-5.5896,-5.6351,-5.697,-5.7202,-5.8139,-5.9609,-6.0422,-6.0925,-6.1118,-6.1118,-6.1466,-6.2201,-6.3284,-6.4106,-6.4793,-6.5837,-6.6185,-6.6185,0.0,0.0,0.0,0.0,0.0,0.0,0.0,0.0,0.0,0.0,0.0,0.0,0.0,0.0,0.0,0.0,0.0,0.0,0.0,0.0,0.0,0.0,0.0,0.0,0.0,-6.1118,-6.1118,-6.1118,-6.1118,-6.1118,-6.1118,-6.1157,-6.1582,-6.2317,-6.2317,-6.2317,-6.2162,-5.9648,-5.8613,-5.8458,-5.6708,0.0,0.0,0.0,0.0,0.0,0.0,0.0,0.0,0.0,0.0,0.0,0.0,0.0,0.0,0.0,0.0,0.0,0.0,-5.1525,0.0,-5.2306,0.0,0.0,0.0,0.0,0.0,0.0,0.0,0.0,0.0,0.0,0.0,0.0,0.0,0.0,0.0,0.0,0.0,0.0,0.0,0.0,0.0,0.0,0.0,0.0,0.0,-5.3575,-5.3575,-5.3536,-5.3498,-5.3498,-5.3498,-5.3536,-5.3575,-5.4387,-5.4813,-5.4851,-5.5625,-5.6012,-5.6089,-5.6932,-5.7791,-5.8729,-5.9571,-6.0383,-6.1118,-6.1118,-6.1118,-6.135,-6.3062,-6.3719,-6.399,-6.5605,-6.6185,-6.6185,0.0,0.0,0.0,0.0,0.0,0.0,0.0,0.0,0.0,0.0,0.0,0.0,0.0,-6.1118,-6.1118,-6.1118,0.0,0.0,0.0,0.0,0.0,0.0,0.0,0.0,0.0,-6.0576,-6.0344,-6.0344,-5.9764,-5.9764,-6.0344,-6.0847,-6.1582,-6.2394,-6.1814,-6.1892,-6.2278,-6.0267,-5.9106,-5.8488,-5.7327,0.0,0.0,0.0,0.0,0.0,0.0,0.0,0.0,0.0,0.0,0.0,0.0,0.0,0.0,0.0,0.0,0.0,0.0,0.0,0.0,-5.2066,-5.2422,0.0,0.0,0.0,0.0,0.0,0.0,0.0,0.0,0.0,0.0,0.0,0.0,0.0,0.0,0.0,0.0,0.0,0.0,0.0,0.0,0.0,0.0,0.0,0.0,0.0,-5.2655,-5.2144,-5.1834,-5.1834,-5.1834,-5.2105,-5.2655,-5.4078,-5.4813,-5.4813,-5.5625,-5.6012,-5.6012,-5.6313,-5.694,-5.783,-5.8681,-5.9841,-6.1118,-6.1118,-6.1118,-6.1273,-6.3023,-6.3719,-6.3913,-6.5566,-6.6185,-6.6185,0.0,0.0,0.0,0.0,0.0,0.0,0.0,0.0,0.0,0.0,0.0,0.0,0.0,0.0,-6.1022,-6.107,-6.1118,0.0,0.0,0.0,0.0,0.0,0.0,0.0,0.0,0.0,0.0,0.0,-5.8874,-5.8913,-5.9493,-5.9996,-6.0886,-6.193,-6.1079,-6.135,-6.2278,-6.0615,0.0,-5.8952,0.0,0.0,-5.6863,0.0,0.0,0.0,0.0,0.0,0.0,0.0,0.0,0.0,0.0,0.0,0.0,0.0,0.0,0.0,-5.0898,0.0,0.0,0.0,0.0,0.0,0.0,0.0,0.0,0.0,0.0,0.0,0.0,0.0,0.0,0.0,0.0,0.0,0.0,0.0,0.0,0.0,0.0,0.0,0.0,0.0,0.0,0.0,0.0,0.0,-5.1757,-5.1215,-5.0898,-5.0898,-5.0898,-5.1177,-5.1757,-5.3498,-5.4349,-5.4387,-5.547,-5.6012,-5.6012,-5.6012,-5.6467,-5.7357,-5.8217,-5.9416,-6.0731,-6.1002,-6.1118,-6.1273,-6.3023,-6.3719,-6.3913,-6.5566,-6.6185,-6.6185,0.0,0.0,0.0,0.0,0.0,0.0,0.0,0.0,0.0,0.0,0.0,0.0,0.0,0.0,0.0,-6.106,-6.1118,-6.1118,-6.1118,0.0,0.0,0.0,0.0,0.0,0.0,0.0,0.0,0.0,0.0,0.0,0.0,0.0,-5.9455,-6.1002,-6.019,-6.077,-6.2201,0.0,-5.988,-5.9803,0.0,-5.8613,-5.8613,0.0,0.0,0.0,-5.8613,-5.8062,0.0,-5.7318,0.0,0.0,0.0,0.0,0.0,0.0,0.0,0.0,0.0,0.0,0.0,0.0,0.0,0.0,0.0,0.0,0.0,0.0,0.0,0.0,0.0,0.0,0.0,0.0,0.0,0.0,0.0,0.0,0.0,0.0,0.0,0.0,0.0,0.0,0.0,0.0,0.0,-5.0898,-5.0898,-5.0898,-5.0898,-5.0898,-5.0898,-5.0898,-5.0898,-5.2647,-5.3498,-5.3536,-5.52,-5.6012,-5.6012,-5.6012,-5.6467,-5.7318,-5.8217,-5.9068,-5.9919,-6.077,-6.1118,-6.1273,-6.3023,-6.3719,-6.3913,-6.5566,-6.6185,-6.6185,0.0,0.0,0.0,0.0,0.0,0.0,0.0,0.0,0.0,0.0,0.0,0.0,-6.0548,-6.0857,-6.1032,-6.1109,-6.1118,-6.1118,0.0,0.0,0.0,0.0,0.0,0.0,0.0,0.0,0.0,0.0,0.0,0.0,0.0,0.0,0.0,0.0,-5.9068,-5.9223,-5.9648,-5.9841,0.0,-5.8952,-5.869,-5.8613,0.0,0.0,0.0,0.0,0.0,-5.8449,-5.8139,0.0,-5.7125,-5.6545,0.0,0.0,0.0,0.0,0.0,0.0,-5.0898,0.0,0.0,0.0,0.0,0.0,0.0,0.0,0.0,0.0,0.0,0.0,0.0,0.0,0.0,0.0,0.0,0.0,0.0,0.0,0.0,0.0,0.0,0.0,0.0,0.0,0.0,0.0,-5.1053,-5.0898,-5.0898,-5.0898,-5.0898,-5.0898,-5.0898,-5.0898,-5.0898,-5.2647,-5.3498,-5.3536,-5.52,-5.6012,-5.6012,-5.6012,-5.6119,-5.6429,-5.7946,-5.8729,-5.9068,-6.0499,-6.1118,-6.1273,-6.3023,-6.3719,-6.3913,-6.5566,-6.6185,-6.6185,0.0,0.0,0.0,0.0,0.0,0.0,0.0,0.0,0.0,0.0,0.0,0.0,-6.0712,-6.1002,-6.1051,-6.0982,-6.1041,0.0,0.0,0.0,-6.1118,-6.1118,-6.1118,-6.0538,0.0,0.0,0.0,0.0,0.0,0.0,0.0,0.0,0.0,0.0,0.0,0.0,0.0,0.0,0.0,0.0,-5.9145,0.0,0.0,-5.9648,-5.9648,0.0,0.0,0.0,-5.899,-5.8139,-5.7134,0.0,0.0,0.0,0.0,0.0,0.0,0.0,0.0,0.0,0.0,0.0,0.0,0.0,-5.0898,-5.0898,0.0,0.0,0.0,0.0,0.0,0.0,0.0,0.0,0.0,0.0,0.0,0.0,0.0,0.0,0.0,0.0,0.0,0.0,0.0,-5.0898,-5.0898,-5.0898,-5.0898,-5.0898,-5.0898,-5.0898,-5.0898,-5.0898,-5.0898,-5.2647,-5.3498,-5.3536,-5.52,-5.6012,-5.6012,-5.6012,-5.6012,-5.6089,-5.783,-5.8613,-5.8729,-6.0422,-6.1118,-6.1273,-6.3023,-6.3719,-6.3913,-6.5566,-6.6185,-6.6185,0.0,0.0,0.0,0.0,0.0,0.0,0.0,0.0,0.0,0.0,0.0,-5.9696,-6.0674,-6.1037,-6.1126,-6.096,0.0,0.0,0.0,0.0,-6.1032,-6.1051,-6.1051,-6.0287,-5.8651,0.0,0.0,0.0,0.0,0.0,0.0,0.0,0.0,0.0,0.0,0.0,0.0,0.0,0.0,-5.9609,-5.9725,-6.0228,0.0,0.0,-6.1118,-6.1118,-6.1118,-6.0654,-5.988,-5.8913,-5.6979,0.0,0.0,0.0,0.0,0.0,-5.1718,0.0,0.0,0.0,0.0,0.0,0.0,0.0,-5.0898,-5.0898,-5.0898,0.0,0.0,0.0,0.0,0.0,0.0,0.0,0.0,0.0,0.0,0.0,0.0,0.0,0.0,0.0,0.0,-5.0898,-5.0898,-5.0898,-5.0898,-5.0898,-5.0898,-5.0898,-5.0898,-5.0898,-5.0898,-5.0898,-5.0898,-5.2647,-5.3498,-5.3536,-5.52,-5.6012,-5.6012,-5.6012,-5.6012,-5.6089,-5.7753,-5.8488,-5.872,-6.0306,-6.1041,-6.1273,-6.3023,-6.3719,-6.3913,-6.5566,-6.6185,-6.6185,0.0,0.0,0.0,0.0,0.0,0.0,0.0,0.0,0.0,0.0,0.0,-6.1567,-6.2437,-6.1979,-6.1695,0.0,0.0,0.0,0.0,0.0,-6.0692,-6.0839,-6.0839,-6.0141,-5.8642,-5.8613,0.0,0.0,0.0,0.0,0.0,0.0,0.0,0.0,0.0,0.0,0.0,0.0,0.0,-5.7869,-5.8565,0.0,-6.019,-6.0847,-6.1118,-6.1118,-6.1118,-6.1002,-6.0615,-5.9106,-5.7327,-5.5664,0.0,0.0,0.0,-5.3459,0.0,0.0,0.0,0.0,0.0,0.0,0.0,0.0,-5.0898,-5.0898,-5.0898,0.0,0.0,0.0,0.0,0.0,0.0,0.0,0.0,0.0,0.0,0.0,0.0,0.0,0.0,0.0,0.0,-5.0898,-5.0898,-5.0898,-5.0898,-5.0898,-5.0898,-5.0898,-5.0898,-5.0898,-5.0898,-5.0898,-5.0898,-5.2647,-5.3498,-5.3536,-5.52,-5.6012,-5.6012,-5.6012,-5.6012,-5.6051,-5.7095,-5.7946,-5.869,-5.9725,-6.0538,-6.1273,-6.3023,-6.3719,-6.3913,-6.5566,-6.6185,-6.6185,0.0,0.0,0.0,0.0,0.0,0.0,0.0,0.0,0.0,0.0,0.0,-6.2695,-6.2962,-6.2476,-6.2059,0.0,0.0,0.0,0.0,0.0,-6.0828,-6.0951,-6.0962,-6.0229,-5.8642,-5.8613,0.0,0.0,0.0,0.0,0.0,0.0,0.0,0.0,0.0,0.0,0.0,0.0,-5.6506,-5.7396,-5.8255,0.0,-5.9996,-6.0809,-6.1118,-6.1118,-6.1118,-6.0576,-5.9725,-5.8874,-5.7443,0.0,0.0,-5.5122,-5.4697,0.0,-5.3536,-5.284,0.0,0.0,0.0,-5.1563,0.0,0.0,0.0,-5.0898,-5.0898,0.0,0.0,0.0,0.0,0.0,0.0,0.0,0.0,0.0,0.0,0.0,0.0,0.0,0.0,0.0,0.0,-5.0898,-5.0898,-5.0898,-5.0898,-5.0898,-5.0898,-5.0898,-5.0898,-5.0898,-5.0898,-5.0898,-5.0898,-5.2647,-5.3498,-5.3536,-5.52,-5.6012,-5.6012,-5.6012,-5.6012,-5.6051,-5.6932,-5.7791,-5.869,-5.9532,-6.0383,-6.1273,-6.3023,-6.3719,-6.3913,-6.5566,-6.6185,-6.6185,0.0,0.0,0.0,0.0,0.0,0.0,0.0,0.0,0.0,0.0,-6.2849,-6.3476,-6.3444,-6.2868,-6.2392,-6.2106,0.0,0.0,0.0,0.0,-6.0951,-6.0982,-6.0982,-6.0249,-5.8642,-5.8613,0.0,0.0,0.0,0.0,0.0,0.0,0.0,0.0,0.0,0.0,0.0,0.0,0.0,-5.7396,0.0,-5.9261,-5.9996,-6.0809,-6.1118,-6.1079,-6.0925,-5.988,-5.8574,-5.841,-5.7288,-5.6012,-5.6012,-5.5548,0.0,0.0,0.0,0.0,0.0,0.0,0.0,0.0,0.0,-5.1091,0.0,0.0,0.0,0.0,0.0,0.0,0.0,0.0,0.0,0.0,0.0,0.0,0.0,0.0,0.0,0.0,0.0,0.0,0.0,-5.0898,-5.0898,-5.0898,-5.0898,-5.0898,-5.0898,-5.0898,-5.0898,-5.0898,-5.0898,-5.0898,-5.0898,-5.2647,-5.3498,-5.3536,-5.52,-5.6012,-5.6012,-5.6012,-5.6012,-5.6051,-5.6738,-5.7637,-5.8651,-5.9339,-6.0228,-6.1273,-6.282,-6.3565,-6.3874,-6.5412,-6.6069,-6.6185,-5.492,-5.4897,0.0,0.0,0.0,0.0,0.0,0.0,0.0,0.0,0.0,0.0,-6.4863,-6.3761,-6.3002,-6.3125,0.0,0.0,-6.0508,0.0,0.0,-6.0559,-6.0571,-5.9958,-5.8642,-5.8613,0.0,0.0,0.0,0.0,0.0,0.0,0.0,0.0,-5.6012,0.0,0.0,0.0,-5.7202,0.0,-5.9106,-5.9803,0.0,-6.0809,-6.1118,-6.1002,-6.0306,-5.9416,-5.8488,0.0,-5.6777,-5.6012,0.0,-5.5935,-5.5857,-5.5857,0.0,0.0,0.0,0.0,0.0,0.0,-5.2152,0.0,0.0,0.0,-5.0898,-5.0898,0.0,0.0,0.0,0.0,0.0,0.0,0.0,0.0,0.0,0.0,0.0,0.0,0.0,0.0,0.0,0.0,-5.0898,-5.0898,-5.0898,-5.0898,-5.0898,-5.0898,-5.0898,-5.0898,-5.0898,-5.0898,-5.0898,-5.2647,-5.3498,-5.3536,-5.52,-5.6012,-5.6012,-5.6012,-5.6012,-5.6012,-5.6081,-5.7095,-5.8613,-5.8729,-5.9687,-6.1195,-6.2162,-6.3013,-6.3835,-6.4803,-6.5605,-6.6185,-5.492,-5.492,0.0,0.0,0.0,0.0,0.0,0.0,0.0,0.0,0.0,0.0,0.0,-6.4512,-6.3937,-6.386,0.0,-6.1401,0.0,0.0,0.0,-6.0828,-6.0839,-6.0131,-5.8642,-5.8613,0.0,0.0,-5.6012,0.0,0.0,0.0,0.0,0.0,-5.6012,0.0,-5.6051,0.0,-5.7598,0.0,0.0,0.0,0.0,-6.0963,-6.0809,-6.0344,-6.0035,-5.899,-5.7791,0.0,-5.6699,0.0,0.0,0.0,0.0,0.0,0.0,0.0,0.0,0.0,0.0,0.0,0.0,0.0,-5.1757,0.0,-5.0898,0.0,0.0,0.0,0.0,0.0,0.0,0.0,0.0,0.0,0.0,0.0,0.0,0.0,0.0,0.0,0.0,0.0,0.0,0.0,0.0,-5.0898,-5.0898,-5.0898,-5.0898,-5.0898,-5.0898,-5.0898,-5.0898,-5.2647,-5.3498,-5.3536,-5.52,-5.6012,-5.6012,-5.6012,-5.6012,-5.6012,-5.6012,-5.6979,-5.8613,-5.8613,-5.9571,-6.1157,-6.1505,-6.2472,-6.3797,-6.4687,-6.5489,-6.6185,-5.492,0.0,0.0,0.0,0.0,0.0,0.0,0.0,0.0,0.0,0.0,0.0,-6.5753,-6.5116,0.0,0.0,-6.338,-6.2313,0.0,0.0,-6.1098,-6.0941,-6.0992,-6.0259,-5.8642,-5.8613,0.0,0.0,0.0,0.0,0.0,0.0,0.0,0.0,0.0,-5.6119,-5.639,0.0,-5.8178,-5.9029,-5.988,-6.0576,-6.1118,-6.1118,-6.0615,-5.988,-5.9609,-5.8565,-5.7241,-5.7009,-5.6506,0.0,-5.6012,0.0,0.0,0.0,0.0,0.0,-5.6012,0.0,0.0,0.0,0.0,0.0,0.0,0.0,0.0,0.0,0.0,0.0,0.0,0.0,0.0,0.0,0.0,0.0,0.0,0.0,0.0,0.0,0.0,0.0,0.0,0.0,0.0,0.0,-5.0705,-5.0666,-5.0898,-5.0898,-5.0898,-5.0898,-5.0898,-5.0898,-5.0898,-5.2647,-5.3498,-5.3536,-5.52,-5.6012,-5.6012,-5.6012,-5.6012,-5.6012,-5.6012,-5.6979,-5.8613,-5.8613,-5.9571,-6.1118,-6.1118,-6.2162,-6.3797,-6.4416,-6.5296,-6.6185,-5.492,-5.492,0.0,0.0,0.0,0.0,0.0,0.0,0.0,0.0,0.0,0.0,0.0,0.0,0.0,0.0,0.0,-6.3113,-6.1902,0.0,-6.1601,0.0,0.0,-6.011,0.0,0.0,0.0,0.0,0.0,0.0,0.0,0.0,0.0,0.0,0.0,-5.6467,-5.7318,-5.8178,-5.9068,-5.9919,-6.0731,-6.1079,-6.1118,0.0,-6.0615,-5.9803,-5.8952,0.0,0.0,-5.6313,-5.6012,0.0,0.0,0.0,0.0,0.0,0.0,0.0,0.0,0.0,0.0,-5.5006,0.0,0.0,0.0,0.0,-5.1912,0.0,0.0,0.0,0.0,0.0,0.0,0.0,0.0,0.0,0.0,0.0,0.0,0.0,0.0,0.0,0.0,0.0,0.0,-5.0821,-5.0171,-5.0094,-5.0859,-5.0898,-5.0898,-5.0898,-5.0898,-5.0898,-5.0898,-5.2647,-5.3498,-5.3536,-5.52,-5.6012,-5.6012,-5.6012,-5.6012,-5.6012,-5.6012,-5.6979,-5.8613,-5.8613,-5.9571,-6.1118,-6.1118,-6.2162,-6.3719,-6.3719,-6.4793,-6.6185,0.0,0.0,0.0,0.0,0.0,0.0,0.0,-5.8597,0.0,0.0,-6.4496,0.0,0.0,-6.7385,-6.7229,0.0,0.0,-6.4976,-6.4537,-6.2995,0.0,0.0,0.0,-6.0519,0.0,0.0,0.0,0.0,0.0,0.0,0.0,0.0,0.0,0.0,0.0,-5.6467,0.0,0.0,0.0,0.0,0.0,-6.1118,-6.1041,0.0,0.0,-5.8913,-5.8062,-5.7172,0.0,-5.6089,-5.6012,-5.6012,-5.6012,-5.6012,-5.6012,-5.6012,-5.6012,0.0,0.0,0.0,-5.5935,-5.5664,0.0,0.0,0.0,0.0,0.0,0.0,0.0,0.0,0.0,0.0,0.0,0.0,0.0,0.0,0.0,0.0,0.0,0.0,0.0,0.0,0.0,0.0,0.0,-4.9281,-4.9513,-4.9823,0.0,-5.0589,-5.0898,-5.0898,-5.0898,-5.0898,-5.0898,-5.2647,-5.3498,-5.3536,-5.52,-5.6012,-5.6012,-5.6012,-5.6012,-5.6051,-5.6622,-5.7521,-5.8651,-5.9223,-6.0112,-6.1118,-6.1118,-6.2162,-6.3719,-6.3719,-6.4754,-6.6185,-5.492,0.0,0.0,0.0,0.0,0.0,0.0,0.0,0.0,0.0,-6.5054,0.0,-6.8824,0.0,-6.8629,0.0,-6.7523,-6.6287,-6.5833,-6.4143,0.0,-6.221,-6.1785,0.0,0.0,0.0,0.0,0.0,0.0,-5.5959,0.0,0.0,0.0,0.0,0.0,-5.6467,-5.7357,-5.8217,-5.9106,0.0,0.0,-6.1118,0.0,0.0,-5.9068,-5.8488,0.0,-5.6738,-5.6012,-5.6012,-5.6012,-5.6012,-5.6012,-5.6012,-5.6012,-5.6012,-5.6012,-5.6012,-5.6012,-5.6012,0.0,-5.6012,-5.5625,0.0,-5.4851,0.0,0.0,0.0,0.0,0.0,0.0,0.0,0.0,0.0,0.0,0.0,0.0,0.0,0.0,0.0,0.0,0.0,0.0,0.0,-4.901,-4.843,-4.8933,-4.9359,0.0,0.0,-5.0898,-5.0898,-5.0898,-5.1053,-5.137,-5.2763,-5.3652,-5.3962,-5.5354,-5.6012,-5.6012,-5.6012,-5.6012,-5.6051,-5.6932,-5.7791,-5.869,-5.9532,-6.0383,-6.1118,-6.1427,-6.2433,-6.3719,-6.3719,-6.4754,-6.6185,0.0,0.0,0.0,0.0,-5.564,0.0,0.0,0.0,-6.2177,0.0,-6.5747,-6.7782,-7.0014,-6.9232,-6.9104,-7.0554,-6.882,-6.7089,-6.5843,-6.5318,0.0,0.0,-6.2221,-6.166,-6.0074,0.0,0.0,0.0,0.0,0.0,0.0,0.0,0.0,0.0,-5.6003,0.0,-5.7357,-5.8217,-5.9145,-6.0035,-6.0809,-6.1079,-6.0847,-5.9223,-5.8574,-5.841,-5.7559,-5.6699,-5.6012,-5.6012,-5.6012,-5.6012,-5.6012,-5.6012,-5.6012,-5.6012,-5.6012,-5.6012,-5.6012,-5.6012,-5.6012,-5.6012,0.0,0.0,0.0,0.0,-5.4387,0.0,0.0,0.0,0.0,0.0,0.0,0.0,0.0,0.0,0.0,0.0,0.0,0.0,0.0,0.0,0.0,-4.8894,-4.8353,-4.8275,-4.8353,0.0,0.0,0.0,-5.0898,-5.0898,-5.0937,-5.137,-5.219,-5.3111,-5.3962,-5.4813,-5.5625,-5.6012,-5.6012,-5.6012,-5.6012,-5.6119,-5.697,-5.7869,-5.8729,-5.9609,-6.0422,-6.1195,-6.2046,-6.2975,-6.3758,-6.3797,-6.4831,-6.6185,-5.492,-5.492,-5.511,0.0,-5.6057,-5.6702,0.0,0.0,0.0,0.0,-6.7353,-6.9174,-7.1175,-7.0569,-7.0493,-7.1706,-7.0157,0.0,0.0,0.0,0.0,-6.4243,-6.3041,-6.2201,-6.1776,-5.9503,0.0,-5.8055,0.0,0.0,-5.5621,0.0,0.0,0.0,0.0,0.0,-5.7357,-5.8217,-5.9455,-6.0809,-6.1041,-6.0731,0.0,0.0,-5.8217,-5.7521,-5.667,-5.6197,-5.6012,-5.6012,-5.6012,-5.6012,-5.6012,-5.6012,-5.6012,-5.6012,-5.6012,-5.6012,-5.6012,-5.6012,-5.6012,-5.6012,-5.6012,-5.5935,0.0,0.0,0.0,0.0,0.0,0.0,0.0,0.0,0.0,0.0,0.0,0.0,0.0,0.0,0.0,0.0,0.0,0.0,-4.8856,-4.8546,-4.785,-4.6573,-4.7657,0.0,0.0,0.0,0.0,-5.0898,-5.1525,-5.195,-5.219,-5.3691,-5.4581,-5.4813,-5.5625,-5.6012,-5.6012,-5.6012,-5.6351,-5.7009,-5.7907,-5.8758,-5.9609,-6.046,-6.0925,-6.1195,-6.2046,-6.3323,-6.4725,-6.5334,-6.5837,-6.6185,-5.492,0.0,0.0,-5.6588,0.0,0.0,-5.9089,-6.1728,0.0,-6.6243,-6.8034,0.0,-7.1494,-7.103,-7.0953,-7.1812,-7.0455,0.0,-6.8359,0.0,0.0,-6.476,-6.359,-6.2781,-6.2433,-5.9696,0.0,-5.8442,0.0,0.0,-5.5717,0.0,0.0,0.0,0.0,-5.6274,-5.6815,-5.8062,-5.9339,-6.0615,-6.0963,0.0,0.0,-5.8913,-5.8062,-5.7202,-5.6313,-5.6012,-5.6012,-5.6012,-5.6012,-5.6012,-5.6012,-5.6012,-5.6012,-5.6012,-5.6012,-5.6012,-5.6012,-5.6012,-5.6012,-5.6012,-5.6012,-5.6012,-5.6012,-5.6012,-5.578,0.0,0.0,0.0,0.0,0.0,0.0,0.0,0.0,0.0,0.0,0.0,0.0,0.0,0.0,0.0,-4.9088,-4.8624,-4.8005,-4.6999,0.0,0.0,0.0,0.0,0.0,-5.0898,-5.1757,-5.2384,-5.2763,-5.4116,-5.4967,-5.5316,-5.578,-5.6012,-5.6012,-5.6012,-5.6467,-5.7357,-5.8217,-5.9068,-5.9957,-6.077,-6.1118,-6.1234,-6.2472,-6.4019,-6.5566,-6.6031,-6.6185,-6.6185,0.0,0.0,0.0,0.0,0.0,0.0,0.0,-6.327,0.0,-6.663,0.0,-6.991,-7.1319,-7.0894,-7.0767,-7.143,0.0,-6.8939,-6.7833,-6.7442,-6.6423,-6.4613,-6.3946,-6.3303,-6.2588,-5.9773,-5.8412,0.0,0.0,0.0,0.0,0.0,0.0,0.0,0.0,0.0,0.0,-5.7907,-5.9106,-5.9957,-6.077,-6.0615,-5.9803,-5.9068,-5.8178,-5.7202,-5.6429,-5.6089,-5.6012,-5.6012,-5.6012,-5.6012,-5.6012,-5.6012,-5.6012,-5.6012,-5.6012,-5.6012,-5.6012,-5.6012,-5.6012,-5.6012,-5.6012,-5.6012,-5.6012,-5.6012,-5.5818,-5.5084,-5.4851,-5.4349,0.0,0.0,0.0,0.0,0.0,0.0,0.0,0.0,0.0,0.0,0.0,0.0,0.0,-4.9088,0.0,0.0,0.0,0.0,0.0,0.0,0.0,0.0,-5.1912,0.0,-5.3652,0.0,-5.5316,-5.6012,-5.6012,-5.6012,-5.6012,-5.6128,-5.6661,-5.7512,-5.8372,-5.9261,-6.0112,-6.0809,-6.1234,-6.1582,-6.3216,-6.4831,-6.6185,-6.6185,-6.6185,-6.6185,0.0,0.0,0.0,0.0,0.0,-6.2425,-6.3827,-6.5113,-6.6476,-6.8032,-6.9149,-7.0136,-7.1086,-7.0478,-7.0436,-7.1412,-7.0625,0.0,0.0,0.0,0.0,-6.5666,-6.4147,-6.3411,-6.3478,-6.0082,-5.8312,0.0,0.0,0.0,0.0,0.0,0.0,0.0,0.0,0.0,-5.7125,-5.8178,0.0,-5.9957,-6.077,-6.0615,-5.988,-5.9725,-5.8681,-5.728,-5.7125,-5.6622,-5.6012,-5.6012,-5.6012,-5.6012,-5.6012,-5.6012,-5.6012,-5.6012,-5.6012,-5.6012,-5.6012,-5.6012,-5.6012,-5.6012,-5.6012,-5.6012,-5.6012,-5.6012,-5.5973,-5.5818,-5.5277,-5.4697,-5.4387,0.0,0.0,0.0,0.0,0.0,0.0,0.0,0.0,0.0,0.0,0.0,0.0,0.0,0.0,0.0,0.0,0.0,0.0,0.0,0.0,0.0,0.0,0.0,0.0,0.0,-5.5857,-5.6012,-5.6012,-5.6012,-5.6012,-5.6738,-5.7559,-5.841,-5.93,-6.0151,-6.0886,-6.1041,-6.193,-6.3371,-6.4377,-6.5373,-6.6185,-6.6185,-6.6185,-6.6185,0.0,0.0,0.0,0.0,0.0,0.0,0.0,-6.6594,0.0,-6.8689,-6.9454,-7.0136,-7.0764,-7.0355,-7.0314,-7.0964,-7.0254,-6.9268,-6.8177,-6.7791,-6.709,-6.5958,-6.4354,0.0,-6.3719,-6.0239,-5.8462,-5.8462,0.0,0.0,0.0,0.0,0.0,0.0,0.0,-5.6235,0.0,0.0,0.0,-5.9339,-6.0576,-6.0615,-5.988,-5.988,-5.9106,-5.7907,-5.7473,-5.7009,-5.6622,-5.6158,-5.6012,-5.6012,-5.6012,-5.6012,-5.6012,-5.6012,-5.6012,-5.6012,-5.6012,-5.6012,-5.6012,-5.6012,-5.6012,-5.6012,-5.6012,-5.6012,-5.6012,-5.6012,-5.5702,-5.5277,-5.489,-5.373,0.0,0.0,0.0,0.0,0.0,0.0,0.0,0.0,0.0,0.0,0.0,0.0,0.0,0.0,0.0,0.0,0.0,0.0,0.0,0.0,0.0,0.0,0.0,0.0,0.0,-5.6661,-5.7134,-5.7366,-5.7366,-5.7791,-5.8449,-5.93,-5.9725,-6.0344,-6.1157,-6.1582,-6.2781,-6.4416,-6.4841,-6.5489,-6.6185,-6.6185,-6.6185,-6.6185,0.0,-6.1515,0.0,0.0,-6.432,0.0,-6.6518,-6.7921,-6.8961,-6.9175,-6.9585,-7.0058,-7.047,-7.0326,-7.0233,-7.0309,-6.9711,-6.8867,-6.787,-6.7332,-6.6717,-6.5919,-6.4436,-6.3641,-6.3719,-6.0547,-5.8806,0.0,0.0,0.0,0.0,0.0,0.0,0.0,0.0,0.0,0.0,0.0,-5.8729,-5.899,-6.0499,-6.0731,-6.0151,-6.0151,-5.9609,-5.8797,-5.8101,-5.7589,-5.7202,-5.6506,-5.6158,-5.6012,-5.6012,-5.6012,-5.6012,-5.6012,-5.6012,-5.6012,-5.6012,-5.6012,-5.6012,-5.6012,-5.6012,-5.6012,-5.6012,-5.6012,-5.6012,-5.6012,-5.6012,-5.5741,-5.4967,-5.4233,0.0,0.0,0.0,0.0,0.0,0.0,0.0,0.0,0.0,0.0,0.0,0.0,0.0,0.0,0.0,-5.0241,-5.0859,-5.0898,0.0,0.0,0.0,-5.4,-5.5045,0.0,-5.728,0.0,-5.8178,-5.8613,-5.8613,-5.8797,-5.9261,-5.9919,-6.0074,-6.0615,-6.1427,-6.2317,-6.3594,-6.5025,-6.518,-6.5644,-6.6185,-6.6185,-6.6185,-6.6185,0.0,0.0,0.0,0.0,0.0,0.0,-6.8224,-6.9171,-6.9797,-6.9816,-6.9873,-6.9984,-7.0209,-7.0209,-7.0004,-6.9451,-6.9366,-6.8622,-6.7051,-6.6873,-6.6562,-6.5919,-6.4236,-6.3428,-6.3671,-6.1118,-5.9377,0.0,0.0,0.0,0.0,0.0,0.0,0.0,0.0,0.0,0.0,-5.8217,-5.9068,-5.9841,-6.0731,-6.1041,-6.1002,-6.1002,-6.046,-5.9764,-5.9687,-5.8642,-5.728,-5.7202,-5.6661,-5.6012,-5.6012,-5.6012,-5.6012,-5.6012,-5.6012,-5.6012,-5.6012,-5.6012,-5.6012,-5.6012,-5.6012,-5.6012,-5.6012,-5.6012,-5.6012,-5.6012,-5.6012,-5.5741,-5.4967,-5.4735,-5.4426,0.0,0.0,0.0,0.0,0.0,0.0,0.0,0.0,0.0,0.0,0.0,0.0,0.0,0.0,-5.0821,-5.0898,-5.0898,-5.1679,-5.3343,0.0,-5.4271,-5.5857,-5.6815,0.0,-5.7318,-5.8178,-5.8613,-5.8651,-5.9416,-5.9803,-5.9919,-6.0654,-6.1466,-6.2356,-6.3207,-6.4145,-6.5064,-6.5799,-6.6147,-6.6185,-6.6185,-6.6185,-6.6185,0.0,0.0,0.0,0.0,0.0,0.0,0.0,-6.9323,-6.9702,-6.9171,-6.9588,-6.9849,-6.9719,-6.9584,-6.924,-6.8622,-6.8265,-6.7756,-6.7064,-6.6677,-6.631,-6.608,-6.4458,-6.3611,-6.3719,-6.1195,-5.9455,0.0,0.0,0.0,0.0,0.0,0.0,0.0,0.0,-5.697,-5.7396,-5.8797,-5.9571,-5.9957,-6.077,-6.1118,-6.1118,-6.1118,-6.0886,-6.0576,-6.0074,-5.9455,-5.8797,-5.8255,-5.7134,-5.6012,-5.6012,-5.6012,-5.6012,-5.6012,-5.6012,-5.6012,-5.6012,-5.6012,-5.6012,-5.6012,-5.6012,-5.6012,-5.6012,-5.6012,-5.6012,-5.6012,-5.6012,-5.5896,-5.5586,-5.5509,-5.5393,0.0,0.0,0.0,0.0,0.0,0.0,0.0,0.0,0.0,0.0,0.0,0.0,0.0,0.0,0.0,-5.0898,-5.1409,0.0,-5.3459,0.0,-5.4813,-5.6012,-5.7366,-5.8062,-5.8101,-5.9455,-6.0112,-6.0112,-6.046,-6.0615,-6.0654,-6.1505,-6.2356,-6.3245,-6.4097,-6.4948,-6.576,-6.6069,-6.6185,-6.6185,-6.6185,-6.6185,-6.6263,-6.7162,0.0,-6.7731,0.0,-6.8413,-6.8982,-6.8982,-6.9285,-6.9285,-6.8679,-6.8944,-6.9107,-6.8924,-6.8722,-6.8378,-6.7755,-6.7398,-6.7087,-6.6817,-6.6438,-6.6185,-6.6185,-6.4599,0.0,-6.3719,-6.1427,-5.9841,-5.899,-5.8326,0.0,0.0,0.0,0.0,0.0,-5.7288,-5.783,-5.8139,-5.9377,-6.0035,-6.0306,-6.0886,-6.1118,-6.1118,-6.1118,-6.1118,-6.1041,-6.046,-6.0112,-5.9803,-5.9184,-5.7985,-5.6708,-5.6476,-5.6197,-5.6051,-5.6313,-5.639,-5.6437,-5.6708,-5.6747,-5.6747,-5.6747,-5.6747,-5.6747,-5.6747,-5.6592,-5.6313,-5.6051,-5.6012,-5.6012,-5.6012,-5.6012,-5.6012,-5.6012,0.0,0.0,0.0,0.0,0.0,0.0,-5.3691,-5.284,-5.2616,0.0,0.0,0.0,0.0,0.0,0.0,0.0,0.0,0.0,0.0,0.0,0.0,-5.7869,-5.8729,-5.899,-6.0422,-6.1118,-6.1118,-6.1389,-6.1466,-6.1543,-6.2394,-6.3284,-6.4145,-6.4764,-6.545,-6.6185,-6.6185,-6.6185,-6.6185,-6.6185,-6.6185,-6.6301,-6.739,-6.8034,-6.8603,-6.8603,-6.9323,-6.9891,-6.9891,-6.9171,-6.8603,-6.8603,-6.7921,-6.7498,-6.7714,-6.773,-6.7461,-6.6873,-6.7051,-6.6817,-6.5958,-6.6091,-6.6185,0.0,0.0,-6.3719,-6.3719,-6.1969,-6.0692,-5.988,0.0,0.0,-5.6991,0.0,-5.7072,-5.7318,-5.8217,-5.9068,-5.988,-5.988,-6.0344,-6.1079,-6.1118,-6.1118,-6.1118,-6.1118,-6.1118,-6.1118,-6.1079,-6.0576,-5.988,-5.988,-5.93,-5.841,-5.7559,-5.6699,-5.6158,-5.7009,-5.728,-5.7473,-5.8333,-5.8574,-5.8574,-5.8574,-5.8574,-5.8574,-5.8574,-5.7907,-5.7048,-5.6158,-5.6012,-5.6012,-5.6012,-5.6012,-5.6012,-5.6012,0.0,0.0,0.0,0.0,0.0,0.0,-5.4774,-5.4426,-5.3575,0.0,0.0,0.0,0.0,0.0,0.0,0.0,0.0,-5.4735,-5.4774,0.0,-5.728,-5.8178,-5.9029,-5.988,-6.0692,-6.1118,-6.1118,-6.2008,-6.2394,-6.2433,-6.3323,-6.4184,-6.4986,-6.4996,-6.545,-6.6185,-6.6185,-6.6185,-6.6185,-6.6185,-6.6185,-6.6301,-6.8982,-6.9323,-6.9475,-6.9475,-6.9702,-6.9702,-6.9096,-6.8792,-6.8186,-6.7049,-6.667,-6.6327,-6.5845,-6.6281,-6.6315,0.0,-6.5727,-6.5781,0.0,-6.5869,-6.6069,-6.6185,-6.4599,-6.3719,-6.3719,-6.2008,-6.0692,-5.988,0.0,0.0,0.0,-5.8075,-5.8142,-5.8217,-5.9106,-5.9648,-5.9919,-6.0499,-6.0886,-6.1118,-6.1118,-6.1118,-6.1118,-6.1118,-6.1118,-6.1118,-6.1118,-6.0925,-6.0731,-6.0731,-6.0151,-5.9455,-5.9145,-5.8488,-5.783,-5.8101,-5.8178,-5.8255,-5.8526,-5.8613,-5.8613,-5.8613,-5.8613,-5.8613,-5.8613,-5.7834,-5.6983,-5.656,-5.6172,-5.5866,-5.5866,-5.5941,-5.6012,-5.6012,-5.6012,0.0,0.0,0.0,0.0,0.0,-5.5122,-5.4697,0.0,-5.3846,0.0,0.0,0.0,0.0,0.0,0.0,0.0,0.0,-5.5896,0.0,-5.728,-5.8758,-5.9609,-5.9919,-6.0731,-6.1427,-6.2008,-6.2278,-6.2704,-6.3323,-6.4222,-6.4725,-6.5025,-6.5605,-6.5953,-6.6185,-6.6185,-6.6185,-6.6185,-6.6185,-6.6185,-6.6417,-6.9778,-6.9891,-6.9891,-6.9891,-6.9626,-6.9209,-6.8679,-6.8072,-6.7276,-6.6253,-6.5836,-6.5457,-6.4964,-6.5343,0.0,-6.5065,-6.5198,-6.5456,-6.5678,-6.5893,-6.608,-6.6185,-6.4599,-6.3719,-6.3719,0.0,0.0,-6.0344,-6.0035,-5.9609,-5.9068,-5.9068,-5.9068,-5.9145,-5.9957,-6.0344,-6.0383,-6.0886,-6.1118,-6.1118,-6.1118,-6.1118,-6.1118,-6.1118,-6.1118,-6.1118,-6.1118,-6.1118,-6.1118,-6.1118,-6.077,-6.0344,-6.0344,-5.9996,-5.9493,-5.9184,-5.9068,-5.9145,-5.9455,-5.9532,-5.9532,-5.9532,-5.9532,-5.9455,-5.9145,-5.8578,-5.7842,-5.7005,-5.6522,-5.6162,-5.5742,-5.5776,-5.5827,-5.5923,-5.5932,-5.595,-5.6003,0.0,0.0,0.0,0.0,0.0,0.0,-5.4774,0.0,0.0,0.0,0.0,0.0,0.0,0.0,-5.5741,-5.6738,0.0,-5.8255,-5.9377,-6.0228,-6.0847,-6.166,-6.2356,-6.2897,-6.3245,-6.3671,-6.4261,-6.5064,-6.545,-6.5489,-6.5992,-6.6185,-6.6185,-6.6185,-6.6185,-6.6185,-6.6185,-6.6417,-6.6882,-6.9891,-6.9891,0.0,0.0,-6.9133,0.0,-6.8451,-6.7087,-6.6101,-6.6025,-6.5381,-6.4888,-6.4888,-6.4888,-6.501,-6.5213,0.0,0.0,0.0,-6.6058,-6.6165,-6.6108,-6.4561,-6.3681,-6.3603,-6.1969,-6.1118,-6.1118,-6.0344,-5.9996,-5.9996,-5.9996,-5.9996,-6.0035,-6.077,-6.1118,-6.1118,-6.1118,-6.1118,-6.1118,-6.1118,-6.1118,-6.1118,-6.1118,-6.1118,-6.1118,-6.1118,-6.1118,-6.1118,-6.1118,-6.1118,-6.1118,-6.1118,-6.1118,-6.0963,-6.019,-5.9996,-6.0151,-6.0886,-6.1109,-6.106,-6.1118,-6.1118,-6.0886,-6.0142,-5.991,-5.936,-5.7541,-5.7058,-5.6708,-5.5762,-5.5547,-5.5566,-5.5766,-5.5787,-5.5827,-5.5959,0.0,0.0,0.0,0.0,0.0,0.0,-5.6012,-5.6012,0.0,0.0,0.0,0.0,0.0,-5.5702,-5.7241,-5.7434,-5.8255,-5.988,-6.0035,-6.0886,-6.2511,-6.3323,-6.3719,-6.3835,-6.4648,-6.5025,-6.5141,-6.5876,-6.6185,-6.6185,-6.6185,-6.6185,-6.6185,-6.6185,-6.6185,-6.6185,-6.6185,-6.6766,-6.7617,0.0,0.0,-6.9702,-6.902,-6.8754,-6.8186,-6.6897,-6.6367,-6.5874,-6.5267,-6.504,-6.4888,-6.4888,-6.4888,-6.504,-6.5456,-6.5252,-6.5252,-6.5624,-6.5705,-6.5599,-6.5286,-6.4261,-6.34,-6.2704,-6.166,-6.1118,-6.1118,-6.0925,-6.0809,-6.0809,-6.0809,-6.0809,-6.0809,-6.1041,-6.1118,-6.1118,-6.1118,-6.1118,-6.1118,-6.1118,-6.1118,-6.1118,-6.1118,-6.1118,-6.1118,-6.1118,-6.1118,-6.1118,-6.1118,-6.1118,-6.1118,-6.1118,-6.1118,-6.1079,-6.0886,-6.0809,-6.0847,-6.1041,-6.0992,-6.092,-6.1051,-6.1118,-6.1012,-6.065,-6.0128,-5.9507,-5.8892,-5.7819,-5.6932,-5.6708,-5.6158,-5.5745,-5.5787,-5.5682,-5.5566,-5.561,-5.5766,0.0,0.0,-5.5941,-5.6012,-5.6012,-5.6012,-5.6012,0.0,0.0,0.0,0.0,-5.6815,-5.6893,-5.728,-5.8604,-5.9493,-5.988,-6.1157,-6.2356,-6.34,-6.3603,-6.4068,-6.4687,-6.4919,-6.5334,-6.5915,-6.6108,-6.6185,-6.6185,-6.6185,-6.6185,-6.6185,-6.6185,-6.6185,-6.6185,-6.6185,-6.6766,-6.7617,-6.9891,-6.9588,-6.9171,-6.8679,-6.7958,-6.7162,-6.6253,-6.5798,-6.5381,-6.4964,-6.4888,-6.4888,-6.4888,-6.4888,-6.501,-6.5267,-6.5139,-6.5276,-6.5832,-6.5782,-6.551,-6.5015,-6.4184,-6.3284,-6.2433,-6.1543,-6.1118,-6.1118,-6.1118,-6.1118,-6.1118,-6.1118,-6.1118,-6.1118,-6.1118,-6.1118,-6.1118,-6.1118,-6.1118,-6.1118,-6.1118,-6.1118,-6.1118,-6.1118,-6.1118,-6.1118,-6.1118,-6.1118,-6.1118,-6.1118,-6.1118,-6.1118,-6.1118,-6.1032,-6.0982,-6.106,-6.1032,-6.0951,-6.0839,-6.0806,-6.0839,-6.1041,-6.0972,-6.0806,-6.0795,-6.0381,-5.9876,-5.9383,-5.8638,-5.7824,-5.7027,-5.6516,-5.6126,-5.5853,-5.5714,-5.5682,-5.5717,-5.5798,0.0,-5.5895,-5.6307,-5.6583,-5.6583,-5.694,-5.7172,-5.7172,0.0,0.0,-5.7869,-5.8255,-5.8488,-5.8488,-5.9764,-6.0654,-6.1041,-6.2743,-6.3826,-6.43,-6.4677,-6.5102,-6.5528,-6.5528,-6.5799,-6.6185,-6.6185,-6.6185,-6.6185,-6.6185,-6.6185,-6.6185,-6.6185,-6.6185,-6.6263,-6.665,-6.7346,-6.8197,-6.9702,-6.902,-6.8375,-6.8262,-6.7049,-6.6063,-6.595,-6.5343,-6.4888,-6.4888,-6.4888,-6.4888,-6.4888,-6.4888,-6.4906,-6.4941,-6.5073,-6.5441,-6.608,-6.5928,-6.5554,-6.4831,-6.4106,-6.3207,-6.224,-6.1466,-6.1118,-6.1118,-6.1118,-6.1118,-6.1118,-6.1118,-6.1118,-6.1118,-6.1118,-6.1118,-6.1118,-6.1118,-6.1118,-6.1118,-6.1118,-6.1118,-6.1118,-6.1118,-6.1118,-6.1118,-6.1118,-6.1118,-6.1118,-6.1118,-6.106,-6.1041,-6.1041,-6.0931,-6.0773,-6.0941,-6.0828,-6.0692,-6.0571,-6.0645,-6.0784,-6.0941,-6.0727,-6.0546,-6.0716,-6.0621,-6.0316,-5.9626,-5.9396,-5.8821,-5.7364,-5.6841,-5.6494,-5.5962,-5.5769,-5.5686,-5.5818,0.0,-5.598,-5.6096,-5.6789,-5.7357,-5.7473,-5.8178,-5.8613,-5.8613,-5.8613,-5.8651,0.0,-5.9609,-6.0151,-6.0267,-6.0925,-6.1776,-6.2781,-6.4251,-6.5064,-6.518,-6.5876,-6.6185,-6.6185,-6.6185,-6.6185,-6.6185,-6.6185,-6.6185,-6.6185,-6.6185,-6.6185,-6.6185,-6.6185,-6.6263,-6.6495,-6.723,-6.8119,-6.9087,-6.8792,-6.8148,-6.7352,-6.6632,-6.6291,-6.5874,-6.5192,-6.5002,-6.4888,-6.4888,-6.4888,-6.4888,-6.4888,-6.4888,-6.4976,-6.5134,-6.5023,-6.5155,-6.5651,-6.5651,-6.5102,-6.3932,-6.3758,-6.2936,-6.135,-6.1157,-6.1118,-6.1118,-6.1118,-6.1118,-6.1118,-6.1118,-6.1118,-6.1118,-6.1118,-6.1118,-6.1118,-6.1118,-6.1118,-6.1118,-6.1118,-6.1118,-6.1118,-6.1118,-6.1118,-6.1118,-6.1118,-6.1118,-6.1118,-6.1118,-6.0992,-6.0828,-6.0828,-6.0704,-6.0521,-6.039,-6.0321,-6.0362,-6.0669,-6.0657,-6.0521,-6.0376,-6.043,-6.0508,-6.0546,-6.0521,-6.0457,-6.0355,-5.9728,-5.9115,-5.8847,-5.7532,-5.6433,-5.6307,-5.5587,-5.5057,-5.5047,0.0,-5.5834,-5.6487,-5.7014,-5.7598,-5.8333,-5.8526,-5.8613,-5.8613,-5.8613,-5.8913,-5.9648,-6.046,-6.1234,-6.2008,-6.2124,-6.2975,-6.4561,-6.487,-6.5334,-6.6031,-6.6147,-6.6185,-6.6185,-6.6185,-6.6185,-6.6185,-6.6185,-6.6185,-6.6185,-6.6185,-6.6185,-6.6185,-6.6185,-6.665,-6.7307,-6.7462,-6.8468,-6.9821,-6.9209,-6.8262,-6.739,-6.7428,-6.6708,-6.5988,-6.5609,-6.5192,-6.4888,-6.4888,-6.4888,-6.4888,-6.4888,-6.4888,-6.4941,-6.5023,-6.4958,-6.5061,-6.5367,-6.5382,-6.4816,-6.3576,-6.3499,-6.273,-6.1118,-6.1118,-6.1118,-6.1118,-6.1118,-6.1118,-6.1118,-6.1118,-6.1118,-6.1118,-6.1118,-6.1118,-6.1118,-6.1118,-6.1118,-6.1118,-6.1118,-6.1118,-6.1118,-6.1118,-6.1118,-6.1118,-6.1118,-6.1118,-6.1118,-6.1118,-6.1032,-6.0951,-6.0817,-6.0657,-6.0482,-6.039,-6.0194,-6.0114,-6.0403,-6.0335,-6.0232,-6.0321,-6.0265,-6.0217,-6.0307,-6.0237,-6.0232,-6.0307,-6.0029,-5.9636,-5.9281,-5.8502,-5.7595,-5.6716,-5.6179,0.0,0.0,-5.6014,-5.647,-5.7313,-5.8055,-5.8703,-5.9099,-6.0065,-6.0654,-6.0654,-6.1079,-6.1514,-6.194,-6.2278,-6.2897,-6.3787,-6.3787,-6.4406,-6.5644,-6.5644,-6.5837,-6.6185,-6.6185,-6.6185,-6.6185,-6.6185,-6.6185,-6.6185,-6.6185,-6.6185,-6.6185,-6.6185,-6.6185,-6.6263,-6.6727,-6.7152,-6.7617,-6.8506,-6.9319,-7.0054,-6.9475,-6.8413,-6.7579,-6.8224,-6.7087,-6.6101,-6.6101,-6.5419,-6.4888,-6.4888,-6.4888,-6.4888,-6.4888,-6.4888,-6.4888,-6.4888,-6.4888,-6.4993,-6.5182,-6.515,-6.4717,-6.3711,-6.3295,-6.2485,-6.1118,-6.1118,-6.1118,-6.1118,-6.1118,-6.1118,-6.1118,-6.1118,-6.1118,-6.1118,-6.1118,-6.1118,-6.1118,-6.1118,-6.1118,-6.1118,-6.1118,-6.1118,-6.1118,-6.1118,-6.1051,-6.1032,-6.106,-6.1051,-6.1022,-6.1022,-6.1002,-6.0941,-6.0727,-6.0533,-6.0362,-6.0362,-6.0144,-5.9934,-6.0099,-6.0007,-5.9982,-6.0265,-6.0129,-5.995,-6.0099,-5.9991,-5.995,-6.0114,-6.0144,-5.996,-5.948,-5.9202,-5.8666,-5.7366,0.0,0.0,0.0,-5.6907,-5.7277,-5.8119,-5.9187,-5.9881,-6.0111,-6.1582,-6.2545,-6.2545,-6.3204,-6.3621,-6.3621,-6.3845,-6.4377,-6.5257,-6.5257,-6.5566,-6.6185,-6.6185,-6.6185,-6.6185,-6.6185,-6.6185,-6.6185,-6.6185,-6.6185,-6.6185,-6.6185,-6.6185,-6.6224,-6.6417,-6.6495,-6.6572,-6.7462,-6.7926,-6.8236,-6.9512,-7.0131,-7.0402,-6.8679,-6.7996,-6.7428,-6.7466,-6.6708,-6.6101,-6.6101,-6.5419,-6.4888,-6.4888,-6.4888,-6.4888,-6.4888,-6.4888,-6.4888,-6.4888,-6.4888,-6.4993,-6.5182,-6.5023,-6.48,-6.4508,-6.3183,-6.2027,-6.1118,-6.1118,-6.1118,-6.1118,-6.1118,-6.1118,-6.1118,-6.1118,-6.1118,-6.1118,-6.1118,-6.1118,-6.1118,-6.1118,-6.1118,-6.1118,-6.1118,-6.1118,-6.1118,-6.1118,-6.0982,-6.0828,-6.1022,-6.0982,-6.0806,-6.0806,-6.0692,-6.0508,-6.0307,-6.0114,-5.995,-5.995,-5.9918,-5.9902,-5.9918,-5.9902,-5.9902,-5.9934,-5.9918,-5.9902,-5.9918,-5.9902,-5.9902,-5.9918,-5.9918,-5.9934,-5.9874,-5.9229,-5.8698,-5.8584,0.0,0.0,-5.737,-5.7496,-5.7943,-5.8811,-5.9816,-6.0738,-6.1556,-6.2438,-6.295,-6.295,-6.3205,-6.3338,-6.3338,-6.4325,-6.5257,-6.6108,-6.6108,-6.6147,-6.6185,-6.6185,-6.6185,-6.6185,-6.6185,-6.6185,-6.6185,-6.6185,-6.6185,-6.6185,-6.6185,-6.6185,-6.6263,-6.7075,-6.7384,-6.7501,-6.8352,-6.9164,-6.9821,-6.9938,-7.0518,-7.1214,-6.9285,-6.8716,-6.83,-6.8868,-6.7807,-6.6897,-6.6897,-6.576,-6.4888,-6.4888,-6.4888,-6.4888,-6.4888,-6.4888,-6.4888,-6.4888,-6.4888,-6.4993,-6.5182,-6.5276,-6.4814,-6.3668,-6.2721,-6.186,-6.1118,-6.1118,-6.1118,-6.1118,-6.1118,-6.1118,-6.1118,-6.1118,-6.1118,-6.1118,-6.1118,-6.1118,-6.1118,-6.1118,-6.1118,-6.1118,-6.1118,-6.1118,-6.1118,-6.1118,-6.1041,-6.0982,-6.0941,-6.085,-6.0773,-6.0657,-6.0571,-6.0469,-6.0265,-6.0159,-6.0053,-5.995,-5.9902,-5.9902,-5.9902,-5.9902,-5.9902,-5.9902,-5.9902,-5.9902,-5.9902,-5.9902,-5.9902,-5.9902,-5.9902,-5.9902,-5.9902,-5.9658,-5.9279,-5.8802,0.0,-5.8218,-5.8218,-5.8258,-5.8813,-6.0159,-6.0813,-6.144,-6.228,-6.3334,-6.3988,-6.3988,-6.4667,-6.5087,-6.5087,-6.5497,-6.5876,-6.6185,-6.6185,-6.6185,-6.6185,-6.6185,-6.6185,-6.6185,-6.6185,-6.6185,-6.6185,-6.6185,-6.6185,-6.6224,-6.6766,-6.6998,-6.7075,-6.7965,-6.8313,-6.839,-6.9203,-6.9744,-7.0054,-7.0595,-7.1021,-7.1291,-6.9778,-6.9399,-6.9096,-6.9437,-6.8337,-6.7314,-6.7049,-6.5798,-6.4888,-6.4888,-6.4888,-6.4924,-6.501,-6.4941,-6.4958,-6.509,-6.5023,-6.509,-6.5307,-6.5556,-6.5064,-6.3578,-6.2941,-6.2215,-6.1427,-6.1206,-6.1118,-6.1118,-6.1118,-6.1118,-6.1118,-6.1118,-6.1118,-6.1118,-6.1118,-6.1118,-6.1118,-6.1118,-6.1118,-6.1118,-6.1118,-6.1118,-6.1118,-6.1118,-6.1012,-6.0931,-6.092,-6.0773,-6.0608,-6.0533,-6.0456,-6.0376,-6.0188,-6.0114,-6.0084,-5.995,-5.9902,-5.9902,-5.9902,-6.0075,-6.0226,-5.9961,-6.0075,-6.0281,-6.0281,-6.0492,-6.0681,-6.0681,-6.0681,-6.0681,-6.0681,-6.0681,-6.0492,-5.9961,-5.9847,-5.9847,-5.9847,-5.9847,-6.0264,-6.1363,-6.1891,-6.2414,-6.3062,-6.4134,-6.4834,-6.4897,-6.5608,-6.6047,-6.6102,-6.6112,-6.6134,-6.6185,-6.6134,-6.6134,-6.6185,-6.6185,-6.6185,-6.6185,-6.6185,-6.6185,-6.6224,-6.6495,-6.6611,-6.665,-6.7539,-6.7926,-6.7965,-6.8816,-6.9164,-6.928,-7.0092,-7.0402,-7.0479,-7.1059,-7.1291,-7.1291,-6.9891,-6.9891,-6.9626,-6.8754,-6.7921,-6.7125,-6.6253,-6.5419,-6.4888,-6.4888,-6.4888,-6.4993,-6.5182,-6.5006,-6.5073,-6.558,-6.5352,-6.5322,-6.5569,-6.5782,-6.5495,-6.4648,-6.4015,-6.3214,-6.2132,-6.1456,-6.1118,-6.1118,-6.1118,-6.1118,-6.1118,-6.1118,-6.1118,-6.1118,-6.1118,-6.1118,-6.1118,-6.1118,-6.1118,-6.1118,-6.1118,-6.1118,-6.1118,-6.1118,-6.0839,-6.0559,-6.0962,-6.0716,-6.0223,-6.043,-6.0362,-6.015,-5.9982,-5.9902,-5.9902,-5.9902,-5.9902,-5.9902,-5.9902,-6.0492,-6.0925,-6.0129,-6.0508,-6.1115,-6.1115,-6.178,-6.2408,-6.2408,-6.2408,-6.2408,-6.2408,-6.2408,-6.2408,-6.2408,-6.2408,-6.2408,-6.2408,-6.2408,-6.2408,-6.2408,-6.309,-6.3702,-6.3977,-6.4718,-6.5307,-6.5594,-6.5622,-6.5678,-6.5869,-6.5881,-6.6001,-6.6175,-6.6013,-6.5974,-6.6185,-6.6185,-6.6185,-6.6185,-6.6224,-6.6224,-6.6224,-6.7114,-6.7501,-6.7578,-6.8429,-6.8816,-6.8854,-6.9667,-7.0015,-7.0092,-7.0943,-7.1291,-7.1291,-7.1291,-7.1291,-7.1291,-6.9891,-6.9891,-6.9816,-6.955,-6.8337,-6.7349,-6.722,-6.6036,-6.5123,-6.5123,-6.5123,-6.5117,-6.5198,-6.5134,-6.5229,-6.5556,-6.5513,-6.5569,-6.5782,-6.6013,-6.5942,-6.5546,-6.4943,-6.4103,-6.298,-6.2755,-6.2365,-6.1786,-6.1786,-6.1541,-6.1118,-6.1118,-6.1118,-6.1118,-6.1118,-6.1118,-6.1118,-6.1118,-6.1118,-6.1118,-6.1118,-6.1118,-6.107,-6.0951,-6.092,-6.086,-6.0596,-6.0456,-6.0376,-6.0159,-6.0038,-5.9998,-5.9918,-5.9902,-5.9902,-5.9902,-6.0302,-6.0719,-6.0719,-6.1363,-6.1818,-6.0947,-6.1363,-6.2008,-6.2008,-6.2235,-6.2408,-6.2408,-6.2408,-6.2408,-6.2408,-6.2408,-6.2408,-6.2408,-6.2408,-6.2408,-6.2408,-6.2408,-6.2597,-6.3166,-6.3431,-6.3862,-6.4554,-6.4987,-6.5229,-6.5322,-6.5485,-6.5649,-6.5678,-6.5678,-6.5705,-6.5769,-6.5705,-6.5705,-6.5769,-6.5905,-6.6069,-6.6224,-6.6687,-6.6957,-6.7152,-6.8003,-6.8429,-6.8468,-6.928,-6.9628,-6.9705,-7.0556,-7.0905,-7.0943,-7.1214,-7.1291,-7.1291,-7.1291,-7.1291,-7.1291,-6.9891,-6.9891,-6.9778,-6.9437,-6.8565,-6.7824,-6.7604,-6.6726,-6.596,-6.5753,-6.5693,-6.5658,-6.547,-6.5412,-6.5499,-6.5795,-6.582,-6.5881,-6.6024,-6.6134,-6.6144,-6.6036,-6.567,-6.4953,-6.3827,-6.3588,-6.3207,-6.2744,-6.2397,-6.2025,-6.1621,-6.1167,-6.1022,-6.1118,-6.1012,-6.1022,-6.1118,-6.1118,-6.1118,-6.1118,-6.1118,-6.1118,-6.1109,-6.0972,-6.091,-6.0817,-6.0546,-6.0362,-6.0223,-6.0068,-5.9982,-5.9902,-5.9902,-6.0129,-6.0378,-6.0378,-6.0947,-6.1591,-6.1591,-6.2235,-6.2766,-6.2235,-6.2501,-6.2862,-6.2862,-6.3128,-6.341,-6.341,-6.341,-6.341,-6.341,-6.341,-6.341,-6.341,-6.341,-6.341,-6.341,-6.341,-6.3562,-6.4055,-6.413,-6.4355,-6.4951,-6.5117,-6.5198,-6.5198,-6.5441,-6.5542,-6.5441,-6.5441,-6.5485,-6.5608,-6.5929,-6.6123,-6.6243,-6.6679,-6.6788,-6.6632,-6.7436,-6.7906,-6.8042,-6.8893,-6.928,-6.9319,-7.0131,-7.0518,-7.0556,-7.1059,-7.1291,-7.1291,-7.1291,-7.1291,-7.1291,-7.1291,-7.1291,-7.1291,-6.9891,-6.9891,-6.9683,-6.8867,-6.8678,-6.8393,-6.7726,-6.7554,-6.73,-6.6733,-6.6688,-6.6513,-6.6152,-6.5961,-6.5962,-6.6271,-6.6224,-6.6185,-6.6185,-6.6185,-6.6185,-6.6185,-6.6185,-6.5726,-6.476,-6.4209,-6.3845,-6.3777,-6.2994,-6.2569,-6.2501,-6.1509,-6.1173,-6.1302,-6.1162,-6.1134,-6.1234,-6.1234,-6.1157,-6.1118,-6.1118,-6.1118,-6.1118,-6.106,-6.0839,-6.0571,-6.0704,-6.0403,-5.9998,-6.0129,-6.0091,-5.9999,-5.9999,-6.0568,-6.1212,-6.1212,-6.1818,-6.2521,-6.2521,-6.309,-6.3696,-6.3696,-6.3696,-6.3696,-6.3696,-6.432,-6.4888,-6.4888,-6.4888,-6.4888,-6.4888,-6.4888,-6.4888,-6.4888,-6.4888,-6.4888,-6.4888,-6.4888,-6.4888,-6.4888,-6.4888,-6.4976,-6.515,-6.5166,-6.5166,-6.5166,-6.5397,-6.5427,-6.5182,-6.5166,-6.5329,-6.5656,-6.637,-6.6905,-6.7281,-6.8078,-6.809,-6.7381,-6.8381,-6.8872,-6.8932,-6.9744,-7.0131,-7.017,-7.0943,-7.1291,-7.1291,-7.1291,-7.1291,-7.1291,-7.1291,-7.1291,-7.1291,-7.1291,-7.1291,-7.1291,-6.9891,-6.9891,-6.9891,-6.9842,-6.9323,-6.8962,-6.9155,-6.8611,-6.8125,-6.8025,-6.7987,-6.7949,-6.7884,-6.7821,-6.7651,-6.7248,-6.6572,-6.6185,-6.6185,-6.6185,-6.6185,-6.6185,-6.6185,-6.6088,-6.5863,-6.5572,-6.5103,-6.4397,-6.4205,-6.3896,-6.34,-6.3177,-6.31,-6.3129,-6.31,-6.2713,-6.2124,-6.2124,-6.1737,-6.1118,-6.1118,-6.1118,-6.106,-6.0941,-6.092,-6.0892,-6.0495,-6.0349,-6.0321,-6.0053,-6.0351,-6.0849,-6.0849,-6.1439,-6.2122,-6.2122,-6.2673,-6.3317,-6.3317,-6.3979,-6.4623,-6.4623,-6.4623,-6.4623,-6.4623,-6.4775,-6.4888,-6.4888,-6.4888,-6.4888,-6.4888,-6.4888,-6.4888,-6.4888,-6.4888,-6.4888,-6.4888,-6.4888,-6.4888,-6.4888,-6.4888,-6.4906,-6.4958,-6.4976,-6.4976,-6.4976,-6.5027,-6.5044,-6.4976,-6.4976,-6.5377,-6.6261,-6.626,-6.6793,-6.7878,-6.8533,-6.8709,-6.8453,-6.9162,-6.9571,-6.9783,-7.0634,-7.1021,-7.1021,-7.1214,-7.1291,-7.1291,-7.1291,-7.1291,-7.1291,-7.1291,-7.1291,-7.1291,-7.1291,-7.1291,-7.1291,-7.0019,-7.0019,-7.0109,-7.0359,-7.0047,-6.9835,-7.0085,-6.9742,-6.9346,-6.9066,-6.9001,-6.8923,-6.8633,-6.8606,-6.8447,-6.8148,-6.7307,-6.6804,-6.6804,-6.6417,-6.6185,-6.6185,-6.6185,-6.6185,-6.6185,-6.6102,-6.5826,-6.5363,-6.4977,-6.4634,-6.429,-6.3794,-6.3611,-6.371,-6.3601,-6.3379,-6.3013,-6.3013,-6.2743,-6.2356,-6.2356,-6.2356,-6.2308,-6.2228,-6.2197,-6.2099,-6.1376,-6.1121,-6.1095,-6.0876,-6.1362,-6.2033,-6.191,-6.2471,-6.3161,-6.3027,-6.3544,-6.4244,-6.4244,-6.4547,-6.4888,-6.4888,-6.4888,-6.4888,-6.4888,-6.4888,-6.4888,-6.4888,-6.4888,-6.4888,-6.4888,-6.4888,-6.4888,-6.4888,-6.4888,-6.4888,-6.4888,-6.4888,-6.4888,-6.4888,-6.4888,-6.4888,-6.4888,-6.4888,-6.4888,-6.4888,-6.5267,-6.5457,-6.5457,-6.5874,-6.6362,-6.6899,-6.73,-6.7817,-6.851,-6.9336,-6.9711,-6.9669,-7.0119,-7.0423,-7.0634,-7.1098,-7.1291,-7.1291,-7.1291,-7.1291,-7.1291,-7.1291,-7.1291,-7.1291,-7.1291,-7.1291,-7.1291,-7.1291,-7.1291,-7.1369,-7.0276,-7.0276,-7.0359,-7.0608,-7.0652,-7.0666,-7.071,-7.071,-7.0549,-7.0028,-6.9976,-6.9767,-6.9259,-6.9087,-6.9009,-6.9009,-6.8236,-6.7655,-6.7501,-6.6804,-6.6379,-6.6224,-6.6185,-6.6185,-6.6185,-6.6185,-6.6185,-6.6185,-6.5528,-6.5218,-6.518,-6.4282,-6.3973,-6.4135,-6.3962,-6.3907,-6.3913,-6.3913,-6.3835,-6.3719,-6.3719,-6.3719,-6.3719,-6.3719,-6.3601,-6.3356,-6.2579,-6.2192,-6.203,-6.203,-6.2605,-6.3255,-6.2992,-6.3513,-6.4159,-6.3896,-6.432,-6.4888,-6.4888,-6.4888,-6.4888,-6.4888,-6.4888,-6.4888,-6.4888,-6.4888,-6.4888,-6.4888,-6.4888,-6.4888,-6.4888,-6.4888,-6.4888,-6.4888,-6.4888,-6.4888,-6.4888,-6.4888,-6.4888,-6.4888,-6.4888,-6.4888,-6.4888,-6.4888,-6.4964,-6.5078,-6.5722,-6.6177,-6.6329,-6.7011,-6.7484,-6.7652,-6.8493,-6.9048,-6.9284,-7.0063,-7.0517,-7.0593,-7.0791,-7.0966,-7.1163,-7.1236,-7.1247,-7.1247,-7.128,-7.1291,-7.1291,-7.1291,-7.1291,-7.1291,-7.1291,-7.1291,-7.1291,-7.1291,-7.1291,-7.1407,-7.0547,-7.0547,-7.0622,-7.0887,-7.0965,-7.0979,-7.1201,-7.1224,-7.1186,-7.1104,-7.1065,-7.1037,-7.0982,-7.0286,-6.9821,-6.9821,-6.9087,-6.8313,-6.7539,-6.7384,-6.6998,-6.6224,-6.6185,-6.6185,-6.6185,-6.6185,-6.6185,-6.6185,-6.6108,-6.6031,-6.6031,-6.5894,-6.5856,-6.5876,-6.5817,-6.543,-6.4841,-6.4841,-6.4377,-6.3719,-6.3719,-6.3719,-6.3719,-6.3719,-6.3661,-6.3631,-6.3329,-6.3077,-6.2912,-6.2912,-6.3449,-6.4099,-6.3894,-6.4374,-6.4997,-6.4769,-6.4813,-6.4888,-6.4888,-6.4888,-6.4888,-6.4888,-6.4888,-6.4888,-6.4888,-6.4888,-6.4888,-6.4888,-6.4888,-6.4888,-6.4888,-6.4888,-6.4888,-6.4888,-6.4888,-6.4888,-6.4888,-6.4888,-6.4888,-6.4888,-6.4888,-6.4888,-6.4888,-6.4888,-6.5192,-6.5912,-6.6025,-6.6442,-6.7162,-6.7352,-6.782,-6.8731,-6.8691,-6.9213,-7.0356,-7.0141,-7.0196,-7.0593,-7.0407,-7.0455,-7.0695,-7.0927,-7.1043,-7.1056,-7.1224,-7.1291,-7.1291,-7.1291,-7.1291,-7.1291,-7.1291,-7.1291,-7.1291,-7.1291,-7.1291,-7.1407,-7.0819,-7.0819,-7.09,-7.1142,-7.1166,-7.1201,-7.128,-7.1291,-7.1291,-7.1291,-7.1291,-7.1291,-7.1291,-7.0943,-7.0711,-7.0711,-6.9976,-6.9319,-6.8932,-6.8468,-6.7849,-6.6959,-6.692,-6.6688,-6.6224,-6.6185,-6.6185,-6.6185,-6.6185,-6.6185,-6.6185,-6.6185,-6.6185,-6.6185,-6.6185,-6.5992,-6.5682,-6.5682,-6.545,-6.5102,-6.5102,-6.5102,-6.5102,-6.5102,-6.5102,-6.5015,-6.449,-6.4222,-6.4155,-6.4155,-6.4694,-6.5291,-6.5005,-6.5159,-6.5352,-6.501,-6.4888,-6.4888,-6.4888,-6.4888,-6.4888,-6.4888,-6.4888,-6.4888,-6.4888,-6.4888,-6.4888,-6.4888,-6.4888,-6.4888,-6.4888,-6.4888,-6.4888,-6.4888,-6.4888,-6.4888,-6.4888,-6.4888,-6.4888,-6.4888,-6.4888,-6.4888,-6.4888,-6.5305,-6.5722,-6.6063,-6.6973,-6.7655,-6.8034,-6.8527,-6.9,-6.9469,-6.9398,-6.9605,-7.0196,-6.9984,-6.9984,-7.0196,-7.0073,-7.0247,-7.0608,-7.0695,-7.0791,-7.0805,-7.1017,-7.1142,-7.1142,-7.1142,-7.1142,-7.1142,-7.1142,-7.1142,-7.1154,-7.1258,-7.1224,-7.127]},{"header":{"parameterUnit":"m.s-1","parameterCategory":1,"la1":30.6,"la2":28.766,"lo1":-90.7593,"lo2":-88.6598,"dy":0.0162,"dx":0.0183,"nx":116,"ny":114,"refTime":"2023-02-24T18:00:00:Z","depth":0,"parameterNumber":3,"parameterNumberName":"V-component_of_WINDS"},"data":[0.0,0.0,0.0,0.0,0.0,0.0,0.0,0.0,0.0,0.0,0.0,0.0,0.0,0.0,0.0,0.0,0.0,0.0,0.0,0.0,0.0,0.0,0.0,0.0,0.0,0.0,0.0,0.0,0.0,0.0,0.0,0.0,0.0,0.0,0.0,0.0,0.0,0.0,0.0,0.0,0.0,0.0,0.0,0.0,0.0,0.0,0.0,0.0,0.0,0.0,0.0,0.0,0.0,0.0,0.0,0.0,0.0,0.0,0.0,0.0,0.0,0.0,0.0,0.0,0.0,0.0,0.0,0.0,0.0,0.0,0.0,0.0,0.0,0.0,0.0,0.0,0.0,0.0,0.0,0.0,0.0,0.0,0.0,0.0,0.0,0.0,0.0,0.0,0.0,0.0,0.0,0.0,0.0,0.0,0.0,0.0,0.0,0.0,0.0,0.0,0.0,0.0,0.0,0.0,0.0,0.0,0.0,0.0,0.0,0.0,0.0,0.0,0.0,0.0,0.0,0.0,0.0,0.0,0.0,0.0,0.0,0.0,0.0,0.0,0.0,0.0,0.0,0.0,0.0,0.0,0.0,0.0,0.0,0.0,0.0,0.0,0.0,0.0,0.0,0.0,0.0,0.0,0.0,0.0,0.0,0.0,0.0,0.0,0.0,0.0,0.0,0.0,0.0,0.0,0.0,0.0,0.0,0.0,0.0,0.0,0.0,0.0,0.0,0.0,0.0,0.0,0.0,0.0,0.0,0.0,0.0,0.0,0.0,0.0,0.0,0.0,0.0,0.0,0.0,0.0,0.0,0.0,0.0,0.0,0.0,0.0,0.0,0.0,0.0,0.0,0.0,0.0,0.0,0.0,0.0,0.0,0.0,0.0,0.0,0.0,0.0,0.0,0.0,0.0,0.0,0.0,0.0,0.0,0.0,0.0,0.0,0.0,0.0,0.0,0.0,0.0,0.0,0.0,0.0,0.0,0.0,0.0,0.0,0.0,0.0,0.0,0.0,0.0,0.0,0.0,0.0,0.0,0.0,0.0,0.0,0.0,0.0,0.0,0.0,0.0,0.0,0.0,0.0,0.0,0.0,0.0,0.0,0.0,0.0,0.0,0.0,0.0,0.0,0.0,0.0,0.0,0.0,0.0,0.0,0.0,0.0,0.0,0.0,0.0,0.0,0.0,0.0,0.0,0.0,0.0,0.0,0.0,0.0,0.0,0.0,0.0,0.0,0.0,0.0,0.0,0.0,0.0,0.0,0.0,0.0,0.0,0.0,0.0,0.0,0.0,0.0,0.0,0.0,0.0,0.0,0.0,0.0,0.0,0.0,0.0,0.0,0.0,0.0,0.0,0.0,0.0,0.0,0.0,0.0,0.0,0.0,0.0,0.0,0.0,0.0,0.0,0.0,0.0,0.0,0.0,0.0,0.0,0.0,0.0,0.0,0.0,0.0,0.0,0.0,0.0,0.0,0.0,0.0,0.0,0.0,0.0,0.0,0.0,0.0,0.0,0.0,0.0,0.0,0.0,0.0,0.0,0.0,0.0,0.0,0.0,0.0,0.0,0.0,0.0,0.0,0.0,0.0,0.0,0.0,0.0,0.0,0.0,0.0,0.0,0.0,0.0,0.0,0.0,0.0,0.0,0.0,0.0,0.0,0.0,0.0,0.0,0.0,0.0,0.0,0.0,0.0,0.0,0.0,0.0,0.0,0.0,0.0,0.0,0.0,0.0,0.0,0.0,0.0,0.0,0.0,0.0,0.0,0.0,0.0,0.0,0.0,0.0,0.0,0.0,0.0,0.0,0.0,0.0,0.0,0.0,0.0,0.0,0.0,0.0,0.0,0.0,0.0,0.0,0.0,0.0,0.0,0.0,0.0,0.0,0.0,0.0,0.0,0.0,0.0,0.0,0.0,0.0,0.0,0.0,0.0,0.0,0.0,0.0,0.0,0.0,0.0,0.0,0.0,0.0,0.0,0.0,0.0,0.0,0.0,0.0,0.0,0.0,0.0,0.0,0.0,0.0,0.0,0.0,0.0,0.0,0.0,0.0,0.0,0.0,0.0,0.0,0.0,0.0,0.0,0.0,0.0,0.0,0.0,0.0,0.0,0.0,0.0,0.0,0.0,0.0,0.0,0.0,0.0,0.0,0.0,0.0,0.0,0.0,0.0,0.0,0.0,0.0,0.0,0.0,0.0,0.0,0.0,0.0,0.0,0.0,0.0,0.0,0.0,0.0,0.0,0.0,0.0,0.0,0.0,0.0,0.0,0.0,0.0,0.0,0.0,0.0,0.0,0.0,0.0,0.0,0.0,0.0,0.0,0.0,0.0,0.0,0.0,0.0,0.0,0.0,0.0,0.0,0.0,0.0,0.0,0.0,0.0,0.0,0.0,0.0,0.0,0.0,0.0,0.0,0.0,0.0,0.0,0.0,0.0,0.0,0.0,0.0,0.0,0.0,0.0,0.0,0.0,0.0,0.0,0.0,0.0,0.0,0.0,0.0,0.0,0.0,0.0,0.0,0.0,0.0,0.0,0.0,0.0,0.0,0.0,0.0,0.0,0.0,0.0,0.0,0.0,0.0,0.0,0.0,0.0,0.0,0.0,0.0,0.0,0.0,0.0,0.0,0.0,0.0,0.0,0.0,0.0,0.0,0.0,0.0,0.0,0.0,0.0,0.0,0.0,0.0,0.0,0.0,0.0,0.0,0.0,0.0,0.0,0.0,0.0,0.0,0.0,0.0,0.0,0.0,0.0,0.0,0.0,0.0,0.0,0.0,0.0,0.0,0.0,0.0,0.0,0.0,0.0,0.0,0.0,0.0,0.0,0.0,0.0,0.0,0.0,0.0,0.0,0.0,0.0,0.0,0.0,0.0,0.0,0.0,0.0,0.0,0.0,0.0,0.0,0.0,0.0,0.0,0.0,0.0,0.0,0.0,0.0,0.0,0.0,0.0,0.0,0.0,0.0,0.0,0.0,0.0,0.0,0.0,0.0,0.0,0.0,0.0,0.0,0.0,0.0,0.0,0.0,0.0,0.0,0.0,0.0,0.0,0.0,0.0,0.0,0.0,0.0,0.0,0.0,0.0,0.0,0.0,0.0,0.0,0.0,0.0,0.0,0.0,0.0,0.0,0.0,0.0,0.0,0.0,0.0,0.0,0.0,0.0,0.0,0.0,0.0,0.0,0.0,0.0,0.0,0.0,0.0,0.0,0.0,0.0,0.0,0.0,0.0,0.0,0.0,0.0,0.0,0.0,0.0,0.0,0.0,0.0,0.0,0.0,0.0,0.0,0.0,0.0,0.0,0.0,0.0,0.0,0.0,0.0,0.0,0.0,0.0,0.0,0.0,0.0,0.0,0.0,0.0,0.0,0.0,0.0,0.0,0.0,0.0,0.0,0.0,0.0,0.0,0.0,0.0,0.0,0.0,0.0,0.0,0.0,0.0,0.0,0.0,0.0,0.0,0.0,0.0,0.0,0.0,0.0,0.0,0.0,0.0,0.0,0.0,0.0,0.0,0.0,0.0,0.0,0.0,0.0,0.0,0.0,0.0,0.0,0.0,0.0,0.0,0.0,0.0,0.0,0.0,0.0,0.0,0.0,0.0,0.0,0.0,0.0,0.0,0.0,0.0,0.0,0.0,0.0,0.0,0.0,0.0,0.0,0.0,0.0,0.0,0.0,0.0,0.0,0.0,0.0,0.0,0.0,0.0,0.0,0.0,0.0,0.0,0.0,0.0,0.0,0.0,0.0,0.0,0.0,0.0,0.0,0.0,0.0,0.0,0.0,0.0,0.0,0.0,0.0,0.0,0.0,0.0,0.0,0.0,0.0,0.0,0.0,0.0,0.0,0.0,0.0,0.0,0.0,0.0,0.0,0.0,0.0,0.0,0.0,0.0,0.0,0.0,0.0,0.0,0.0,0.0,0.0,0.0,0.0,0.0,0.0,0.0,0.0,0.0,0.0,0.0,0.0,0.0,0.0,0.0,0.0,0.0,0.0,0.0,0.0,0.0,0.0,0.0,0.0,0.0,0.0,0.0,0.0,0.0,0.0,0.0,0.0,0.0,0.0,0.0,0.0,0.0,0.0,0.0,0.0,0.0,0.0,0.0,0.0,0.0,0.0,0.0,0.0,0.0,0.0,0.0,0.0,0.0,0.0,0.0,0.0,0.0,0.0,0.0,0.0,0.0,0.0,0.0,0.0,0.0,0.0,0.0,0.0,0.0,0.0,0.0,0.0,0.0,0.0,0.0,0.0,0.0,0.0,0.0,0.0,0.0,0.0,0.0,0.0,0.0,0.0,0.0,0.0,0.0,0.0,0.0,0.0,0.0,0.0,0.0,0.0,0.0,0.0,0.0,0.0,0.0,0.0,0.0,0.0,0.0,0.0,0.0,0.0,0.0,0.0,0.0,0.0,0.0,0.0,0.0,0.0,0.0,0.0,0.0,0.0,0.0,0.0,0.0,0.0,0.0,0.0,0.0,0.0,0.0,0.0,0.0,0.0,0.0,0.0,0.0,0.0,0.0,0.0,0.0,0.0,0.0,0.0,0.0,0.0,0.0,0.0,0.0,0.0,0.0,0.0,0.0,0.0,0.0,0.0,0.0,0.0,0.0,0.0,0.0,0.0,0.0,0.0,0.0,0.0,0.0,0.0,0.0,0.0,0.0,0.0,0.0,0.0,0.0,0.0,0.0,0.0,0.0,0.0,0.0,0.0,0.0,0.0,0.0,0.0,0.0,0.0,0.0,0.0,0.0,0.0,0.0,0.0,0.0,0.0,0.0,0.0,0.0,0.0,0.0,0.0,0.0,0.0,0.0,0.0,0.0,0.0,0.0,0.0,0.0,0.0,0.0,0.0,0.0,0.0,0.0,0.0,0.0,0.0,0.0,0.0,0.0,0.0,0.0,0.0,0.0,0.0,0.0,0.0,0.0,0.0,0.0,0.0,0.0,0.0,0.0,0.0,0.0,0.0,0.0,0.0,0.0,0.0,0.0,0.0,0.0,0.0,0.0,0.0,0.0,0.0,0.0,0.0,0.0,0.0,0.0,0.0,0.0,0.0,0.0,0.0,0.0,0.0,0.0,0.0,0.0,0.0,0.0,0.0,0.0,0.0,0.0,0.0,0.0,0.0,0.0,0.0,0.0,0.0,0.0,0.0,0.0,0.0,0.0,0.0,0.0,0.0,0.0,0.0,0.0,0.0,0.0,0.0,0.0,0.0,0.0,0.0,0.0,0.0,0.0,0.0,0.0,0.0,0.0,0.0,0.0,0.0,0.0,0.0,0.0,0.0,0.0,0.0,0.0,0.0,0.0,0.0,0.0,0.0,0.0,0.0,0.0,0.0,0.0,0.0,0.0,0.0,0.0,0.0,0.0,0.0,0.0,0.0,0.0,0.0,0.0,0.0,0.0,0.0,0.0,0.0,0.0,0.0,0.0,0.0,0.0,0.0,0.0,0.0,0.0,0.0,0.0,0.0,0.0,0.0,0.0,0.0,0.0,0.0,0.0,0.0,0.0,0.0,0.0,0.0,0.0,0.0,0.0,0.0,0.0,0.0,0.0,0.0,0.0,0.0,0.0,0.0,0.0,0.0,0.0,0.0,0.0,0.0,0.0,0.0,0.0,0.0,0.0,0.0,0.0,0.0,0.0,0.0,0.0,0.0,0.0,0.0,0.0,0.0,0.0,0.0,0.0,0.0,0.0,0.0,0.0,0.0,0.0,0.0,0.0,0.0,0.0,0.0,0.0,0.0,0.0,0.0,0.0,0.0,0.0,0.0,0.0,0.0,0.0,0.0,0.0,0.0,0.0,0.0,0.0,0.0,0.0,0.0,0.0,0.0,0.0,0.0,0.0,0.0,0.0,0.0,0.0,0.0,0.0,0.0,0.0,0.0,0.0,0.0,0.0,0.0,0.0,0.0,0.0,0.0,0.0,0.0,0.0,0.0,0.0,0.0,0.0,0.0,0.0,0.0,0.0,0.0,0.0,0.0,0.0,0.0,0.0,0.0,0.0,0.0,0.0,0.0,0.0,0.0,0.0,0.0,0.0,0.0,0.0,0.0,0.0,0.0,0.0,0.0,0.0,0.0,0.0,0.0,0.0,0.0,0.0,0.0,0.7954,0.0,0.0,0.0,0.0,0.0,0.0,0.0,0.0,0.0,0.0,0.0,0.0,0.0,0.0,0.0,0.0,0.0,0.0,0.0,0.0,0.0,0.0,0.0,0.0,0.0,0.0,0.0,0.0,0.0,0.0,0.0,0.0,0.0,0.0,0.0,0.0,0.0,0.0,0.0,0.0,0.0,0.0,0.0,0.0,0.0,0.0,0.0,0.0,0.0,0.0,0.0,0.0,0.0,0.0,0.0,0.0,0.0,0.0,0.0,0.0,0.0,0.0,0.0,0.0,0.0,0.0,0.0,0.0,0.0,0.0,0.0,0.0,0.0,0.0,0.0,0.0,0.0,0.0,0.0,0.0,0.0,0.0,0.0,0.0,0.0,0.0,0.0,0.0,0.0,0.0,0.0,0.0,0.0,0.0,0.0,0.0,0.0,0.0,0.0,0.0,0.0,0.0,0.0,0.0,0.0,0.0,0.0,0.0,0.0,0.0,0.0,0.0,0.0,0.0,0.0,0.0,0.8021,0.0,0.0,0.0,0.0,0.0,0.0,0.0,0.0,0.0,0.0,0.0,0.0,0.0,0.0,0.0,0.0,0.0,0.0,0.0,0.0,0.0,0.0,0.0,0.0,0.0,0.0,0.0,0.0,0.0,0.0,0.0,0.0,0.0,0.0,0.0,0.0,0.0,0.0,0.0,0.0,0.0,0.0,0.0,0.0,0.0,0.0,0.0,0.0,0.0,0.0,0.0,0.0,0.0,0.0,0.0,0.0,0.0,0.0,0.0,0.0,0.0,0.0,0.0,0.0,0.0,0.0,0.0,0.0,0.0,0.0,0.0,0.0,0.0,0.0,0.0,0.0,0.0,0.0,0.0,0.0,0.0,0.0,0.0,0.0,0.0,0.0,0.0,0.0,0.0,0.0,0.0,0.0,0.0,0.0,0.0,0.0,0.0,0.0,0.0,0.0,0.0,0.0,0.0,0.0,0.0,0.0,0.0,0.0,0.8443,0.8508,0.8513,0.8633,0.8633,0.853,0.8285,0.8207,0.8141,0.0,0.0,0.0,0.0,0.0,0.0,0.0,0.0,0.0,0.0,0.0,0.0,0.0,0.0,0.0,0.0,0.0,0.0,0.0,0.0,0.0,0.0,0.0,0.0,0.0,0.0,0.0,0.0,0.0,0.0,0.0,0.0,0.0,0.0,0.0,0.0,0.0,0.0,0.0,1.1145,1.1166,1.1104,1.109,0.0,0.0,0.0,0.0,0.0,0.0,0.0,0.0,0.0,0.0,0.0,0.0,0.0,0.0,0.0,0.0,0.0,0.0,0.0,0.0,0.0,0.0,0.0,0.0,0.0,0.0,0.0,0.0,0.0,0.0,0.0,0.0,0.0,0.0,0.0,0.0,0.0,0.0,0.0,0.0,0.0,0.0,0.0,0.0,0.7872,0.7872,0.0,0.0,0.0,0.0,0.0,0.0,0.0,0.0,0.0,0.0,0.0,0.0,0.0,0.8372,0.8372,0.8481,0.8541,0.8546,0.8774,0.8814,0.8814,0.9008,0.9057,0.9024,0.878,0.0,0.8204,0.8079,0.0,0.0,0.0,0.0,0.0,0.0,0.0,0.0,0.0,0.0,0.0,0.0,0.0,0.0,0.0,0.0,0.0,0.0,0.0,0.0,0.0,0.0,0.0,0.0,0.0,0.0,0.0,0.0,0.0,0.0,0.0,0.0,0.0,0.0,0.0,0.0,1.067,1.1002,1.1294,1.1382,1.1416,1.1416,1.128,1.1084,1.0779,1.0779,0.0,0.0,0.0,0.0,0.0,0.0,0.0,0.0,0.0,0.0,0.0,0.0,0.0,0.0,0.0,0.0,0.0,0.0,0.0,0.0,0.0,0.0,0.0,0.0,0.0,0.0,0.0,0.0,0.0,0.0,0.0,0.0,0.0,0.0,0.0,0.0,0.0,0.0,0.0,0.7828,0.7872,0.7872,0.7769,0.7682,0.0,0.0,0.0,0.0,0.0,0.0,0.0,0.0,0.0,0.8258,0.8492,0.8649,0.8647,0.8834,0.8927,0.8992,0.9171,0.9253,0.9258,0.9378,0.94,0.9323,0.9144,0.8943,0.8715,0.8394,0.8176,0.8108,0.0,0.0,0.0,0.0,0.8037,0.8043,0.0,0.0,0.0,0.0,0.0,0.0,0.0,0.0,0.0,0.0,0.0,0.0,0.0,0.0,0.0,0.0,0.0,0.0,0.0,0.0,0.0,0.0,0.0,0.0,0.0,0.0,0.0,0.0,1.1002,1.1328,1.1626,1.1775,1.1843,1.1843,1.1843,1.1552,1.1063,1.1023,1.0744,0.0,0.0,0.0,0.0,0.0,0.0,0.0,0.0,0.0,0.0,0.0,0.0,0.0,0.0,0.0,0.0,0.0,0.0,0.0,0.0,0.0,0.0,0.0,0.0,0.0,0.0,0.0,0.0,0.0,0.0,0.0,0.0,0.0,0.0,0.0,0.0,0.0,0.0,0.7823,0.7977,0.7977,0.7872,0.7823,0.0,0.0,0.0,0.0,0.0,0.0,0.8144,0.8378,0.8524,0.8552,0.8785,0.8965,0.9084,0.9209,0.9313,0.94,0.9519,0.9579,0.9579,0.9671,0.9661,0.9568,0.9416,0.9285,0.9139,0.866,0.8356,0.8245,0.8122,0.8046,0.7975,0.8068,0.81,0.8111,0.0,0.0,0.0,0.0,0.0,0.0,0.0,0.0,0.0,0.0,0.0,0.0,0.0,0.0,0.0,0.0,0.0,0.0,0.0,0.0,0.0,0.0,0.0,0.0,0.0,0.0,0.0,1.1131,1.1572,1.1945,1.225,1.2393,1.2461,1.2461,1.2461,1.2054,1.1362,1.1212,1.0894,1.0466,0.0,0.0,0.0,0.0,0.0,0.0,0.0,0.0,0.0,0.0,0.0,0.0,0.0,0.0,0.0,0.0,0.0,0.0,0.0,0.0,0.0,0.0,0.0,0.0,0.0,0.0,0.0,0.0,0.0,0.0,0.0,0.0,0.0,0.0,0.0,0.0,0.0,0.0,0.0,0.8108,0.8144,0.0,0.0,0.0,0.0,0.8108,0.8258,0.8394,0.8399,0.8622,0.8807,0.8852,0.9155,0.9334,0.9459,0.9579,0.9644,0.9655,0.9764,0.9818,0.9818,0.9824,0.9824,0.9807,0.9579,0.941,0.9258,0.8774,0.8573,0.8541,0.8312,0.822,0.8214,0.8225,0.8225,0.8225,0.0,0.0,0.0,0.0,0.0,0.0,0.0,0.0,0.0,0.0,0.0,0.0,0.0,0.0,0.0,0.0,0.0,0.0,0.0,0.0,0.0,0.0,0.0,0.0,0.0,0.0,1.1009,1.1457,1.1904,1.2277,1.2576,1.2725,1.28,1.28,1.28,1.2596,1.2223,1.1782,1.128,1.0765,1.0514,0.0,0.0,0.0,0.0,0.0,0.0,0.0,0.0,0.0,0.0,0.0,0.0,0.0,0.0,0.0,0.0,0.0,0.0,0.0,0.0,0.0,0.0,0.0,0.0,0.0,0.0,0.0,0.0,0.0,0.0,0.0,0.0,0.0,0.0,0.0,0.0,0.0,0.0,0.828,0.8388,0.0,0.8399,0.8437,0.8443,0.8399,0.8622,0.8696,0.8696,0.9063,0.9253,0.9296,0.9454,0.9595,0.9709,0.9758,0.9818,0.9894,0.9938,0.9954,0.9954,0.9954,0.9954,0.9943,0.9704,0.9579,0.9508,0.9106,0.8845,0.8698,0.8611,0.853,0.847,0.8552,0.853,0.8475,0.0,0.0,0.0,0.0,0.0,0.0,0.0,0.0,0.0,0.0,0.0,0.0,0.0,0.0,0.0,0.0,0.0,0.0,0.0,0.0,0.0,0.0,0.0,0.0,0.0,0.0,0.0,0.0,0.0,0.0,0.0,0.0,0.0,0.0,0.0,0.0,0.0,0.0,0.0,0.0,0.0,0.0,1.0118,0.0,0.0,0.0,0.0,0.0,0.0,0.0,0.0,0.0,0.0,0.0,0.0,0.0,0.0,0.0,0.0,0.0,0.0,0.0,0.0,0.0,0.0,0.0,0.0,0.0,0.0,0.0,0.0,0.0,0.0,0.0,0.0,0.0,0.0,0.0,0.8475,0.8638,0.8796,0.8905,0.8948,0.8916,0.8889,0.8889,0.9041,0.9133,0.9133,0.9394,0.9568,0.9601,0.9682,0.978,0.99,0.99,0.9938,1.0019,1.0019,0.9998,0.996,0.996,0.9938,0.9889,0.9693,0.9606,0.9584,0.9307,0.9095,0.8943,0.8861,0.878,0.872,0.8802,0.8753,0.8655,0.0,0.0,0.0,0.0,0.0,0.0,0.0,0.0,0.0,0.0,0.0,0.0,0.0,0.0,0.0,0.0,0.0,0.0,0.0,0.0,0.0,0.0,0.0,0.0,0.0,0.0,0.0,0.0,0.0,0.0,0.0,0.0,0.0,0.0,0.0,0.0,0.0,0.0,0.0,0.0,0.0,0.0,1.05,0.0,0.0,0.0,0.0,0.0,0.0,0.0,0.0,0.0,0.0,0.0,0.0,0.0,0.0,0.0,0.0,0.0,0.0,0.0,0.0,0.0,0.0,0.0,0.0,0.0,0.0,0.0,0.0,0.0,0.0,0.0,0.0,0.0,0.8158,0.8558,0.8883,0.9128,0.9362,0.9552,0.9671,0.9574,0.9503,0.9503,0.9503,0.9503,0.9503,0.9617,0.9731,0.984,0.9845,0.99,1.0019,1.0019,1.0019,1.0019,1.0014,0.9954,0.9835,0.9835,0.9775,0.9661,0.9541,0.9487,0.9476,0.9356,0.9302,0.928,0.8981,0.8895,0.8895,0.889,0.8878,0.8753,0.0,0.0,0.0,0.0,0.0,0.0,0.0,0.0,0.0,0.0,0.0,0.0,0.0,0.0,0.0,0.0,0.0,0.0,0.0,0.0,0.0,0.0,0.0,0.0,0.0,0.0,0.0,0.0,0.0,0.0,0.0,0.0,0.0,0.0,0.0,0.0,0.0,0.0,0.0,0.0,0.0,0.0,1.0962,0.0,0.0,0.0,0.0,0.0,0.0,0.0,0.0,0.0,0.0,0.0,0.0,0.0,0.0,0.0,0.0,0.0,0.0,0.0,0.0,0.0,0.0,0.0,0.0,0.0,0.0,0.0,0.0,0.0,0.0,0.0,0.0,0.8644,0.8698,0.9041,0.9378,0.9617,0.978,0.9889,0.9921,0.9894,0.9873,0.9873,0.9873,0.9873,0.9873,0.9905,0.9938,0.997,0.997,0.9987,1.0019,1.0019,1.0019,1.0019,0.9932,0.9867,0.9835,0.9753,0.9699,0.9661,0.9541,0.9487,0.9476,0.9356,0.9302,0.9296,0.9231,0.9204,0.9198,0.9117,0.8948,0.8753,0.0,0.0,0.0,0.0,0.0,0.0,0.0,0.0,0.0,0.0,0.0,0.0,0.0,0.0,0.0,0.0,0.0,0.0,0.0,0.0,0.0,0.0,0.0,0.0,0.0,0.0,0.0,0.0,0.0,0.0,0.0,0.0,0.0,0.0,0.0,0.0,0.0,0.0,0.0,0.0,0.0,0.0,1.1613,1.1396,1.1172,1.0948,1.0819,1.0683,1.0541,1.0412,0.0,0.0,0.0,0.0,0.0,0.0,0.0,0.0,0.0,0.0,0.0,0.0,0.0,0.0,0.0,0.0,0.0,0.0,0.0,0.0,0.0,0.0,0.0,0.0,0.8725,0.9166,0.9438,0.9612,0.9818,1.0101,1.0291,1.0394,1.0394,1.0351,1.0302,1.0248,1.0155,1.0095,1.0095,1.0047,1.0019,1.0019,1.0019,1.0019,1.0019,1.0019,0.9992,0.9943,0.9873,0.9786,0.9688,0.9622,0.9568,0.0,0.9443,0.941,0.9405,0.9334,0.9302,0.0,0.0,0.0,0.0,0.0,0.8894,0.8753,0.0,0.0,0.0,0.0,0.0,0.0,0.0,0.0,0.0,0.0,0.0,0.0,0.0,0.0,0.0,0.0,0.0,0.0,0.0,0.0,0.0,0.0,0.0,0.0,0.0,0.0,0.0,0.0,0.0,0.0,0.0,0.0,0.0,0.0,0.0,0.0,0.0,0.0,0.0,0.0,0.0,0.0,1.2359,1.2067,1.1857,1.1681,1.1375,1.1172,1.0934,1.0697,0.0,0.0,0.0,0.0,0.0,0.0,0.0,0.0,0.0,0.0,0.0,0.0,0.0,0.0,0.0,0.0,0.0,0.0,0.0,0.0,0.0,0.0,0.0,0.0,0.915,0.9693,1.0177,1.0172,1.0248,1.0579,1.0808,1.0933,1.0922,1.0819,1.071,1.0585,1.0356,1.0226,1.0226,0.0,0.0,0.0,0.0,1.0014,0.9998,0.9998,0.9938,0.9818,0.9807,0.9688,0.9487,0.947,0.9405,0.9302,0.9302,0.9302,0.9302,0.9302,0.9302,0.9302,0.9291,0.9215,0.9084,0.8856,0.8764,0.0,0.0,0.0,0.0,0.0,0.0,0.0,0.0,0.0,0.0,0.0,0.0,0.0,0.0,0.0,0.0,0.0,0.0,0.0,0.0,0.0,0.0,0.0,0.0,0.0,0.0,0.0,0.0,0.0,0.0,0.0,0.0,0.0,0.0,0.0,0.0,0.0,0.0,0.0,0.0,0.0,0.0,0.0,1.2983,1.2807,1.2569,1.2291,1.1993,1.1789,1.1613,1.1314,1.1138,1.0982,1.0683,0.0,0.0,0.0,0.0,0.0,0.0,0.0,0.0,0.0,0.0,0.0,0.0,0.0,0.0,0.0,0.0,0.0,0.0,0.0,0.0,0.909,0.9503,0.9938,1.0422,1.0634,1.0808,1.0976,1.1036,1.1031,1.0927,1.09,1.0835,1.071,1.0487,1.0351,1.0351,1.0139,1.0019,1.0019,1.0019,0.997,0.9873,0.9873,0.9813,0.9699,0.0,0.0,0.9487,0.9383,0.9329,0.9302,0.9302,0.9302,0.9302,0.9302,0.9302,0.9296,0.9204,0.9025,0.89,0.8823,0.8709,0.8622,0.0,0.0,0.0,0.0,0.0,0.0,0.0,0.0,0.0,0.0,0.0,0.0,0.0,0.0,0.0,0.0,0.0,0.0,0.0,0.0,0.0,0.0,0.0,0.0,0.0,0.0,0.0,0.0,0.0,0.0,0.0,0.0,0.0,0.0,0.0,0.0,0.0,0.0,0.0,0.0,0.0,0.0,1.3804,1.3437,1.3152,1.2901,1.2528,1.2298,1.2108,1.1735,1.1511,1.1341,1.1036,1.0738,1.0453,0.0,0.0,0.0,0.0,0.0,0.0,0.0,0.0,0.0,0.0,0.0,0.0,0.0,0.0,0.804,0.0,0.0,0.9084,0.9503,0.9921,1.0302,1.0606,1.0857,1.1036,1.1096,1.1156,1.1118,1.0938,1.0922,1.0846,1.0661,1.0487,1.0362,1.0297,1.0123,1.0019,1.0019,0.996,0.99,0.9835,0.978,0.9693,0.9579,0.9514,0.9454,0.9394,0.9334,0.9302,0.9302,0.9302,0.9302,0.9302,0.9302,0.9302,0.9285,0.9111,0.8933,0.8857,0.8747,0.8638,0.859,0.0,0.0,0.0,0.0,0.0,0.0,0.0,0.0,0.0,0.0,0.0,0.0,0.0,0.0,0.0,0.0,0.0,0.0,0.0,0.0,0.0,0.0,0.0,0.0,0.0,0.0,0.0,0.0,0.0,0.0,0.0,0.0,0.0,0.0,0.0,0.0,0.0,0.0,0.0,0.0,0.0,0.0,1.4448,1.3885,1.358,1.3383,1.2901,1.263,1.2433,1.1986,1.1755,1.1606,1.1301,1.1002,1.0704,1.0412,0.9985,0.0,0.0,0.0,0.0,0.0,0.0,0.0,0.0,0.0,0.9312,0.8105,0.8144,0.8454,0.8715,0.9117,0.9525,0.9883,1.0286,1.0606,1.0753,1.0944,1.1058,1.1036,1.1156,1.1156,1.0938,1.09,1.0791,1.0574,1.0427,1.0307,1.021,1.0085,1.0008,0.9987,0.9889,0.9813,0.9769,0.9677,0.9574,0.9454,0.9454,0.94,0.9302,0.9302,0.9302,0.9302,0.9302,0.9302,0.9302,0.9302,0.9302,0.928,0.8971,0.8884,0.8852,0.8677,0.859,0.859,0.0,0.0,0.0,0.0,0.0,0.0,0.0,0.0,0.0,0.0,0.0,0.0,0.0,0.0,0.0,0.0,0.0,0.0,0.0,0.0,0.0,0.0,0.0,0.0,0.0,0.0,0.0,0.0,0.0,0.0,0.0,0.0,0.0,0.0,0.0,0.0,0.0,0.0,0.0,0.0,0.0,0.0,1.4462,1.3994,1.3729,1.3526,1.2942,1.263,1.2433,1.1986,1.1823,1.1755,1.1457,1.1158,1.0793,1.0561,0.0,0.9578,0.9422,0.9259,0.9187,0.9207,0.9231,0.9169,0.0,0.0,0.8742,0.8574,0.8693,0.8906,0.9323,0.9601,0.99,1.0264,1.0454,1.0634,1.0867,1.0922,1.09,1.0791,1.0982,1.1069,1.0933,1.0819,1.0699,1.0645,1.0351,1.0215,1.0204,1.0085,0.997,0.9862,0.9845,0.9737,0.953,0.9514,0.9449,0.9323,0.9323,0.9318,0.9302,0.9302,0.9302,0.9302,0.9302,0.9302,0.9302,0.9302,0.9302,0.928,0.8971,0.8884,0.8852,0.8677,0.859,0.859,0.0,0.0,0.0,0.0,0.0,0.0,0.0,0.0,0.0,0.0,0.0,0.0,0.0,0.0,0.0,0.0,0.0,0.0,0.0,0.0,0.0,0.0,0.0,0.0,0.0,0.0,0.0,0.0,0.0,0.0,0.0,0.0,0.0,0.0,0.0,0.0,0.0,0.0,0.0,0.0,0.0,0.0,1.4441,1.3824,1.3383,1.3064,1.2718,1.2386,0.0,0.0,1.1518,1.1423,1.1294,1.1056,1.0772,1.0555,1.0073,0.0,0.9313,0.9323,0.9347,0.9374,0.9287,0.9137,0.911,0.8921,0.8833,0.8872,0.9095,0.9329,0.9552,0.9845,1.0123,0.0,1.0601,1.078,1.0808,1.0813,1.077,1.0645,1.0601,1.0585,1.0606,1.0563,1.0481,1.0362,1.0259,1.0172,1.0101,0.9981,0.9889,0.984,0.9704,0.9584,0.9487,0.9416,0.9356,0.9302,0.9302,0.9302,0.9302,0.9302,0.9302,0.9302,0.9302,0.9302,0.9302,0.9302,0.9302,0.928,0.8971,0.8884,0.8852,0.8677,0.859,0.859,0.0,0.0,0.0,0.0,0.0,0.0,0.0,0.0,0.0,0.0,0.0,0.0,0.0,0.0,0.0,0.0,0.0,0.0,0.0,0.0,0.0,0.0,0.0,0.0,0.0,0.0,0.0,0.0,0.0,0.0,0.0,0.0,0.0,0.0,0.0,0.0,0.0,0.0,0.0,0.0,0.0,0.0,1.4245,1.3498,1.2888,1.2406,1.225,1.1932,0.0,0.0,1.1009,1.0921,1.0921,1.0744,1.0507,1.0351,0.9944,0.9496,0.933,0.933,0.9486,0.9574,0.9447,0.9306,0.9388,0.9223,0.9144,0.9296,0.9438,0.9584,0.9737,0.9976,1.0204,1.0362,1.0628,1.0786,1.0699,1.0688,1.0617,1.0433,1.0259,1.0161,1.0188,1.0248,1.0264,1.021,1.0172,1.0112,1.0025,0.9905,0.9824,0.9791,0.9595,0.947,0.9438,0.9351,0.9302,0.9302,0.9302,0.9302,0.9302,0.9302,0.9302,0.9302,0.9302,0.9302,0.9302,0.9302,0.9302,0.928,0.8971,0.8884,0.8852,0.8677,0.859,0.859,0.0,0.0,0.0,0.0,0.0,0.0,0.0,0.0,0.0,0.0,0.0,0.0,0.0,0.0,0.0,0.0,0.0,0.0,0.0,0.0,0.0,0.0,0.0,0.0,0.0,0.0,0.0,0.0,0.0,0.0,0.0,0.0,0.0,0.0,0.0,0.0,0.0,0.0,0.0,0.0,0.0,0.0,1.3777,1.303,1.2291,1.1633,1.1477,0.0,0.0,0.0,1.031,1.031,1.031,1.0202,0.0,0.989,0.9625,0.0,0.0,0.0,0.9537,0.9825,0.9673,0.948,0.9744,0.9607,0.9536,0.9769,0.9737,0.9737,0.9965,1.0019,1.0106,1.0346,1.0487,1.0645,1.0563,1.0563,1.0433,1.0079,1.003,0.9938,0.0,0.9894,1.0079,1.0193,1.0095,1.0025,1.0019,0.9905,0.9786,0.9677,0.9552,0.9427,0.9313,0.9307,0.9302,0.9302,0.9302,0.9302,0.9302,0.9302,0.9302,0.9302,0.9302,0.9302,0.9302,0.9302,0.9302,0.928,0.8971,0.8884,0.8852,0.8677,0.859,0.859,0.0,0.0,0.0,0.0,0.0,0.0,0.0,0.0,0.0,0.0,0.0,0.0,0.0,0.0,0.0,0.0,0.0,0.0,0.0,0.0,0.0,0.0,0.0,0.0,0.0,0.0,0.0,0.0,0.0,0.0,0.0,0.0,0.0,0.0,0.0,0.0,0.0,0.0,0.0,0.0,0.0,0.0,1.2432,1.1728,1.1081,1.0466,0.0,0.0,0.0,0.0,0.0,0.0,0.9686,0.0,0.0,0.9578,0.0,0.0,0.0,0.0,0.9892,0.9865,0.9794,0.9826,0.9936,0.9768,0.965,0.9807,0.9682,0.9574,0.965,0.9731,0.984,0.9998,1.0188,1.0351,1.0433,1.0373,1.0248,1.0047,0.9883,0.0,0.0,0.0,0.0,0.9949,0.9921,0.99,0.99,0.9791,0.9671,0.9552,0.9427,0.9345,0.9302,0.9302,0.9302,0.9302,0.9302,0.9302,0.9302,0.9302,0.9302,0.9302,0.9302,0.9302,0.9302,0.9302,0.9302,0.928,0.8971,0.8884,0.8852,0.8677,0.859,0.859,0.0,0.0,0.0,0.0,0.0,0.0,0.0,0.0,0.0,0.0,0.0,0.0,0.0,0.0,0.0,0.0,0.0,0.0,0.0,0.0,0.0,0.0,0.0,0.0,0.0,0.0,0.0,0.0,0.0,0.0,0.0,0.0,0.0,0.0,0.0,0.0,0.0,0.0,0.0,0.0,0.0,0.0,1.1318,1.068,1.0104,0.0,0.0,0.0,0.0,0.0,0.0,0.0,0.0,0.0,0.0,0.0,0.0,0.0,0.0,0.9769,1.005,1.0056,1.0031,1.0039,0.997,0.984,0.9666,0.965,0.9459,0.928,0.9237,0.9329,0.9465,0.9622,0.9889,1.0117,1.0237,1.0226,1.0139,0.9976,0.9818,0.9699,0.0,0.0,0.0,0.9769,0.9813,0.9835,0.9835,0.9769,0.9677,0.9557,0.9432,0.9345,0.9302,0.9302,0.9302,0.9302,0.9302,0.9302,0.9302,0.9302,0.9302,0.9302,0.9302,0.9302,0.9302,0.9302,0.9302,0.928,0.8971,0.8884,0.8852,0.8677,0.859,0.859,0.0,0.0,0.0,0.0,0.0,0.0,0.0,0.0,0.0,0.0,0.0,0.0,0.0,0.0,0.0,0.0,0.0,0.0,0.0,0.0,0.0,0.0,0.0,0.0,0.0,0.0,0.0,0.0,0.0,0.0,0.0,0.0,0.0,0.0,0.0,0.0,0.0,0.0,0.0,0.0,0.0,0.0,1.0417,0.9881,0.0,0.0,0.0,0.0,0.0,0.0,0.0,0.0,0.0,0.0,0.0,0.0,0.0,0.9285,0.957,0.9836,1.0088,1.0346,1.0186,1.0025,1.0019,0.9829,0.9579,0.9329,0.9084,0.8878,0.0,0.0,0.8933,0.9237,0.9579,0.9862,0.9992,1.0117,1.0106,0.0,0.0,0.0,0.0,0.0,0.0,0.9671,0.0,0.9835,0.9835,0.9835,0.978,0.9666,0.9546,0.9427,0.9307,0.9302,0.9302,0.9302,0.9302,0.9302,0.9302,0.9302,0.9302,0.9302,0.9302,0.9302,0.9302,0.9302,0.9302,0.928,0.8971,0.8884,0.8852,0.8677,0.859,0.859,0.0,0.0,0.0,0.0,0.0,0.0,0.0,0.0,0.0,0.0,0.0,0.0,0.0,0.0,0.0,0.0,0.0,0.0,0.0,0.0,0.0,0.0,0.0,0.0,0.0,0.0,0.0,0.0,0.0,0.0,0.0,0.0,0.0,0.0,0.0,0.0,0.0,0.0,0.0,0.0,0.0,0.0,0.8934,0.0,0.0,0.0,0.0,0.0,0.0,0.0,0.0,0.0,0.0,0.8248,0.8412,0.0,0.0,0.9525,0.9806,1.0156,1.0406,1.0425,1.0283,1.0134,1.0041,0.9699,0.9302,0.8976,0.8644,0.8378,0.0,0.0,0.0,0.8867,0.9285,0.0,0.9856,0.9987,0.0,0.9856,0.0,0.978,0.9639,0.965,0.0,0.0,0.9775,0.9835,0.9835,0.9835,0.9742,0.9541,0.9503,0.9427,0.9307,0.9302,0.9302,0.9302,0.9302,0.9302,0.9302,0.9302,0.9302,0.9302,0.9302,0.9302,0.9302,0.9302,0.9302,0.928,0.8971,0.8884,0.8852,0.8677,0.859,0.859,0.0,0.0,0.0,0.0,0.0,0.0,0.0,0.0,0.0,0.0,0.0,0.0,0.0,0.0,0.0,0.0,0.0,0.0,0.0,0.0,0.0,0.0,0.0,0.0,0.0,0.0,0.0,0.0,0.0,0.0,0.0,0.0,0.0,0.0,0.0,0.0,0.0,0.0,0.0,0.0,0.0,0.0,0.0,0.0,0.0,0.0,0.0,0.0,0.0,0.0,0.0,0.7748,0.8118,0.829,0.8453,0.9006,0.0,0.9697,1.0016,1.0375,1.0592,1.0519,1.0329,1.0128,0.9851,0.9416,0.8954,0.8541,0.8214,0.0,0.7839,0.8013,0.0,0.0,0.0,0.0,0.9644,0.9829,0.9954,0.0,0.9949,0.0,0.9829,0.9824,0.9802,0.0,0.9802,0.9835,0.9835,0.9889,0.9807,0.9574,0.9568,0.9481,0.9307,0.9302,0.9302,0.9302,0.9302,0.9302,0.9302,0.9302,0.9302,0.9302,0.0,0.9302,0.9302,0.9302,0.9302,0.9285,0.9106,0.8927,0.8857,0.8736,0.8633,0.859,0.0,0.0,0.0,0.0,0.0,0.0,0.0,0.0,0.0,0.0,0.0,0.0,0.0,0.0,0.0,0.0,0.0,0.0,0.0,0.0,0.0,0.0,0.0,0.0,0.0,0.0,0.0,0.0,0.0,0.0,0.0,0.0,0.0,0.0,0.0,0.0,0.0,0.0,0.0,0.0,0.0,0.0,0.0,0.0,0.0,0.0,0.0,0.0,0.0,0.0,0.7481,0.7513,0.7975,0.8312,0.8628,0.909,0.9563,0.9981,1.021,1.0514,1.0732,1.0612,1.0378,1.0052,0.9574,0.9079,0.8584,0.8147,0.0,0.7595,0.747,0.7655,0.791,0.8171,0.0,0.9008,0.9438,0.9688,0.9927,1.0172,1.0095,1.0025,1.0041,1.003,0.9976,0.9867,0.9862,0.9862,0.9862,0.9965,0.9911,0.9677,0.9639,0.9519,0.9307,0.9302,0.9302,0.9302,0.9302,0.9302,0.9302,0.9302,0.9302,0.9302,0.0,0.0,0.9302,0.9302,0.9302,0.9291,0.9177,0.8998,0.889,0.884,0.8715,0.8611,0.0,0.0,0.0,0.0,0.0,0.0,0.0,0.0,0.0,0.0,0.8568,0.8524,0.0,0.0,0.0,0.0,0.0,0.0,0.0,0.0,0.0,0.0,0.0,0.0,0.0,0.0,0.0,0.0,0.0,0.0,0.0,0.0,0.0,0.0,0.0,0.0,0.0,0.0,0.0,0.0,0.0,0.0,0.0,0.0,0.0,0.0,0.0,0.0,0.0,0.0,0.7703,0.7997,0.8378,0.8796,0.9226,0.9606,1.0057,1.046,1.0606,1.0764,1.0857,1.0737,1.0378,0.9927,0.9443,0.8894,0.0,0.0,0.7421,0.727,0.71,0.7355,0.7693,0.803,0.8573,0.9008,0.9438,0.9688,0.9927,0.0,1.0095,1.0057,1.0161,1.0079,0.0,0.0,0.0,0.9987,0.9987,1.0008,0.9911,0.9677,0.947,0.9345,0.9302,0.9302,0.9302,0.9302,0.9302,0.9302,0.9302,0.9302,0.9302,0.9302,0.9302,0.0,0.9302,0.9302,0.9302,0.9291,0.9177,0.9052,0.9019,0.8895,0.8845,0.8736,0.0,0.0,0.0,0.0,0.0,0.0,0.0,0.853,0.8682,0.8682,0.8682,0.8638,0.8519,0.8454,0.0,0.0,0.0,0.0,0.0,0.0,0.0,0.0,0.0,0.0,0.0,0.0,0.0,0.0,0.0,0.0,0.0,0.0,0.0,0.0,0.0,0.0,0.0,0.0,0.0,0.0,0.0,0.0,0.0,0.0,0.0,0.0,0.0,0.0,0.0,0.0,0.7812,0.818,0.8475,0.8916,0.9389,0.9807,1.0275,1.0693,1.0878,1.0971,1.0971,1.078,1.0329,0.9769,0.9166,0.0,0.0,0.0,0.7187,0.7051,0.6997,0.7176,0.0,0.7812,0.8269,0.8658,0.915,0.9465,0.0,1.0074,1.0057,1.0068,0.0,1.009,0.0,0.0,0.0,1.0019,1.0019,0.9905,0.9758,0.9579,0.94,0.9302,0.9302,0.9302,0.9302,0.9302,0.9302,0.9302,0.9302,0.9302,0.9302,0.9302,0.9302,0.0,0.9302,0.9302,0.9302,0.9296,0.9242,0.9188,0.9057,0.8998,0.897,0.8867,0.0,0.0,0.0,0.0,0.0,0.0,0.0,0.8541,0.8769,0.8769,0.8791,0.8764,0.8638,0.8524,0.8443,0.0,0.0,0.0,0.0,0.0,0.0,0.0,0.0,0.0,0.0,0.0,0.0,0.0,0.0,0.0,0.0,0.0,0.0,0.0,0.0,0.0,0.0,0.0,0.0,0.0,0.0,0.0,0.0,0.0,0.0,0.0,0.0,0.0,0.0,0.0,0.7763,0.8002,0.8361,0.8856,0.9394,0.9845,1.0318,1.0753,1.0998,1.1063,1.1003,1.0759,1.0248,0.9612,0.8894,0.8426,0.0,0.7298,0.7024,0.6948,0.6948,0.704,0.7292,0.0,0.7964,0.8356,0.8744,0.9182,0.9552,0.0,0.9981,0.0,1.0188,0.0,0.0,0.0,0.0,0.0,0.9981,0.9786,0.9612,0.9492,0.9367,0.9302,0.9302,0.9302,0.9302,0.9302,0.9302,0.9302,0.9302,0.9302,0.9302,0.9302,0.9302,0.0,0.0,0.9302,0.9302,0.9302,0.9302,0.9247,0.9171,0.9171,0.9025,0.8922,0.0,0.0,0.0,0.0,0.0,0.0,0.0,0.8541,0.8769,0.8769,0.8867,0.8889,0.8769,0.8644,0.853,0.0,0.0,0.0,0.0,0.0,0.0,0.0,0.0,0.0,0.0,0.0,0.0,0.0,0.0,0.0,0.0,0.0,0.0,0.0,0.0,0.0,0.0,0.0,0.0,0.0,0.0,0.0,0.0,0.0,0.0,0.0,0.0,0.0,0.0,0.0,0.0,0.7627,0.7992,0.8655,0.9378,0.9748,0.0,0.0,1.0873,1.0938,1.0878,1.0634,1.0123,0.9497,0.8769,0.0,0.772,0.7122,0.6904,0.6817,0.6817,0.6921,0.7116,0.0,0.0,0.8198,0.8568,0.8938,0.934,0.9802,0.0,0.0,0.0,0.0,0.0,0.0,0.0,0.0,0.9862,0.9737,0.9612,0.9492,0.9367,0.9302,0.9302,0.9302,0.9302,0.9302,0.9302,0.9302,0.9302,0.9302,0.9302,0.9302,0.9302,0.0,0.0,0.9302,0.9302,0.9302,0.9302,0.9296,0.9291,0.9291,0.9215,0.9046,0.0,0.0,0.0,0.0,0.0,0.0,0.8172,0.8541,0.8796,0.8867,0.8852,0.8863,0.8883,0.8769,0.8649,0.0,0.0,0.0,0.0,0.0,0.0,0.0,0.0,0.0,0.0,0.0,0.0,0.0,0.0,0.0,0.0,0.0,0.0,0.0,0.0,0.0,0.0,0.0,0.0,0.0,0.0,0.0,0.0,0.0,0.0,0.0,0.0,0.0,0.0,0.0,0.0,0.0,0.7747,0.8171,0.0,0.0,0.9856,1.0302,1.0617,1.0699,1.0661,1.0492,0.9949,0.928,0.8633,0.0,0.76,0.6997,0.6893,0.6888,0.6817,0.6904,0.7078,0.0,0.0,0.0,0.8225,0.0,0.9041,0.9372,0.9541,0.0,0.0,0.0,0.0,0.0,0.0,0.0,0.9845,0.9731,0.9612,0.9492,0.9367,0.9302,0.9302,0.9302,0.9302,0.9302,0.9302,0.9302,0.9302,0.9302,0.9302,0.9302,0.9302,0.0,0.0,0.9302,0.9302,0.9302,0.9302,0.9302,0.9302,0.9302,0.9275,0.9237,0.0,0.0,0.0,0.0,0.0,0.8193,0.8167,0.8508,0.8758,0.8883,0.8857,0.8868,0.8899,0.8823,0.872,0.86,0.0,0.0,0.0,0.0,0.0,0.0,0.0,0.0,0.0,0.0,0.0,0.0,0.0,0.0,0.0,0.0,0.0,0.0,0.0,0.0,0.0,0.0,0.0,0.0,0.0,0.0,0.0,0.0,0.0,0.0,0.0,0.0,0.0,0.0,0.0,0.0,0.0,0.0,0.0,0.0,0.9405,0.9878,1.0204,1.0346,1.0362,1.021,0.9709,0.909,0.0,0.0,0.754,0.6975,0.6926,0.6959,0.6872,0.6926,0.7051,0.0,0.0,0.0,0.0,0.8334,0.8731,0.0,0.0,0.0,0.0,0.0,0.0,0.0,0.0,0.0,0.0,0.9731,0.9612,0.9492,0.9367,0.9302,0.9302,0.9302,0.9302,0.9302,0.9302,0.9302,0.9302,0.9302,0.9302,0.9302,0.0,0.0,0.0,0.9302,0.9302,0.9302,0.9302,0.9302,0.9302,0.9302,0.9302,0.9302,0.0,0.0,0.0,0.0,0.0,0.0,0.8214,0.8437,0.8633,0.8758,0.8878,0.8905,0.8785,0.8774,0.872,0.86,0.0,0.0,0.0,0.0,0.0,0.0,0.0,0.0,0.0,0.0,0.8172,0.8172,0.8172,0.0,0.0,0.0,0.0,0.0,0.0,0.0,0.0,0.0,0.0,0.0,0.0,0.0,0.0,0.0,0.0,0.0,0.0,0.0,0.0,0.0,0.0,0.0,0.0,0.0,0.0,0.0,0.8845,0.9367,0.9612,0.9851,0.997,0.9737,0.9405,0.8948,0.0,0.0,0.7568,0.7084,0.6986,0.6986,0.6986,0.6986,0.7024,0.0,0.0,0.0,0.0,0.0,0.0,0.0,0.0,0.0,0.0,0.0,0.0,0.0,0.0,0.0,0.0,0.9731,0.9612,0.9492,0.9367,0.9302,0.9302,0.9302,0.9302,0.9302,0.9302,0.9302,0.9302,0.9302,0.9302,0.0,0.0,0.0,0.0,0.9302,0.9302,0.9302,0.9302,0.9302,0.9302,0.9302,0.9302,0.9302,0.0,0.0,0.0,0.0,0.0,0.0,0.0,0.8318,0.8513,0.8628,0.8753,0.8812,0.8774,0.8769,0.872,0.86,0.0,0.0,0.0,0.0,0.0,0.0,0.0,0.0,0.0,0.0,0.8475,0.8475,0.8399,0.8361,0.8361,0.8274,0.0,0.0,0.0,0.0,0.0,0.0,0.0,0.0,0.0,0.0,0.0,0.0,0.0,0.0,0.0,0.0,0.0,0.0,0.0,0.0,0.0,0.0,0.0,0.0,0.0,0.0,0.8992,0.9171,0.9203,0.9198,0.8845,0.8416,0.8019,0.7682,0.7361,0.7051,0.7046,0.7133,0.6997,0.7051,0.7166,0.7204,0.0,0.0,0.0,0.0,0.0,0.0,0.0,0.0,0.0,0.0,0.0,0.0,0.0,0.0,0.0,0.9731,0.9612,0.9492,0.9367,0.9302,0.9302,0.9302,0.9302,0.9302,0.9302,0.9302,0.9302,0.9302,0.0,0.0,0.0,0.0,0.0,0.9302,0.9302,0.9302,0.9302,0.9302,0.9302,0.9302,0.9302,0.9302,0.0,0.0,0.0,0.0,0.0,0.0,0.0,0.8182,0.8339,0.8503,0.859,0.8655,0.8698,0.8704,0.8671,0.8595,0.0,0.0,0.0,0.0,0.0,0.0,0.0,0.0,0.0,0.859,0.859,0.859,0.8519,0.8481,0.8481,0.8405,0.8345,0.8301,0.0,0.0,0.0,0.0,0.0,0.0,0.0,0.0,0.7872,0.0,0.0,0.0,0.0,0.0,0.0,0.0,0.0,0.0,0.0,0.0,0.0,0.0,0.0,0.0,0.0,0.8552,0.8604,0.8622,0.8356,0.0,0.0,0.7529,0.7279,0.7089,0.7161,0.7188,0.7117,0.7161,0.721,0.721,0.0,0.0,0.0,0.0,0.0,0.0,0.0,0.0,0.0,0.0,0.0,0.0,0.0,0.0,0.0,0.9666,0.9546,0.9421,0.9345,0.9302,0.9302,0.9302,0.9302,0.9302,0.9302,0.9302,0.9302,0.9302,0.0,0.0,0.0,0.0,0.0,0.9302,0.9302,0.9302,0.9302,0.9302,0.9302,0.9302,0.9302,0.9302,0.0,0.0,0.0,0.0,0.0,0.0,0.0,0.8108,0.8196,0.8361,0.8405,0.8459,0.8562,0.8584,0.859,0.859,0.0,0.0,0.0,0.0,0.0,0.0,0.0,0.0,0.0,0.859,0.859,0.859,0.859,0.859,0.859,0.859,0.853,0.8432,0.8421,0.8356,0.8183,0.8178,0.8176,0.8141,0.8125,0.8048,0.0,0.0,0.0,0.0,0.0,0.0,0.0,0.0,0.0,0.0,0.0,0.0,0.0,0.0,0.0,0.0,0.0,0.0,0.0,0.0,0.0,0.0,0.0,0.0,0.0,0.7232,0.721,0.721,0.721,0.721,0.721,0.0,0.0,0.0,0.0,0.0,0.0,0.0,0.0,0.0,0.0,0.0,0.0,0.0,0.0,0.0,0.0,0.9546,0.9432,0.9307,0.9302,0.9302,0.9302,0.9302,0.9302,0.9302,0.9302,0.9302,0.9302,0.9302,0.0,0.0,0.0,0.0,0.0,0.9302,0.9302,0.9302,0.9302,0.9302,0.9302,0.9302,0.9302,0.9302,0.0,0.0,0.0,0.0,0.0,0.0,0.0,0.0,0.0,0.0,0.8301,0.8426,0.8454,0.8535,0.859,0.0,0.0,0.0,0.0,0.0,0.0,0.0,0.0,0.0,0.0,0.859,0.859,0.859,0.859,0.859,0.859,0.859,0.8573,0.8546,0.8454,0.8405,0.8367,0.8274,0.8274,0.8318,0.8191,0.8097,0.0,0.0,0.0,0.0,0.7731,0.7606,0.0,0.0,0.0,0.0,0.0,0.0,0.0,0.0,0.7232,0.0,0.0,0.0,0.0,0.0,0.0,0.0,0.0,0.0,0.0,0.0,0.0,0.0,0.0,0.0,0.0,0.0,0.0,0.0,0.0,0.0,0.0,0.0,0.0,0.0,0.0,0.0,0.0,0.0,0.0,0.0,0.0,0.9503,0.9432,0.9307,0.9302,0.9302,0.9302,0.9302,0.9302,0.9302,0.9302,0.9302,0.9302,0.9302,0.0,0.0,0.0,0.0,0.9302,0.9302,0.9302,0.9302,0.9302,0.9302,0.9302,0.9302,0.9302,0.9302,0.0,0.0,0.0,0.0,0.0,0.0,0.0,0.0,0.0,0.0,0.0,0.0,0.0,0.0,0.0,0.0,0.0,0.0,0.0,0.0,0.0,0.0,0.0,0.0,0.859,0.859,0.859,0.859,0.8644,0.8671,0.8671,0.8671,0.8671,0.8666,0.8546,0.8497,0.8492,0.8426,0.8405,0.8399,0.8214,0.0,0.0,0.0,0.0,0.0,0.7801,0.7665,0.0,0.7442,0.7301,0.721,0.0,0.0,0.0,0.0,0.721,0.0,0.0,0.0,0.0,0.0,0.0,0.0,0.0,0.0,0.0,0.0,0.0,0.0,0.0,0.0,0.0,0.0,0.7339,0.0,0.0,0.0,0.0,0.0,0.0,0.0,0.0,0.0,0.0,0.0,0.0,0.0,0.0,0.9432,0.9372,0.9307,0.9302,0.9302,0.9302,0.9302,0.9302,0.9302,0.9302,0.9302,0.9302,0.9302,0.9302,0.0,0.0,0.0,0.9302,0.9302,0.9302,0.9302,0.9302,0.9302,0.9302,0.9302,0.9302,0.9302,0.0,0.0,0.0,0.0,0.0,0.0,0.0,0.0,0.0,0.0,0.0,0.0,0.0,0.0,0.0,0.0,0.0,0.0,0.0,0.0,0.0,0.0,0.0,0.859,0.859,0.859,0.8595,0.8617,0.872,0.878,0.8796,0.8796,0.8791,0.8764,0.8644,0.859,0.859,0.859,0.853,0.8432,0.8312,0.0,0.0,0.0,0.0,0.0,0.0,0.0,0.0,0.7519,0.7355,0.721,0.721,0.0,0.0,0.0,0.0,0.0,0.0,0.0,0.0,0.0,0.0,0.0,0.0,0.0,0.0,0.0,0.0,0.0,0.0,0.7226,0.0,0.0,0.0,0.0,0.0,0.0,0.0,0.0,0.0,0.0,0.0,0.0,0.0,0.0,0.0,0.0,0.0,0.9362,0.9302,0.9302,0.9302,0.9302,0.9302,0.9302,0.9302,0.9302,0.9302,0.9302,0.9302,0.9302,0.9302,0.0,0.0,0.0,0.9302,0.9302,0.9302,0.9302,0.9302,0.9302,0.9302,0.9302,0.9302,0.9302,0.0,0.0,0.0,0.0,0.0,0.0,0.0,0.0,0.0,0.0,0.0,0.0,0.0,0.0,0.0,0.0,0.0,0.0,0.0,0.0,0.0,0.0,0.859,0.859,0.859,0.859,0.8638,0.8742,0.8758,0.8823,0.8852,0.8852,0.8867,0.8764,0.8644,0.859,0.859,0.859,0.8579,0.8552,0.8437,0.0,0.0,0.0,0.0,0.0,0.0,0.0,0.0,0.7519,0.7355,0.721,0.721,0.0,0.0,0.0,0.0,0.0,0.721,0.721,0.721,0.721,0.0,0.0,0.0,0.0,0.0,0.0,0.0,0.0,0.0,0.7236,0.735,0.0,0.0,0.0,0.0,0.0,0.0,0.0,0.0,0.0,0.0,0.0,0.0,0.0,0.0,0.0,0.0,0.9313,0.9302,0.9302,0.9302,0.9302,0.9302,0.9302,0.9302,0.9302,0.9302,0.9302,0.9302,0.9302,0.9302,0.0,0.0,0.9302,0.9302,0.9302,0.9302,0.9302,0.9302,0.9302,0.9302,0.9302,0.9302,0.9302,0.0,0.0,0.0,0.0,0.0,0.0,0.0,0.0,0.0,0.0,0.0,0.0,0.0,0.0,0.0,0.0,0.0,0.0,0.0,0.0,0.0,0.859,0.859,0.859,0.859,0.8649,0.8715,0.8769,0.8899,0.8997,0.8976,0.8911,0.8889,0.8764,0.8644,0.859,0.859,0.859,0.859,0.8579,0.0,0.0,0.0,0.0,0.0,0.0,0.0,0.0,0.0,0.0,0.7399,0.7241,0.7232,0.0,0.0,0.0,0.0,0.0,0.721,0.721,0.721,0.721,0.0,0.0,0.0,0.0,0.0,0.0,0.0,0.0,0.0,0.0,0.7616,0.7867,0.0,0.0,0.0,0.0,0.0,0.0,0.0,0.0,0.0,0.0,0.0,0.0,0.0,0.0,0.0,0.0,0.9302,0.9302,0.9302,0.9302,0.9302,0.9302,0.9302,0.9302,0.9302,0.9302,0.9302,0.9302,0.9302,0.9302,0.0,0.9302,0.9302,0.9302,0.9302,0.9302,0.9302,0.9302,0.9302,0.9302,0.9302,0.9302,0.0,0.0,0.0,0.0,0.0,0.0,0.0,0.0,0.0,0.0,0.0,0.0,0.0,0.0,0.0,0.0,0.0,0.0,0.0,0.0,0.859,0.859,0.859,0.86,0.8628,0.872,0.8796,0.8856,0.9041,0.9133,0.9133,0.8938,0.8889,0.8764,0.8644,0.859,0.859,0.859,0.859,0.8579,0.0,0.0,0.0,0.0,0.0,0.0,0.0,0.0,0.0,0.0,0.0,0.0,0.0,0.0,0.0,0.0,0.721,0.721,0.721,0.721,0.721,0.721,0.0,0.0,0.0,0.0,0.0,0.0,0.0,0.0,0.0,0.0,0.0,0.0,0.0,0.0,0.0,0.0,0.0,0.0,0.0,0.0,0.0,0.0,0.0,0.0,0.0,0.0,0.0,0.0,0.9302,0.9302,0.9302,0.9291,0.9264,0.9264,0.9275,0.9302,0.9302,0.9291,0.9264,0.9264,0.9264,0.9264,0.9264,0.928,0.9302,0.9302,0.9302,0.9302,0.9302,0.9302,0.9302,0.9302,0.9302,0.9302,0.0,0.0,0.0,0.0,0.0,0.0,0.0,0.0,0.0,0.0,0.0,0.0,0.0,0.0,0.0,0.0,0.0,0.0,0.0,0.0,0.859,0.859,0.859,0.8638,0.8753,0.8764,0.8883,0.9106,0.9128,0.9133,0.9133,0.8938,0.8889,0.8764,0.8644,0.859,0.859,0.859,0.859,0.8584,0.8579,0.0,0.0,0.0,0.0,0.0,0.0,0.0,0.0,0.0,0.0,0.0,0.0,0.0,0.0,0.0,0.0,0.721,0.721,0.721,0.721,0.721,0.721,0.0,0.7296,0.7266,0.0,0.7481,0.0,0.0,0.0,0.0,0.0,0.0,0.0,0.0,0.0,0.0,0.0,0.0,0.0,0.0,0.0,0.0,0.0,0.0,0.0,0.0,0.0,0.0,0.0,0.9302,0.9302,0.9253,0.915,0.915,0.9198,0.9302,0.9302,0.9247,0.915,0.915,0.915,0.915,0.915,0.9204,0.9302,0.9302,0.9302,0.9302,0.9302,0.9302,0.9302,0.9302,0.9302,0.9302,0.0,0.0,0.0,0.0,0.0,0.0,0.0,0.0,0.0,0.0,0.0,0.0,0.0,0.0,0.0,0.0,0.0,0.0,0.0,0.0,0.859,0.859,0.859,0.8682,0.8878,0.8883,0.8965,0.9133,0.9204,0.9204,0.9133,0.8938,0.8889,0.8764,0.8644,0.859,0.859,0.859,0.859,0.859,0.859,0.8519,0.0,0.0,0.0,0.0,0.0,0.0,0.0,0.0,0.0,0.0,0.0,0.0,0.0,0.0,0.0,0.721,0.721,0.721,0.721,0.721,0.7214,0.0,0.0,0.7453,0.7595,0.7714,0.7801,0.0,0.0,0.0,0.0,0.0,0.0,0.0,0.0,0.0,0.0,0.0,0.0,0.0,0.0,0.0,0.0,0.0,0.0,0.0,0.0,0.0,0.0,0.9198,0.9122,0.8992,0.8949,0.8949,0.8971,0.9084,0.9084,0.8992,0.8949,0.8949,0.8949,0.8954,0.903,0.916,0.9204,0.9275,0.9302,0.9302,0.9302,0.9302,0.9302,0.9302,0.9302,0.9302,0.0,0.0,0.0,0.0,0.0,0.0,0.0,0.0,0.0,0.0,0.0,0.0,0.0,0.0,0.0,0.0,0.0,0.0,0.0,0.859,0.859,0.859,0.859,0.8682,0.8889,0.8894,0.8992,0.9188,0.9264,0.9226,0.9003,0.8922,0.8867,0.8709,0.8628,0.859,0.859,0.859,0.859,0.859,0.859,0.8541,0.0,0.0,0.0,0.0,0.0,0.0,0.0,0.0,0.0,0.0,0.0,0.0,0.0,0.0,0.0,0.0,0.721,0.721,0.7221,0.7203,0.0,0.0,0.7486,0.7633,0.7812,0.8002,0.8111,0.0,0.0,0.0,0.0,0.0,0.0,0.0,0.0,0.0,0.0,0.0,0.0,0.0,0.0,0.0,0.0,0.0,0.0,0.0,0.0,0.0,0.0,0.0,0.8927,0.8863,0.8894,0.8894,0.8872,0.8834,0.8834,0.8856,0.8894,0.8894,0.8894,0.8899,0.8981,0.9063,0.9139,0.922,0.9269,0.9302,0.9302,0.9302,0.9302,0.9302,0.9302,0.9302,0.0,0.0,0.0,0.0,0.0,0.0,0.0,0.0,0.0,0.0,0.0,0.0,0.0,0.0,0.0,0.0,0.0,0.0,0.859,0.859,0.859,0.859,0.859,0.8644,0.8769,0.8774,0.8948,0.9302,0.9302,0.9182,0.8879,0.8879,0.8818,0.859,0.859,0.859,0.859,0.859,0.859,0.859,0.859,0.859,0.8562,0.0,0.0,0.0,0.0,0.0,0.0,0.0,0.0,0.0,0.0,0.0,0.0,0.0,0.721,0.721,0.721,0.721,0.7237,0.0,0.0,0.0,0.7818,0.7877,0.7981,0.835,0.0,0.8421,0.8421,0.0,0.0,0.0,0.0,0.0,0.0,0.0,0.0,0.0,0.0,0.0,0.0,0.0,0.0,0.0,0.0,0.0,0.0,0.0,0.0,0.0,0.8879,0.8889,0.8769,0.8769,0.8709,0.859,0.859,0.8649,0.8769,0.8769,0.8769,0.8769,0.8769,0.8905,0.9133,0.9133,0.9204,0.9302,0.9302,0.9302,0.9302,0.9302,0.9302,0.9302,0.0,0.0,0.0,0.0,0.0,0.0,0.0,0.0,0.0,0.0,0.0,0.0,0.0,0.0,0.0,0.0,0.0,0.0,0.859,0.859,0.859,0.859,0.859,0.8644,0.8769,0.8856,0.8948,0.8987,0.9144,0.9063,0.8823,0.8823,0.8736,0.859,0.859,0.859,0.859,0.859,0.859,0.859,0.859,0.8541,0.8448,0.0,0.0,0.0,0.0,0.0,0.0,0.0,0.0,0.0,0.0,0.0,0.0,0.0,0.721,0.721,0.721,0.721,0.0,0.7307,0.0,0.0,0.0,0.8133,0.0,0.0,0.8722,0.8722,0.8722,0.0,0.0,0.0,0.0,0.0,0.0,0.0,0.0,0.0,0.0,0.0,0.0,0.0,0.0,0.0,0.0,0.0,0.0,0.0,0.0,0.0,0.8742,0.8677,0.8644,0.8644,0.8622,0.859,0.859,0.8606,0.8644,0.8644,0.8644,0.8644,0.8731,0.8861,0.8949,0.9188,0.9275,0.9302,0.9302,0.9302,0.9302,0.9302,0.9302,0.9302,0.0,0.0,0.0,0.0,0.0,0.0,0.0,0.0,0.0,0.0,0.0,0.0,0.0,0.0,0.0,0.0,0.0,0.0,0.0,0.0,0.859,0.859,0.859,0.8622,0.8698,0.8818,0.8856,0.8807,0.8911,0.8959,0.8769,0.8769,0.8704,0.859,0.859,0.859,0.859,0.859,0.859,0.859,0.859,0.8519,0.8405,0.0,0.0,0.0,0.0,0.0,0.0,0.0,0.0,0.0,0.0,0.0,0.0,0.721,0.721,0.721,0.721,0.7243,0.0,0.7377,0.7589,0.7867,0.8317,0.0,0.0,0.0,0.0,0.8938,0.0,0.0,0.0,0.0,0.0,0.0,0.0,0.0,0.0,0.0,0.0,0.0,0.0,0.0,0.0,0.0,0.0,0.0,0.0,0.0,0.0,0.0,0.8628,0.859,0.859,0.859,0.859,0.859,0.859,0.859,0.859,0.859,0.859,0.8595,0.8715,0.884,0.8895,0.9155,0.9264,0.9302,0.9302,0.9302,0.9302,0.9302,0.9302,0.9302,0.0,0.0,0.0,0.0,0.0,0.0,0.0,0.0,0.0,0.0,0.0,0.0,0.0,0.0,0.0,0.0,0.0,0.0,0.0,0.0,0.859,0.859,0.859,0.859,0.859,0.8698,0.8698,0.859,0.8823,0.8872,0.8753,0.8753,0.8693,0.859,0.859,0.859,0.859,0.859,0.8584,0.8573,0.8573,0.8497,0.8372,0.8258,0.0,0.0,0.0,0.0,0.0,0.0,0.0,0.0,0.0,0.0,0.721,0.721,0.721,0.721,0.721,0.0,0.0,0.7486,0.7714,0.0,0.8655,0.8872,0.889,0.8911,0.0,0.0,0.0,0.0,0.0,0.0,0.0,0.0,0.0,0.0,0.0,0.0,0.0,0.0,0.0,0.0,0.0,0.0,0.0,0.0,0.0,0.0,0.0,0.0,0.8557,0.8557,0.8557,0.8557,0.8557,0.0,0.8568,0.8573,0.8573,0.8584,0.859,0.8595,0.8715,0.8834,0.8879,0.9008,0.9193,0.9291,0.9302,0.9302,0.9302,0.9302,0.9302,0.9302,0.0,0.0,0.0,0.0,0.0,0.0,0.0,0.0,0.0,0.0,0.0,0.0,0.0,0.0,0.0,0.0,0.0,0.0,0.0,0.0,0.859,0.859,0.859,0.859,0.859,0.8611,0.8611,0.859,0.8736,0.8747,0.8628,0.8628,0.8611,0.859,0.859,0.859,0.859,0.859,0.8535,0.8454,0.8454,0.8323,0.8127,0.81,0.8019,0.0,0.0,0.0,0.0,0.0,0.0,0.0,0.7486,0.7328,0.721,0.721,0.721,0.721,0.0,0.7241,0.0,0.0,0.7839,0.8291,0.8796,0.8863,0.8933,0.9188,0.0,0.0,0.0,0.0,0.0,0.0,0.0,0.0,0.0,0.0,0.0,0.0,0.0,0.0,0.0,0.0,0.0,0.0,0.0,0.0,0.0,0.0,0.0,0.8312,0.8312,0.8312,0.8312,0.8312,0.8312,0.0,0.841,0.8454,0.8459,0.8546,0.859,0.8595,0.8715,0.8785,0.8829,0.9046,0.915,0.9182,0.9269,0.9302,0.9302,0.9302,0.9302,0.9302,0.0,0.0,0.0,0.0,0.0,0.0,0.0,0.0,0.0,0.0,0.0,0.0,0.0,0.0,0.0,0.0,0.0,0.0,0.0,0.0,0.0,0.859,0.859,0.859,0.859,0.859,0.859,0.859,0.8649,0.8649,0.859,0.859,0.859,0.859,0.859,0.859,0.8584,0.853,0.847,0.841,0.8356,0.822,0.8114,0.8114,0.8037,0.7872,0.7872,0.0,0.0,0.0,0.0,0.0,0.0,0.0,0.721,0.721,0.721,0.0,0.0,0.0,0.0,0.7703,0.0,0.8416,0.878,0.891,0.8917,0.0,0.0,0.0,0.0,0.0,0.0,0.0,0.0,0.0,0.0,0.0,0.0,0.0,0.0,0.0,0.0,0.0,0.0,0.0,0.0,0.0,0.0,0.8172,0.8172,0.8172,0.8172,0.8172,0.8172,0.8172,0.8172,0.8172,0.8301,0.8361,0.8421,0.8535,0.859,0.859,0.8655,0.8715,0.878,0.8905,0.903,0.9139,0.9198,0.9258,0.9302,0.9302,0.9302,0.9302,0.0,0.0,0.0,0.0,0.0,0.0,0.0,0.0,0.0,0.0,0.0,0.0,0.0,0.0,0.0,0.0,0.0,0.0,0.0,0.0,0.0,0.0,0.859,0.859,0.859,0.859,0.859,0.859,0.859,0.859,0.859,0.859,0.859,0.859,0.859,0.859,0.8579,0.8465,0.8405,0.8378,0.8253,0.8133,0.8086,0.8086,0.8021,0.7872,0.7872,0.7872,0.7872,0.0,0.0,0.0,0.0,0.0,0.721,0.721,0.0,0.0,0.0,0.0,0.747,0.7915,0.8187,0.0,0.8682,0.8818,0.0,0.0,0.0,0.0,0.0,0.0,0.0,0.0,0.0,0.0,0.0,0.0,0.0,0.0,0.0,0.0,0.0,0.0,0.0,0.0,0.0,0.0,0.8171,0.8171,0.8171,0.8171,0.8171,0.8171,0.8171,0.8171,0.8171,0.8171,0.8193,0.8269,0.8388,0.8508,0.8568,0.859,0.859,0.8644,0.8742,0.8764,0.8889,0.9073,0.9117,0.9193,0.9275,0.9296,0.9302,0.9302,0.0,0.0,0.0,0.0,0.0,0.0,0.0,0.0,0.0,0.0,0.0,0.0,0.0,0.0,0.0,0.0,0.0,0.0,0.0,0.0,0.0,0.0,0.859,0.859,0.859,0.859,0.859,0.859,0.859,0.859,0.859,0.859,0.859,0.859,0.859,0.859,0.8579,0.8465,0.8356,0.8247,0.8127,0.8065,0.7955,0.7955,0.7944,0.7872,0.7872,0.7872,0.0,0.0,0.0,0.0,0.0,0.0,0.0,0.0,0.0,0.0,0.0,0.0,0.7557,0.0,0.8065,0.8256,0.0,0.0,0.0,0.0,0.0,0.0,0.0,0.0,0.0,0.0,0.0,0.0,0.0,0.0,0.0,0.0,0.0,0.0,0.0,0.0,0.0,0.0,0.0,0.0,0.7926,0.7921,0.7921,0.7921,0.7921,0.7921,0.7921,0.7921,0.7921,0.7921,0.8024,0.8144,0.8199,0.8383,0.8492,0.859,0.859,0.8595,0.8622,0.8725,0.8791,0.884,0.9052,0.9144,0.9166,0.9269,0.9302,0.9302,0.0,0.0,0.0,0.0,0.0,0.0,0.0,0.0,0.0,0.0,0.0,0.0,0.0,0.0,0.0,0.0,0.0,0.0,0.0,0.0,0.0,0.0,0.859,0.859,0.859,0.859,0.859,0.859,0.859,0.859,0.859,0.866,0.8655,0.859,0.859,0.859,0.8579,0.8394,0.8285,0.822,0.803,0.7982,0.7872,0.0,0.0,0.0,0.0,0.0,0.0,0.0,0.0,0.7611,0.0,0.0,0.0,0.0,0.0,0.0,0.721,0.7285,0.7475,0.0,0.7861,0.803,0.8323,0.0,0.0,0.0,0.0,0.0,0.0,0.0,0.0,0.0,0.0,0.0,0.0,0.0,0.0,0.0,0.0,0.0,0.0,0.0,0.0,0.0,0.0,0.7834,0.778,0.7709,0.7676,0.7676,0.7676,0.7703,0.7774,0.7774,0.7807,0.7872,0.7988,0.8013,0.8133,0.8187,0.8318,0.8497,0.8557,0.859,0.859,0.8644,0.8709,0.8785,0.8965,0.9003,0.915,0.9264,0.9302,0.9302,0.0,0.0,0.0,0.0,0.0,0.0,0.0,0.0,0.0,0.0,0.0,0.0,0.0,0.0,0.0,0.0,0.0,0.0,0.0,0.0,0.0,0.0,0.0,0.859,0.859,0.859,0.859,0.859,0.859,0.859,0.859,0.8682,0.8693,0.8633,0.8633,0.8633,0.8617,0.835,0.8172,0.8151,0.797,0.7872,0.0,0.0,0.0,0.0,0.0,0.0,0.0,0.0,0.0,0.0,0.0,0.0,0.0,0.0,0.0,0.0,0.0,0.0,0.732,0.7562,0.7698,0.7839,0.0,0.0,0.0,0.0,0.0,0.0,0.0,0.0,0.0,0.0,0.0,0.0,0.0,0.0,0.0,0.0,0.0,0.0,0.0,0.0,0.0,0.0,0.0,0.7655,0.7655,0.7568,0.7519,0.7519,0.7519,0.7562,0.7655,0.7687,0.7741,0.7828,0.7856,0.7982,0.807,0.8103,0.8171,0.8378,0.8492,0.8562,0.859,0.859,0.8638,0.8742,0.8894,0.8938,0.9106,0.9253,0.9302,0.9302,0.0,0.0,0.0,0.0,0.0,0.0,0.0,0.0,0.0,0.0,0.0,0.0,0.0,0.0,0.0,0.0,0.0,0.0,0.0,0.0,0.0,0.0,0.0,0.0,0.0,0.859,0.859,0.859,0.859,0.859,0.859,0.8595,0.8655,0.8758,0.8758,0.8758,0.8736,0.8383,0.8172,0.8151,0.797,0.0,0.0,0.0,0.0,0.0,0.0,0.0,0.0,0.0,0.0,0.0,0.0,0.0,0.0,0.0,0.0,0.0,0.0,0.7241,0.0,0.7293,0.0,0.0,0.0,0.0,0.0,0.0,0.0,0.0,0.0,0.0,0.0,0.0,0.0,0.0,0.0,0.0,0.0,0.0,0.0,0.0,0.0,0.0,0.0,0.0,0.0,0.7529,0.7529,0.7524,0.7519,0.7519,0.7519,0.7524,0.7529,0.7644,0.7703,0.7709,0.7818,0.7872,0.7883,0.8065,0.8122,0.8188,0.8372,0.8486,0.859,0.859,0.859,0.8622,0.8793,0.8884,0.8922,0.922,0.9302,0.9302,0.0,0.0,0.0,0.0,0.0,0.0,0.0,0.0,0.0,0.0,0.0,0.0,0.0,0.859,0.859,0.859,0.0,0.0,0.0,0.0,0.0,0.0,0.0,0.0,0.0,0.8513,0.8481,0.8481,0.8399,0.8399,0.8481,0.8552,0.8655,0.8769,0.8687,0.8698,0.8753,0.847,0.8307,0.822,0.8057,0.0,0.0,0.0,0.0,0.0,0.0,0.0,0.0,0.0,0.0,0.0,0.0,0.0,0.0,0.0,0.0,0.0,0.0,0.0,0.0,0.7317,0.7309,0.0,0.0,0.0,0.0,0.0,0.0,0.0,0.0,0.0,0.0,0.0,0.0,0.0,0.0,0.0,0.0,0.0,0.0,0.0,0.0,0.0,0.0,0.0,0.0,0.0,0.7342,0.7328,0.7285,0.7285,0.7285,0.7323,0.7342,0.76,0.7703,0.7703,0.7818,0.7872,0.7872,0.7977,0.8002,0.8127,0.8247,0.841,0.859,0.859,0.859,0.8611,0.8787,0.8884,0.8911,0.9215,0.9302,0.9302,0.0,0.0,0.0,0.0,0.0,0.0,0.0,0.0,0.0,0.0,0.0,0.0,0.0,0.0,0.8984,0.8651,0.859,0.0,0.0,0.0,0.0,0.0,0.0,0.0,0.0,0.0,0.0,0.0,0.8274,0.828,0.8361,0.8432,0.8557,0.8704,0.8584,0.8622,0.8753,0.8519,0.0,0.8285,0.0,0.0,0.7992,0.0,0.0,0.0,0.0,0.0,0.0,0.0,0.0,0.0,0.0,0.0,0.0,0.0,0.0,0.0,0.721,0.0,0.0,0.0,0.0,0.0,0.0,0.0,0.0,0.0,0.0,0.0,0.0,0.0,0.0,0.0,0.0,0.0,0.0,0.0,0.0,0.0,0.0,0.0,0.0,0.0,0.0,0.0,0.0,0.0,0.7274,0.7198,0.721,0.721,0.721,0.7192,0.7274,0.7519,0.7638,0.7644,0.7796,0.7872,0.7872,0.7872,0.7999,0.8125,0.8182,0.835,0.8535,0.8573,0.859,0.8611,0.8787,0.8884,0.8911,0.9215,0.9302,0.9302,0.0,0.0,0.0,0.0,0.0,0.0,0.0,0.0,0.0,0.0,0.0,0.0,0.0,0.0,0.0,0.8717,0.859,0.859,0.859,0.0,0.0,0.0,0.0,0.0,0.0,0.0,0.0,0.0,0.0,0.0,0.0,0.0,0.8356,0.8573,0.8459,0.8541,0.8742,0.0,0.8416,0.8405,0.0,0.8172,0.8172,0.0,0.0,0.0,0.8172,0.816,0.0,0.8119,0.0,0.0,0.0,0.0,0.0,0.0,0.0,0.0,0.0,0.0,0.0,0.0,0.0,0.0,0.0,0.0,0.0,0.0,0.0,0.0,0.0,0.0,0.0,0.0,0.0,0.0,0.0,0.0,0.0,0.0,0.0,0.0,0.0,0.0,0.0,0.0,0.0,0.721,0.721,0.721,0.721,0.721,0.721,0.721,0.721,0.7399,0.7519,0.7524,0.7758,0.7872,0.7872,0.7872,0.7999,0.8119,0.8182,0.8301,0.8421,0.8541,0.859,0.8611,0.8787,0.8884,0.8911,0.9215,0.9302,0.9302,0.0,0.0,0.0,0.0,0.0,0.0,0.0,0.0,0.0,0.0,0.0,0.0,0.8981,0.9027,0.8917,0.8656,0.859,0.859,0.0,0.0,0.0,0.0,0.0,0.0,0.0,0.0,0.0,0.0,0.0,0.0,0.0,0.0,0.0,0.0,0.8301,0.8323,0.8383,0.841,0.0,0.8285,0.8183,0.8172,0.0,0.0,0.0,0.0,0.0,0.8214,0.8171,0.0,0.8092,0.801,0.0,0.0,0.0,0.0,0.0,0.0,0.721,0.0,0.0,0.0,0.0,0.0,0.0,0.0,0.0,0.0,0.0,0.0,0.0,0.0,0.0,0.0,0.0,0.0,0.0,0.0,0.0,0.0,0.0,0.0,0.0,0.0,0.0,0.0,0.7232,0.721,0.721,0.721,0.721,0.721,0.721,0.721,0.721,0.7399,0.7519,0.7524,0.7758,0.7872,0.7872,0.7872,0.7949,0.7993,0.8144,0.8188,0.8301,0.8503,0.859,0.8611,0.8787,0.8884,0.8911,0.9215,0.9302,0.9302,0.0,0.0,0.0,0.0,0.0,0.0,0.0,0.0,0.0,0.0,0.0,0.0,0.9956,0.9117,0.8784,0.925,0.8851,0.0,0.0,0.0,0.859,0.859,0.859,0.8508,0.0,0.0,0.0,0.0,0.0,0.0,0.0,0.0,0.0,0.0,0.0,0.0,0.0,0.0,0.0,0.0,0.8312,0.0,0.0,0.8383,0.8383,0.0,0.0,0.0,0.8291,0.8171,0.803,0.0,0.0,0.0,0.0,0.0,0.0,0.0,0.0,0.0,0.0,0.0,0.0,0.0,0.721,0.721,0.0,0.0,0.0,0.0,0.0,0.0,0.0,0.0,0.0,0.0,0.0,0.0,0.0,0.0,0.0,0.0,0.0,0.0,0.0,0.721,0.721,0.721,0.721,0.721,0.721,0.721,0.721,0.721,0.721,0.7399,0.7519,0.7524,0.7758,0.7872,0.7872,0.7872,0.7872,0.7883,0.8127,0.8172,0.8188,0.8492,0.859,0.8611,0.8787,0.8884,0.8911,0.9215,0.9302,0.9302,0.0,0.0,0.0,0.0,0.0,0.0,0.0,0.0,0.0,0.0,0.0,1.2621,1.1931,1.0146,0.934,1.0133,0.0,0.0,0.0,0.0,0.8917,0.8784,0.8784,0.8607,0.8178,0.0,0.0,0.0,0.0,0.0,0.0,0.0,0.0,0.0,0.0,0.0,0.0,0.0,0.0,0.8378,0.8394,0.8465,0.0,0.0,0.859,0.859,0.859,0.8524,0.8416,0.828,0.8008,0.0,0.0,0.0,0.0,0.0,0.7269,0.0,0.0,0.0,0.0,0.0,0.0,0.0,0.721,0.721,0.721,0.0,0.0,0.0,0.0,0.0,0.0,0.0,0.0,0.0,0.0,0.0,0.0,0.0,0.0,0.0,0.0,0.721,0.721,0.721,0.721,0.721,0.721,0.721,0.721,0.721,0.721,0.721,0.721,0.7399,0.7519,0.7524,0.7758,0.7872,0.7872,0.7872,0.7872,0.7883,0.8117,0.822,0.8253,0.8475,0.8579,0.8611,0.8787,0.8884,0.8911,0.9215,0.9302,0.9302,0.0,0.0,0.0,0.0,0.0,0.0,0.0,0.0,0.0,0.0,0.0,1.2246,1.2278,1.1767,1.1156,0.0,0.0,0.0,0.0,0.0,1.077,0.9908,0.9908,0.9324,0.8242,0.8172,0.0,0.0,0.0,0.0,0.0,0.0,0.0,0.0,0.0,0.0,0.0,0.0,0.0,0.8133,0.8231,0.0,0.8459,0.8552,0.859,0.859,0.859,0.8573,0.8519,0.8307,0.8057,0.7823,0.0,0.0,0.0,0.7513,0.0,0.0,0.0,0.0,0.0,0.0,0.0,0.0,0.721,0.721,0.721,0.0,0.0,0.0,0.0,0.0,0.0,0.0,0.0,0.0,0.0,0.0,0.0,0.0,0.0,0.0,0.0,0.721,0.721,0.721,0.721,0.721,0.721,0.721,0.721,0.721,0.721,0.721,0.721,0.7399,0.7519,0.7524,0.7758,0.7872,0.7872,0.7872,0.7872,0.7877,0.8024,0.8144,0.8183,0.8394,0.8508,0.8611,0.8787,0.8884,0.8911,0.9215,0.9302,0.9302,0.0,0.0,0.0,0.0,0.0,0.0,0.0,0.0,0.0,0.0,0.0,1.1549,1.2239,1.1227,1.0664,0.0,0.0,0.0,0.0,0.0,0.9975,0.9449,0.9383,0.9001,0.8242,0.8172,0.0,0.0,0.0,0.0,0.0,0.0,0.0,0.0,0.0,0.0,0.0,0.0,0.8004,0.813,0.8187,0.0,0.8432,0.8546,0.859,0.859,0.859,0.8513,0.8394,0.8274,0.8073,0.0,0.0,0.7747,0.7687,0.0,0.7524,0.7426,0.0,0.0,0.0,0.7247,0.0,0.0,0.0,0.721,0.721,0.0,0.0,0.0,0.0,0.0,0.0,0.0,0.0,0.0,0.0,0.0,0.0,0.0,0.0,0.0,0.0,0.721,0.721,0.721,0.721,0.721,0.721,0.721,0.721,0.721,0.721,0.721,0.721,0.7399,0.7519,0.7524,0.7758,0.7872,0.7872,0.7872,0.7872,0.7877,0.8065,0.8122,0.8183,0.8367,0.8486,0.8611,0.8787,0.8884,0.8911,0.9215,0.9302,0.9302,0.0,0.0,0.0,0.0,0.0,0.0,0.0,0.0,0.0,0.0,1.179,1.1621,1.262,1.0803,1.0091,1.1511,0.0,0.0,0.0,0.0,0.9449,0.925,0.925,0.887,0.8242,0.8172,0.0,0.0,0.0,0.0,0.0,0.0,0.0,0.0,0.0,0.0,0.0,0.0,0.0,0.813,0.0,0.8329,0.8432,0.8546,0.859,0.8584,0.8562,0.8416,0.8167,0.8209,0.8051,0.7872,0.7872,0.7807,0.0,0.0,0.0,0.0,0.0,0.0,0.0,0.0,0.0,0.7237,0.0,0.0,0.0,0.0,0.0,0.0,0.0,0.0,0.0,0.0,0.0,0.0,0.0,0.0,0.0,0.0,0.0,0.0,0.0,0.721,0.721,0.721,0.721,0.721,0.721,0.721,0.721,0.721,0.721,0.721,0.721,0.7399,0.7519,0.7524,0.7758,0.7872,0.7872,0.7872,0.7872,0.7877,0.8037,0.81,0.8178,0.8339,0.8465,0.8611,0.8829,0.8863,0.8906,0.9193,0.9285,0.9302,1.3693,1.3624,0.0,0.0,0.0,0.0,0.0,0.0,0.0,0.0,0.0,0.0,1.4231,1.2828,1.1606,1.0918,0.0,0.0,1.1762,0.0,0.0,1.1497,1.1431,1.0437,0.8242,0.8172,0.0,0.0,0.0,0.0,0.0,0.0,0.0,0.0,0.7872,0.0,0.0,0.0,0.8103,0.0,0.8307,0.8405,0.0,0.8546,0.859,0.8573,0.8475,0.835,0.822,0.0,0.8043,0.7872,0.0,0.7861,0.785,0.785,0.0,0.0,0.0,0.0,0.0,0.0,0.7271,0.0,0.0,0.0,0.721,0.721,0.0,0.0,0.0,0.0,0.0,0.0,0.0,0.0,0.0,0.0,0.0,0.0,0.0,0.0,0.0,0.0,0.721,0.721,0.721,0.721,0.721,0.721,0.721,0.721,0.721,0.721,0.721,0.7399,0.7519,0.7524,0.7758,0.7872,0.7872,0.7872,0.7872,0.7872,0.7944,0.8024,0.8172,0.8188,0.8388,0.86,0.8736,0.8856,0.89,0.9035,0.922,0.9302,1.3693,1.3693,0.0,0.0,0.0,0.0,0.0,0.0,0.0,0.0,0.0,0.0,0.0,1.2248,1.149,1.1692,0.0,1.1242,0.0,0.0,0.0,0.9975,0.9908,0.9389,0.8242,0.8172,0.0,0.0,0.7872,0.0,0.0,0.0,0.0,0.0,0.7872,0.0,0.7877,0.0,0.8095,0.0,0.0,0.0,0.0,0.8568,0.8546,0.8481,0.8437,0.8291,0.8122,0.0,0.8032,0.0,0.0,0.0,0.0,0.0,0.0,0.0,0.0,0.0,0.0,0.0,0.0,0.0,0.7274,0.0,0.721,0.0,0.0,0.0,0.0,0.0,0.0,0.0,0.0,0.0,0.0,0.0,0.0,0.0,0.0,0.0,0.0,0.0,0.0,0.0,0.0,0.721,0.721,0.721,0.721,0.721,0.721,0.721,0.721,0.7399,0.7519,0.7524,0.7758,0.7872,0.7872,0.7872,0.7872,0.7872,0.7872,0.8008,0.8172,0.8172,0.8372,0.8595,0.8644,0.878,0.8895,0.9019,0.9204,0.9302,1.3693,0.0,0.0,0.0,0.0,0.0,0.0,0.0,0.0,0.0,0.0,0.0,1.3228,1.1775,0.0,0.0,1.0819,1.0567,0.0,0.0,1.0019,0.9516,0.9183,0.8804,0.8242,0.8172,0.0,0.0,0.0,0.0,0.0,0.0,0.0,0.0,0.0,0.7949,0.7988,0.0,0.8176,0.8296,0.8416,0.8513,0.859,0.859,0.8519,0.8416,0.8378,0.8231,0.8108,0.8075,0.8004,0.0,0.7872,0.0,0.0,0.0,0.0,0.0,0.7872,0.0,0.0,0.0,0.0,0.0,0.0,0.0,0.0,0.0,0.0,0.0,0.0,0.0,0.0,0.0,0.0,0.0,0.0,0.0,0.0,0.0,0.0,0.0,0.0,0.0,0.0,0.0,0.7182,0.7177,0.721,0.721,0.721,0.721,0.721,0.721,0.721,0.7399,0.7519,0.7524,0.7758,0.7872,0.7872,0.7872,0.7872,0.7872,0.7872,0.8008,0.8172,0.8172,0.8372,0.859,0.859,0.8736,0.8895,0.8981,0.9177,0.9302,1.3693,1.3693,0.0,0.0,0.0,0.0,0.0,0.0,0.0,0.0,0.0,0.0,0.0,0.0,0.0,0.0,0.0,0.9785,1.1752,0.0,1.0793,0.0,0.0,0.952,0.0,0.0,0.0,0.0,0.0,0.0,0.0,0.0,0.0,0.0,0.0,0.7999,0.8119,0.8176,0.8301,0.8421,0.8535,0.8584,0.859,0.0,0.8519,0.8405,0.8285,0.0,0.0,0.7977,0.7872,0.0,0.0,0.0,0.0,0.0,0.0,0.0,0.0,0.0,0.0,0.7731,0.0,0.0,0.0,0.0,0.7296,0.0,0.0,0.0,0.0,0.0,0.0,0.0,0.0,0.0,0.0,0.0,0.0,0.0,0.0,0.0,0.0,0.0,0.0,0.7199,0.7051,0.704,0.7204,0.721,0.721,0.721,0.721,0.721,0.721,0.7399,0.7519,0.7524,0.7758,0.7872,0.7872,0.7872,0.7872,0.7872,0.7872,0.8008,0.8172,0.8172,0.8372,0.859,0.859,0.8736,0.8884,0.8884,0.9106,0.9302,0.0,0.0,0.0,0.0,0.0,0.0,0.0,1.461,0.0,0.0,1.4446,0.0,0.0,1.173,1.125,0.0,0.0,1.0509,1.1235,1.0754,0.0,0.0,0.0,0.891,0.0,0.0,0.0,0.0,0.0,0.0,0.0,0.0,0.0,0.0,0.0,0.7999,0.0,0.0,0.0,0.0,0.0,0.859,0.8579,0.0,0.0,0.828,0.816,0.8035,0.0,0.7883,0.7872,0.7872,0.7872,0.7872,0.7872,0.7872,0.7872,0.0,0.0,0.0,0.7861,0.7823,0.0,0.0,0.0,0.0,0.0,0.0,0.0,0.0,0.0,0.0,0.0,0.0,0.0,0.0,0.0,0.0,0.0,0.0,0.0,0.0,0.0,0.0,0.0,0.6926,0.6959,0.7002,0.0,0.7166,0.721,0.721,0.721,0.721,0.721,0.7399,0.7519,0.7524,0.7758,0.7872,0.7872,0.7872,0.7872,0.7877,0.8021,0.8084,0.8178,0.8323,0.8448,0.859,0.859,0.8736,0.8884,0.8884,0.9101,0.9302,1.3693,0.0,0.0,0.0,0.0,0.0,0.0,0.0,0.0,0.0,1.3902,0.0,1.2989,0.0,1.1639,0.0,1.1148,1.0721,1.1534,1.0518,0.0,0.9992,0.9165,0.0,0.0,0.0,0.0,0.0,0.0,0.8238,0.0,0.0,0.0,0.0,0.0,0.7999,0.8125,0.8182,0.8307,0.0,0.0,0.859,0.0,0.0,0.8301,0.822,0.0,0.8037,0.7872,0.7872,0.7872,0.7872,0.7872,0.7872,0.7872,0.7872,0.7872,0.7872,0.7872,0.7872,0.0,0.7872,0.7818,0.0,0.7709,0.0,0.0,0.0,0.0,0.0,0.0,0.0,0.0,0.0,0.0,0.0,0.0,0.0,0.0,0.0,0.0,0.0,0.0,0.0,0.6888,0.6806,0.6877,0.6937,0.0,0.0,0.721,0.721,0.721,0.7232,0.722,0.7415,0.754,0.7584,0.778,0.7872,0.7872,0.7872,0.7872,0.7877,0.8065,0.8122,0.8183,0.8367,0.8486,0.859,0.8633,0.8774,0.8884,0.8884,0.9101,0.9302,0.0,0.0,0.0,0.0,1.3873,0.0,0.0,0.0,1.3713,0.0,1.3451,1.3637,1.5362,1.3144,1.2107,1.3714,1.1208,1.0401,1.2352,1.0345,0.0,0.0,0.9924,0.8666,0.8443,0.0,0.0,0.0,0.0,0.0,0.0,0.0,0.0,0.0,0.7933,0.0,0.8125,0.8182,0.8312,0.8437,0.8546,0.8584,0.8552,0.8323,0.8167,0.8209,0.8089,0.8032,0.7872,0.7872,0.7872,0.7872,0.7872,0.7872,0.7872,0.7872,0.7872,0.7872,0.7872,0.7872,0.7872,0.7872,0.0,0.0,0.0,0.0,0.7644,0.0,0.0,0.0,0.0,0.0,0.0,0.0,0.0,0.0,0.0,0.0,0.0,0.0,0.0,0.0,0.0,0.6872,0.6796,0.6785,0.6796,0.0,0.0,0.0,0.721,0.721,0.7215,0.722,0.7277,0.7464,0.7584,0.7703,0.7818,0.7872,0.7872,0.7872,0.7872,0.7949,0.807,0.8133,0.8188,0.8378,0.8492,0.86,0.872,0.8851,0.889,0.8895,0.9111,0.9302,1.3693,1.3693,1.374,0.0,1.3977,1.4137,0.0,0.0,0.0,0.0,1.4547,1.4625,1.44,1.3637,1.2986,1.2644,1.174,0.0,0.0,0.0,0.0,0.9888,0.9211,0.8742,0.8682,0.9358,0.0,0.926,0.0,0.0,1.0058,0.0,0.0,0.0,0.0,0.0,0.8125,0.8182,0.8356,0.8546,0.8579,0.8535,0.0,0.0,0.8182,0.8084,0.7964,0.796,0.7872,0.7872,0.7872,0.7872,0.7872,0.7872,0.7872,0.7872,0.7872,0.7872,0.7872,0.7872,0.7872,0.7872,0.7872,0.7861,0.0,0.0,0.0,0.0,0.0,0.0,0.0,0.0,0.0,0.0,0.0,0.0,0.0,0.0,0.0,0.0,0.0,0.0,0.6866,0.6823,0.6725,0.6545,0.6698,0.0,0.0,0.0,0.0,0.721,0.7241,0.7301,0.7277,0.7546,0.7671,0.7703,0.7818,0.7872,0.7872,0.7872,0.7982,0.8075,0.8138,0.8258,0.8378,0.8497,0.8562,0.86,0.872,0.8899,0.9025,0.9182,0.9253,0.9302,1.3693,0.0,0.0,1.4109,0.0,0.0,1.4733,1.4962,0.0,1.4686,1.4539,0.0,1.4789,1.4129,1.3712,1.3796,1.2979,0.0,1.2054,0.0,0.0,1.0619,0.9504,0.8823,0.8774,0.9388,0.0,0.906,0.0,0.0,0.9511,0.0,0.0,0.0,0.0,0.7971,0.8048,0.816,0.8339,0.8519,0.8568,0.0,0.0,0.828,0.816,0.8103,0.7977,0.7872,0.7872,0.7872,0.7872,0.7872,0.7872,0.7872,0.7872,0.7872,0.7872,0.7872,0.7872,0.7872,0.7872,0.7872,0.7872,0.7872,0.7872,0.7872,0.7839,0.0,0.0,0.0,0.0,0.0,0.0,0.0,0.0,0.0,0.0,0.0,0.0,0.0,0.0,0.0,0.6899,0.6834,0.6747,0.6605,0.0,0.0,0.0,0.0,0.0,0.721,0.7274,0.7304,0.7415,0.7606,0.7725,0.7774,0.7839,0.7872,0.7872,0.7872,0.7999,0.8125,0.8182,0.8301,0.8426,0.8541,0.859,0.8606,0.878,0.8997,0.9215,0.928,0.9302,0.9302,0.0,0.0,0.0,0.0,0.0,0.0,0.0,1.4898,0.0,1.4924,0.0,1.4541,1.5974,1.4988,1.4639,1.5836,0.0,1.4026,1.4728,1.2728,1.1787,1.234,1.0271,0.9038,0.8796,0.94,0.9252,0.0,0.0,0.0,0.0,0.0,0.0,0.0,0.0,0.0,0.0,0.8138,0.8307,0.8426,0.8541,0.8519,0.8405,0.8301,0.8176,0.8103,0.7993,0.7883,0.7872,0.7872,0.7872,0.7872,0.7872,0.7872,0.7872,0.7872,0.7872,0.7872,0.7872,0.7872,0.7872,0.7872,0.7872,0.7872,0.7872,0.7872,0.7845,0.7741,0.7709,0.7638,0.0,0.0,0.0,0.0,0.0,0.0,0.0,0.0,0.0,0.0,0.0,0.0,0.0,0.6899,0.0,0.0,0.0,0.0,0.0,0.0,0.0,0.0,0.7296,0.0,0.754,0.0,0.7774,0.7872,0.7872,0.7872,0.7872,0.7888,0.8026,0.8147,0.8204,0.8329,0.8448,0.8546,0.8606,0.8655,0.8814,0.9111,0.9302,0.9302,0.9302,0.9302,0.0,0.0,0.0,0.0,0.0,1.5564,1.5914,1.6084,1.6267,1.6647,1.6681,1.6919,1.7312,1.7002,1.6504,1.5913,1.5496,0.0,0.0,0.0,0.0,1.1357,1.0735,0.9902,0.8921,0.9449,0.9627,0.0,0.0,0.0,0.0,0.0,0.0,0.0,0.0,0.0,0.8092,0.8176,0.0,0.8426,0.8541,0.8519,0.8416,0.8394,0.8247,0.8114,0.8092,0.8021,0.7872,0.7872,0.7872,0.7872,0.7872,0.7872,0.7872,0.7872,0.7872,0.7872,0.7872,0.7872,0.7872,0.7872,0.7872,0.7872,0.7872,0.7872,0.7867,0.7845,0.7769,0.7687,0.7644,0.0,0.0,0.0,0.0,0.0,0.0,0.0,0.0,0.0,0.0,0.0,0.0,0.0,0.0,0.0,0.0,0.0,0.0,0.0,0.0,0.0,0.0,0.0,0.0,0.0,0.785,0.7872,0.7872,0.7872,0.7872,0.8037,0.8089,0.8209,0.8334,0.8454,0.8557,0.8579,0.8704,0.8836,0.8976,0.9188,0.9302,0.9302,0.9302,0.9302,0.0,0.0,0.0,0.0,0.0,0.0,0.0,1.6604,0.0,1.6253,1.6915,1.6919,1.5769,1.6162,1.5991,1.4841,1.4613,1.4171,1.3252,1.2564,1.183,1.1038,1.0193,0.0,0.8884,0.8936,0.8933,0.8933,0.0,0.0,0.0,0.0,0.0,0.0,0.0,0.7966,0.0,0.0,0.0,0.8339,0.8513,0.8519,0.8416,0.8416,0.8307,0.8138,0.8141,0.8075,0.8021,0.7955,0.7872,0.7872,0.7872,0.7872,0.7872,0.7872,0.7872,0.7872,0.7872,0.7872,0.7872,0.7872,0.7872,0.7872,0.7872,0.7872,0.7872,0.7872,0.7828,0.7769,0.7714,0.7551,0.0,0.0,0.0,0.0,0.0,0.0,0.0,0.0,0.0,0.0,0.0,0.0,0.0,0.0,0.0,0.0,0.0,0.0,0.0,0.0,0.0,0.0,0.0,0.0,0.0,0.8026,0.803,0.8062,0.8062,0.8122,0.8214,0.8334,0.8394,0.8481,0.8595,0.8655,0.8823,0.8981,0.9041,0.9204,0.9302,0.9302,0.9302,0.9302,0.0,1.5337,0.0,0.0,1.6037,0.0,1.6585,1.6934,1.6795,1.5891,1.6706,1.6577,1.4337,1.5028,1.5089,1.3746,1.355,1.3386,1.3193,1.2251,1.1464,1.1031,0.9918,0.9157,0.8884,0.8442,0.8199,0.0,0.0,0.0,0.0,0.0,0.0,0.0,0.0,0.0,0.0,0.0,0.8188,0.8291,0.8503,0.8535,0.8454,0.8454,0.8378,0.8263,0.8166,0.8158,0.8103,0.8004,0.7955,0.7872,0.7872,0.7872,0.7872,0.7872,0.7872,0.7872,0.7872,0.7872,0.7872,0.7872,0.7872,0.7872,0.7872,0.7872,0.7872,0.7872,0.7872,0.7834,0.7725,0.7622,0.0,0.0,0.0,0.0,0.0,0.0,0.0,0.0,0.0,0.0,0.0,0.0,0.0,0.0,0.0,0.7117,0.7204,0.721,0.0,0.0,0.0,0.7589,0.7736,0.0,0.8114,0.0,0.8176,0.8172,0.8172,0.8263,0.8329,0.8421,0.8443,0.8519,0.8633,0.8758,0.8938,0.9139,0.916,0.9226,0.9302,0.9302,0.9302,0.9302,0.0,0.0,0.0,0.0,0.0,0.0,1.701,1.7246,1.7321,1.7245,1.734,1.6883,1.5565,1.5565,1.504,1.3657,1.3483,1.3417,1.3109,1.2999,1.2336,1.1031,1.0677,1.0046,0.8948,0.859,0.8345,0.0,0.0,0.0,0.0,0.0,0.0,0.0,0.0,0.0,0.0,0.8182,0.8301,0.841,0.8535,0.8579,0.8573,0.8573,0.8497,0.8399,0.8388,0.8242,0.8114,0.8103,0.8026,0.7872,0.7872,0.7872,0.7872,0.7872,0.7872,0.7872,0.7872,0.7872,0.7872,0.7872,0.7872,0.7872,0.7872,0.7872,0.7872,0.7872,0.7872,0.7834,0.7725,0.7693,0.7649,0.0,0.0,0.0,0.0,0.0,0.0,0.0,0.0,0.0,0.0,0.0,0.0,0.0,0.0,0.7199,0.721,0.721,0.7263,0.7497,0.0,0.7627,0.785,0.8048,0.0,0.8119,0.8176,0.8172,0.8178,0.835,0.8405,0.8421,0.8524,0.8638,0.8764,0.8883,0.8944,0.9144,0.9247,0.9296,0.9302,0.9302,0.9302,0.9302,0.0,0.0,0.0,0.0,0.0,0.0,0.0,1.7284,1.7379,1.7246,1.735,1.6608,1.4501,1.4949,1.4875,1.3417,1.2575,1.21,1.1976,1.1233,1.0577,1.0023,0.9777,0.9365,0.8884,0.86,0.8356,0.0,0.0,0.0,0.0,0.0,0.0,0.0,0.0,0.807,0.813,0.8263,0.8372,0.8426,0.8541,0.859,0.859,0.859,0.8557,0.8513,0.8443,0.8356,0.8263,0.8187,0.803,0.7872,0.7872,0.7872,0.7872,0.7872,0.7872,0.7872,0.7872,0.7872,0.7872,0.7872,0.7872,0.7872,0.7872,0.7872,0.7872,0.7872,0.7872,0.7856,0.7812,0.7801,0.7785,0.0,0.0,0.0,0.0,0.0,0.0,0.0,0.0,0.0,0.0,0.0,0.0,0.0,0.0,0.0,0.721,0.7225,0.0,0.7513,0.0,0.7703,0.7872,0.8062,0.816,0.8166,0.8356,0.8448,0.8448,0.8497,0.8519,0.8524,0.8644,0.8764,0.8889,0.9008,0.9128,0.9242,0.9285,0.9302,0.9302,0.9302,0.9302,0.9313,1.6745,0.0,1.6887,0.0,1.7057,1.7199,1.7199,1.7275,1.7275,1.7123,1.719,1.6352,1.4101,1.4686,1.4612,1.317,1.1884,1.1151,1.1106,1.0003,0.9302,0.9302,0.9079,0.0,0.8884,0.8633,0.841,0.8291,0.8522,0.0,0.0,0.0,0.0,0.0,0.8051,0.8127,0.8171,0.8345,0.8437,0.8475,0.8557,0.859,0.859,0.859,0.859,0.8579,0.8497,0.8448,0.8405,0.8318,0.8149,0.797,0.7937,0.796,0.7877,0.7977,0.7988,0.7932,0.797,0.7975,0.7975,0.7975,0.7975,0.7975,0.7975,0.7954,0.7977,0.7877,0.7872,0.7872,0.7872,0.7872,0.7872,0.7872,0.0,0.0,0.0,0.0,0.0,0.0,0.7546,0.7426,0.7336,0.0,0.0,0.0,0.0,0.0,0.0,0.0,0.0,0.0,0.0,0.0,0.0,0.8133,0.8188,0.8291,0.8492,0.859,0.859,0.8628,0.8638,0.8649,0.8769,0.8894,0.8944,0.903,0.9198,0.9302,0.9302,0.9302,0.9302,0.9302,0.9302,0.9318,1.6802,1.6963,1.7105,1.7105,1.7284,1.7426,1.7426,1.7246,1.7105,1.7105,1.6934,1.6361,1.5089,1.5015,1.4416,1.2999,1.1823,1.1106,1.1038,0.9951,0.9302,0.0,0.0,0.8884,0.8884,0.8709,0.853,0.8416,0.0,0.0,0.9473,0.0,0.8975,0.8119,0.8182,0.8301,0.8416,0.8416,0.8481,0.8584,0.859,0.859,0.859,0.859,0.859,0.859,0.8584,0.8513,0.8416,0.8416,0.8334,0.8209,0.8089,0.8032,0.7955,0.8075,0.8114,0.8141,0.8198,0.8167,0.8167,0.8167,0.8167,0.8167,0.8167,0.8138,0.8081,0.7955,0.7872,0.7872,0.7872,0.7872,0.7872,0.7872,0.0,0.0,0.0,0.0,0.0,0.0,0.7698,0.7649,0.7529,0.0,0.0,0.0,0.0,0.0,0.0,0.0,0.0,0.7693,0.7698,0.0,0.8114,0.8176,0.8296,0.8416,0.853,0.859,0.859,0.8715,0.8769,0.8774,0.8899,0.8949,0.9133,0.9062,0.9198,0.9302,0.9302,0.9302,0.9302,0.9302,0.9302,0.9318,1.7199,1.7284,1.7322,1.7322,1.7379,1.7379,1.7227,1.7152,1.7001,1.6717,1.6623,1.6383,1.5884,1.5913,1.5768,0.0,1.4121,1.3085,0.0,1.1096,1.0095,0.9302,0.9079,0.8884,0.8884,0.8715,0.853,0.8416,0.0,0.0,0.0,0.8615,0.843,0.8182,0.8307,0.8383,0.8421,0.8503,0.8557,0.859,0.859,0.859,0.859,0.859,0.859,0.859,0.859,0.8562,0.8535,0.8535,0.8454,0.8356,0.8312,0.822,0.8127,0.8166,0.8176,0.8187,0.8225,0.8172,0.8172,0.8172,0.8172,0.8172,0.8172,0.8643,0.928,0.9909,0.94,0.8848,0.8848,0.836,0.7872,0.7872,0.7872,0.0,0.0,0.0,0.0,0.0,0.7747,0.7687,0.0,0.7568,0.0,0.0,0.0,0.0,0.0,0.0,0.0,0.0,0.7856,0.0,0.8114,0.8258,0.8378,0.8421,0.8535,0.8633,0.8715,0.8753,0.8812,0.8899,0.8954,0.9025,0.9139,0.922,0.9269,0.9302,0.9302,0.9302,0.9302,0.9302,0.9302,0.9334,1.7398,1.7426,1.7426,1.7426,1.736,1.7256,1.7123,1.6972,1.6774,1.6519,1.6415,1.632,1.6197,1.6292,0.0,1.5621,1.4529,1.3317,1.2173,1.0953,1.0023,0.9302,0.9079,0.8884,0.8884,0.0,0.0,0.8481,0.8437,0.8378,0.8301,0.8301,0.8301,0.8312,0.8426,0.8481,0.8486,0.8557,0.859,0.859,0.859,0.859,0.859,0.859,0.859,0.859,0.859,0.859,0.859,0.859,0.8541,0.8481,0.8481,0.8432,0.8361,0.8318,0.8301,0.8312,0.8356,0.8367,0.8367,0.8367,0.8367,0.8356,0.8312,0.8689,0.9355,1.0308,0.9903,0.9461,0.9829,0.9396,0.8842,0.8482,0.8421,0.8299,0.7933,0.0,0.0,0.0,0.0,0.0,0.0,0.7698,0.0,0.0,0.0,0.0,0.0,0.0,0.0,0.7834,0.8037,0.0,0.8187,0.8345,0.8465,0.8552,0.8666,0.8764,0.884,0.8889,0.8948,0.896,0.9144,0.9198,0.9204,0.9275,0.9302,0.9302,0.9302,0.9302,0.9302,0.9302,0.9334,0.94,1.7426,1.7426,0.0,0.0,1.7237,0.0,1.7067,1.6727,1.6481,1.6462,1.6301,1.6178,1.6178,1.6178,1.5683,1.4457,0.0,0.0,0.0,1.0167,0.9446,0.9291,0.9073,0.8879,0.8868,0.8709,0.859,0.859,0.8481,0.8432,0.8432,0.8432,0.8432,0.8437,0.8541,0.859,0.859,0.859,0.859,0.859,0.859,0.859,0.859,0.859,0.859,0.859,0.859,0.859,0.859,0.859,0.859,0.859,0.859,0.859,0.8568,0.8459,0.8432,0.8454,0.8557,0.8656,0.8717,0.859,0.859,0.8557,0.8519,0.8486,0.8739,0.95,0.9548,0.9744,1.0587,1.0671,1.0361,0.9457,0.9335,0.9092,0.8238,0.0,0.0,0.0,0.0,0.0,0.0,0.7872,0.7872,0.0,0.0,0.0,0.0,0.0,0.7828,0.8108,0.8136,0.8187,0.8416,0.8437,0.8557,0.8785,0.8899,0.8884,0.89,0.9014,0.9139,0.9155,0.9258,0.9302,0.9302,0.9302,0.9302,0.9302,0.9302,0.9302,0.9302,0.9302,0.9383,0.9503,0.0,0.0,1.7379,1.7209,1.7142,1.7001,1.6679,1.6547,1.6424,1.6273,1.6216,1.6178,1.6178,1.6178,1.539,1.3317,1.4466,1.4466,1.2459,1.2029,1.1051,0.9248,0.896,0.891,0.8812,0.8666,0.859,0.859,0.8562,0.8546,0.8546,0.8546,0.8546,0.8546,0.8579,0.859,0.859,0.859,0.859,0.859,0.859,0.859,0.859,0.859,0.859,0.859,0.859,0.859,0.859,0.859,0.859,0.859,0.859,0.859,0.8584,0.8557,0.8546,0.8552,0.8579,0.9183,0.9649,0.8784,0.859,0.8778,0.9606,0.9658,0.9825,1.0849,1.0195,0.9591,0.9744,0.9713,0.9579,0.9335,0.9943,1.0361,1.0119,0.9457,0.0,0.0,0.836,0.7872,0.7872,0.7872,0.7872,0.0,0.0,0.0,0.0,0.8048,0.8059,0.8114,0.8236,0.8361,0.8416,0.8595,0.8764,0.891,0.8868,0.8933,0.9019,0.9052,0.9182,0.9264,0.9291,0.9302,0.9302,0.9302,0.9302,0.9302,0.9302,0.9302,0.9302,0.9302,0.9383,0.9503,1.7426,1.735,1.7246,1.7123,1.6944,1.6745,1.6519,1.6405,1.6301,1.6197,1.6178,1.6178,1.6178,1.6178,1.5683,1.4395,1.4964,1.4173,1.1312,1.1599,1.111,0.921,0.8949,0.8894,0.8774,0.8649,0.859,0.859,0.859,0.859,0.859,0.859,0.859,0.859,0.859,0.859,0.859,0.859,0.859,0.859,0.859,0.859,0.859,0.859,0.859,0.859,0.859,0.859,0.859,0.859,0.859,0.859,0.859,0.8917,0.925,0.8717,0.8917,0.9449,0.9908,1.0107,0.9908,0.8851,0.9316,1.0107,1.0174,1.0511,1.0895,1.1408,1.0934,1.0391,1.0184,1.0156,0.9897,0.9409,0.9761,0.9943,0.9511,0.9025,0.0,0.8665,0.829,0.8015,0.8015,0.8002,0.8035,0.8035,0.0,0.0,0.8133,0.8187,0.822,0.822,0.8399,0.8524,0.8579,0.8818,0.897,0.8965,0.909,0.915,0.9209,0.9209,0.9247,0.9302,0.9302,0.9302,0.9302,0.9302,0.9302,0.9302,0.9302,0.9302,0.9313,0.9367,0.9465,0.9584,1.7379,1.7209,1.7048,1.702,1.6717,1.6471,1.6443,1.6292,1.6178,1.6178,1.6178,1.6178,1.6178,1.6178,1.6108,1.5966,1.5248,1.3389,1.0023,1.0737,1.0603,0.9111,0.8938,0.8883,0.8747,0.8638,0.859,0.859,0.859,0.859,0.859,0.859,0.859,0.859,0.859,0.859,0.859,0.859,0.859,0.859,0.859,0.859,0.859,0.859,0.859,0.859,0.859,0.859,0.859,0.859,0.8717,0.8851,0.8851,0.9582,1.0306,0.9516,0.9975,1.077,1.1431,1.1035,1.024,0.9516,1.0571,1.1563,1.0638,1.1167,1.1724,1.159,1.1545,1.1434,1.115,1.1178,1.0917,0.993,0.9896,0.9694,0.8903,0.0,0.8366,0.8384,0.8234,0.8125,0.8141,0.8176,0.8172,0.8172,0.8172,0.8178,0.0,0.8378,0.8454,0.847,0.8562,0.8682,0.8823,0.903,0.9144,0.916,0.9258,0.9302,0.9302,0.9302,0.9302,0.9302,0.9302,0.9302,0.9302,0.9302,0.9302,0.9302,0.9302,0.9313,0.9345,0.9449,0.9574,0.9709,1.7152,1.6991,1.6793,1.6613,1.6528,1.6424,1.6254,1.6207,1.6178,1.6178,1.6178,1.6178,1.6178,1.6178,1.5824,1.4813,1.5461,1.4893,1.2316,1.2316,1.1406,0.9056,0.889,0.8845,0.8622,0.8595,0.859,0.859,0.859,0.859,0.859,0.859,0.859,0.859,0.859,0.859,0.859,0.859,0.859,0.859,0.859,0.859,0.859,0.859,0.859,0.859,0.859,0.859,0.859,0.859,0.9183,0.9975,0.9975,1.0704,1.1696,1.2355,1.2684,1.2487,1.0902,1.0969,1.1696,1.2421,1.2157,1.1762,1.1563,1.1696,1.182,1.1732,1.1678,1.1558,1.1505,1.1901,1.2188,1.2033,1.2578,1.2964,1.2835,0.0,1.0411,1.0533,0.9094,0.8095,0.8198,0.8225,0.8172,0.8172,0.8172,0.828,0.8383,0.8497,0.8606,0.8715,0.8731,0.8851,0.9073,0.9117,0.9182,0.928,0.9296,0.9302,0.9302,0.9302,0.9302,0.9302,0.9302,0.9302,0.9302,0.9302,0.9302,0.9302,0.9302,0.9367,0.9459,0.9481,0.9622,0.9813,1.7256,1.702,1.6802,1.6812,1.6632,1.6453,1.6358,1.6254,1.6178,1.6178,1.6178,1.6178,1.6178,1.6178,1.5966,1.5461,1.5895,1.547,1.3745,1.3674,1.2526,0.9856,0.9844,0.9445,0.859,0.859,0.859,0.859,0.859,0.859,0.859,0.859,0.859,0.859,0.859,0.859,0.859,0.859,0.859,0.859,0.859,0.859,0.859,0.859,0.859,0.859,0.859,0.859,0.859,0.859,0.8917,0.9449,1.0041,1.0969,1.1894,1.2355,1.3276,1.3809,1.2289,1.2618,1.3284,1.2684,1.2947,1.335,1.275,1.3079,1.3284,1.275,1.2554,1.2336,1.1725,1.1836,1.198,1.1797,1.2069,0.0,0.0,1.1524,1.1041,1.1205,0.9976,0.9166,0.9162,0.8776,0.8524,0.8524,0.8584,0.8577,0.8636,0.8753,0.884,0.8965,0.8965,0.9052,0.9226,0.9226,0.9253,0.9302,0.9302,0.9302,0.9302,0.9302,0.9302,0.9302,0.9302,0.9302,0.9302,0.9302,0.9302,0.9313,0.9378,0.9438,0.9503,0.9628,0.9742,0.9845,1.7322,1.7057,1.6849,1.701,1.6727,1.6481,1.6481,1.6311,1.6178,1.6178,1.6178,1.6178,1.6178,1.6178,1.6178,1.6178,1.6178,1.5753,1.46,1.4742,1.3609,1.0733,1.0379,0.9757,0.859,0.859,0.859,0.859,0.859,0.859,0.859,0.859,0.859,0.859,0.859,0.859,0.859,0.859,0.859,0.859,0.859,0.859,0.859,0.859,0.8784,0.8917,0.8717,0.8784,0.8984,0.8984,0.9117,0.9516,1.0571,1.163,1.2487,1.2487,1.3678,1.4735,1.3875,1.4268,1.4539,1.2947,1.3744,1.467,1.3875,1.4333,1.467,1.3809,1.3678,1.343,1.2507,1.2314,1.2203,1.1932,0.0,0.0,0.0,1.1643,1.1588,1.1758,1.097,1.0424,1.0464,0.996,0.9627,0.9627,0.9446,0.9296,0.9296,0.9115,0.8976,0.9171,0.9171,0.9215,0.9302,0.9302,0.9302,0.9302,0.9302,0.9302,0.9302,0.9302,0.9302,0.9302,0.9302,0.9302,0.9307,0.9334,0.9345,0.9356,0.9481,0.9546,0.959,0.9769,0.9856,0.9894,1.7123,1.6953,1.6812,1.6821,1.6632,1.6481,1.6481,1.6311,1.6178,1.6178,1.6178,1.6178,1.6178,1.6178,1.6178,1.6178,1.6178,1.5753,1.46,1.5461,1.4514,1.094,0.9584,0.8855,0.859,0.859,0.859,0.859,0.859,0.859,0.859,0.859,0.859,0.859,0.859,0.859,0.859,0.859,0.859,0.859,0.859,0.859,0.859,0.859,0.925,0.9975,0.8984,0.925,1.0107,1.0107,1.077,1.1762,1.275,1.3809,1.467,1.467,1.48,1.4866,1.48,1.4866,1.4866,1.4735,1.48,1.4866,1.48,1.4866,1.4866,1.48,1.48,1.4735,1.4651,1.4493,1.4363,1.4335,0.0,0.0,1.4038,1.334,1.2779,1.2836,1.2238,1.1806,1.1896,1.2066,1.2094,1.2094,1.1145,1.0599,1.0599,0.9613,0.9171,0.9291,0.9291,0.9296,0.9302,0.9302,0.9302,0.9302,0.9302,0.9302,0.9302,0.9302,0.9302,0.9302,0.9302,0.9302,0.9313,0.9427,0.947,0.9487,0.9606,0.972,0.9813,0.9829,0.9911,1.0008,1.7275,1.7133,1.7029,1.7171,1.6906,1.6679,1.6679,1.6396,1.6178,1.6178,1.6178,1.6178,1.6178,1.6178,1.6178,1.6178,1.6178,1.5753,1.46,1.4173,1.3334,1.1872,1.0496,0.9452,0.859,0.859,0.859,0.859,0.859,0.859,0.859,0.859,0.859,0.859,0.859,0.859,0.859,0.859,0.859,0.859,0.859,0.859,0.859,0.859,0.8851,0.925,0.9516,0.9842,1.0306,1.0969,1.1431,1.196,1.2947,1.3613,1.4071,1.467,1.4866,1.4866,1.4866,1.4866,1.4866,1.4866,1.4866,1.4866,1.4866,1.4866,1.4866,1.4866,1.4866,1.4866,1.4866,1.4874,1.478,1.4593,0.0,1.4515,1.4515,1.4188,1.4052,1.4304,1.3552,1.3059,1.3238,1.2168,1.1427,1.1427,1.0459,0.98,0.98,0.9424,0.9258,0.9302,0.9302,0.9302,0.9302,0.9302,0.9302,0.9302,0.9302,0.9302,0.9302,0.9302,0.9302,0.9307,0.9383,0.9416,0.9427,0.9552,0.9601,0.9612,0.9726,0.9802,0.9845,0.9921,0.9981,1.0019,1.7398,1.7303,1.7227,1.7312,1.7038,1.6783,1.6717,1.6405,1.6178,1.6178,1.6178,1.6037,1.5683,1.5966,1.5895,1.5177,1.5461,1.5177,1.403,1.2817,1.2059,1.1927,1.0603,0.9715,0.918,0.8806,0.859,0.859,0.859,0.859,0.859,0.859,0.859,0.859,0.859,0.859,0.859,0.859,0.859,0.859,0.859,0.859,0.859,0.859,0.905,0.9582,0.9649,1.0306,1.1233,1.163,1.2025,1.2421,1.3481,1.3809,1.394,1.467,1.4866,1.4866,1.4866,1.4978,1.5016,1.495,1.4978,1.496,1.496,1.5082,1.513,1.513,1.513,1.513,1.513,1.513,1.5082,1.495,1.4922,1.4922,1.4922,1.4922,1.5026,1.53,1.4787,1.4266,1.4053,1.2757,1.1797,1.1443,1.0758,1.0239,0.9879,0.9807,0.9663,0.9302,0.9663,0.9663,0.9302,0.9302,0.9302,0.9302,0.9302,0.9302,0.9307,0.9345,0.9362,0.9367,0.9492,0.9546,0.9552,0.9671,0.972,0.9737,0.9851,0.9894,0.9905,0.9987,1.0019,1.0019,1.7426,1.7426,1.736,1.7142,1.6934,1.6736,1.6519,1.6311,1.6178,1.6178,1.6178,1.5753,1.46,1.5532,1.5248,1.2896,1.3817,1.3959,1.2745,1.1599,1.096,1.0818,0.9567,0.9377,1.0467,0.9253,0.859,0.859,0.859,0.859,0.859,0.859,0.859,0.859,0.859,0.859,0.859,0.859,0.859,0.859,0.859,0.859,0.859,0.859,0.9908,1.1497,0.9383,1.0638,1.3144,1.2157,1.2487,1.3473,1.4539,1.4866,1.4866,1.4866,1.4866,1.4866,1.4866,1.5082,1.512,1.4922,1.5016,1.5167,1.5167,1.5404,1.5632,1.5632,1.5632,1.5632,1.5632,1.5632,1.5632,1.5632,1.5632,1.5632,1.5632,1.5632,1.5632,1.5632,1.5803,1.5441,1.4257,1.4348,1.403,1.2824,1.2681,1.2173,1.1096,1.1025,1.0527,0.9374,1.0455,1.0449,0.9302,0.9302,0.9302,0.9302,0.9307,0.9307,0.9307,0.9432,0.9487,0.9497,0.9617,0.9671,0.9677,0.9791,0.984,0.9851,0.997,1.0019,1.0019,1.0019,1.0019,1.0019,1.7426,1.7426,1.7407,1.7341,1.7038,1.648,1.5674,1.5246,1.5035,1.5035,1.5035,1.4884,1.4529,1.4813,1.4386,1.2817,1.3031,1.2745,1.1599,1.0455,1.0149,1.0895,0.9706,0.9509,1.061,1.0291,1.0017,0.9924,0.9924,0.9472,0.859,0.859,0.859,0.859,0.859,0.859,0.859,0.859,0.859,0.859,0.859,0.859,0.8651,0.9449,0.9649,0.9775,1.1299,1.2025,1.2421,1.3613,1.4137,1.4473,1.48,1.4866,1.4866,1.4866,1.5035,1.5139,1.5139,1.53,1.5413,1.5196,1.53,1.546,1.546,1.5517,1.5632,1.5632,1.5632,1.5632,1.5632,1.5632,1.5632,1.5632,1.5632,1.5632,1.5632,1.5632,1.568,1.5822,1.5889,1.5775,1.5573,1.4929,1.4386,1.3959,1.3174,1.2538,1.2173,1.2173,1.2029,1.1671,1.2029,1.2029,1.1671,1.0881,1.0095,0.9307,1.019,1.0231,0.9438,0.9557,0.9617,0.9622,0.9737,0.9786,0.9796,0.9916,0.9965,0.997,1.0008,1.0019,1.0019,1.0019,1.0019,1.0019,1.7426,1.7426,1.7398,1.7312,1.7095,1.6675,1.5919,1.5558,1.5228,1.4728,1.4639,1.4256,1.3246,1.3531,1.3103,1.1527,1.1384,1.1025,1.0383,0.9663,0.959,1.0311,0.9595,0.9635,1.0753,1.0285,0.994,0.9868,0.9813,0.9408,0.866,0.9073,0.8984,0.859,0.905,0.8984,0.859,0.859,0.859,0.859,0.859,0.859,0.8656,0.9316,0.9715,1.0041,1.1563,1.2487,1.3144,1.4006,1.4539,1.4866,1.4866,1.4922,1.5054,1.5054,1.5196,1.5356,1.5356,1.5517,1.5649,1.5517,1.5583,1.5746,1.5746,1.5813,1.581,1.581,1.581,1.581,1.581,1.581,1.581,1.581,1.581,1.581,1.581,1.581,1.5848,1.5971,1.5989,1.5896,1.5593,1.4884,1.4529,1.4529,1.3389,1.2888,1.3389,1.3389,1.3174,1.2753,1.2741,1.2554,1.2128,1.1458,1.0802,1.0032,1.0455,1.0224,0.9563,0.9682,0.9737,0.9742,0.9856,0.9911,0.9916,0.9987,1.0019,1.0019,1.0019,1.0019,1.0019,1.0019,1.0019,1.0019,1.7426,1.7426,1.7293,1.7011,1.6964,1.6815,1.6416,1.6296,1.5847,1.4642,1.4479,1.3608,1.1293,1.1928,1.1705,0.9535,0.9307,0.9302,0.9302,0.9302,0.9302,0.9302,0.9302,0.975,1.0619,0.9596,0.9115,0.9034,0.8993,0.8933,0.8853,0.9673,0.9552,0.8684,0.9619,0.9546,0.8606,0.8606,0.8595,0.859,0.859,0.859,0.859,0.8717,0.9908,1.1431,1.0704,1.2289,1.4473,1.3744,1.408,1.4959,1.4959,1.5101,1.5262,1.5262,1.5413,1.5661,1.5661,1.5803,1.5955,1.5955,1.5955,1.5955,1.5955,1.6037,1.6178,1.6178,1.6178,1.6178,1.6178,1.6178,1.6178,1.6178,1.6178,1.6178,1.6178,1.6178,1.6178,1.6178,1.6178,1.5824,1.4742,1.4671,1.4671,1.4671,1.3603,1.346,1.46,1.4671,1.411,1.2911,1.3127,1.2627,1.141,1.1621,1.1547,1.1049,1.022,0.9833,0.9688,0.9802,0.9856,0.9862,0.997,1.0019,1.0019,1.0019,1.0019,1.0019,1.0019,1.0019,1.0019,1.0019,1.0019,1.0019,1.7426,1.7426,1.7102,1.6124,1.5766,1.5052,1.313,1.2639,1.2473,1.2148,1.2141,1.1905,1.136,1.1501,1.1093,0.9601,0.9356,0.9302,0.9302,0.9302,0.9302,0.9302,0.9302,0.9435,0.9623,1.0239,1.0457,1.0416,1.0384,0.9835,0.891,0.909,0.9079,0.8872,0.9079,0.9023,0.8731,0.8731,0.8677,0.859,0.859,0.859,0.8717,0.9516,0.9649,0.9576,1.1828,1.2553,1.2684,1.4071,1.4838,1.5101,1.5101,1.5319,1.5489,1.5489,1.5699,1.586,1.586,1.5952,1.6112,1.6112,1.6112,1.6112,1.6112,1.615,1.6178,1.6178,1.6178,1.6178,1.6178,1.6178,1.6178,1.6178,1.6178,1.6178,1.6178,1.6178,1.6178,1.6178,1.6178,1.6108,1.5895,1.5824,1.5824,1.5824,1.5612,1.5541,1.5824,1.5824,1.5319,1.4235,1.5145,1.4731,1.2734,1.3865,1.2967,1.0001,1.08,1.0708,0.9807,0.9927,0.9981,0.9981,1.0008,1.0019,1.0019,1.0019,1.0019,1.0019,1.0019,1.0019,1.0019,1.0019,1.0019,1.0019,1.6568,1.6568,1.6186,1.4875,1.4649,1.4129,1.2831,1.2533,1.2306,1.1635,1.1547,1.1302,1.064,1.0559,1.0306,0.9653,0.9459,0.9389,0.9389,0.9334,0.9302,0.9302,0.9302,0.9302,0.9302,0.9879,1.0132,1.006,1.0001,0.966,0.9035,0.9463,0.9365,0.8954,0.9434,0.9331,0.8856,0.8856,0.8818,0.8764,0.8764,0.8764,0.8826,0.9369,0.9573,0.9697,1.1375,1.1881,1.2014,1.3079,1.3604,1.3823,1.4364,1.471,1.5018,1.5569,1.5917,1.6018,1.6018,1.6093,1.6178,1.6178,1.6178,1.6178,1.6178,1.6178,1.6178,1.6178,1.6178,1.6178,1.6178,1.6178,1.6178,1.6178,1.6178,1.6178,1.6178,1.6178,1.6178,1.6178,1.6178,1.6178,1.6178,1.6178,1.6178,1.6178,1.6273,1.632,1.632,1.6424,1.6239,1.5676,1.5847,1.5345,1.4172,1.4422,1.355,1.158,1.1734,1.1075,0.9927,0.9992,1.0019,1.0019,1.0019,1.0019,1.0019,1.0019,1.0019,1.0019,1.0019,1.0019,1.0019,1.0019,1.0019,1.003,1.5259,1.5259,1.4875,1.3645,1.3414,1.3337,1.3105,1.3105,1.2678,1.1562,1.1396,1.0972,0.9888,0.9709,0.9699,0.9699,0.959,0.9508,0.9487,0.9389,0.9329,0.9307,0.9302,0.9302,0.9302,0.9302,0.9302,0.9302,0.9209,0.9166,0.916,0.9894,0.9846,0.9014,0.9916,0.9765,0.8911,0.8911,0.89,0.8884,0.8884,0.8884,0.8884,0.8884,0.9434,1.0247,1.0402,1.1036,1.1917,1.1917,1.2027,1.2367,1.3461,1.4008,1.4518,1.5635,1.6037,1.6178,1.6178,1.6178,1.6178,1.6178,1.6178,1.6178,1.6178,1.6178,1.6178,1.6178,1.6178,1.6178,1.6178,1.6178,1.6178,1.6178,1.6178,1.6178,1.6178,1.6178,1.6178,1.6178,1.6178,1.6178,1.6178,1.6178,1.6197,1.6226,1.6386,1.65,1.6538,1.6708,1.6747,1.6554,1.5892,1.5387,1.5043,1.4573,1.4107,1.3722,1.2881,1.1876,1.0635,1.0408,1.033,1.033,1.0097,1.0019,1.0019,1.0019,1.0019,1.0019,1.0019,1.0019,1.0019,1.0019,1.0019,1.0036,1.3953,1.3953,1.3568,1.234,1.2114,1.1798,1.0641,1.0486,1.048,1.023,1.0225,1.0142,0.9976,0.9878,0.9813,0.9813,0.9709,0.9601,0.9492,0.947,0.9416,0.9307,0.9302,0.9302,0.9302,0.9302,0.9302,0.9302,0.9291,0.928,0.928,0.9407,0.9402,0.9258,0.9396,0.9341,0.9041,0.9041,0.8976,0.8884,0.8884,0.8884,0.8884,0.8884,0.9018,0.9226,1.0172,1.1193,1.2086,1.2086,1.219,1.2532,1.3727,1.4271,1.4707,1.5849,1.616,1.6178,1.6178,1.6178,1.6178,1.6178,1.6178,1.6178,1.6178,1.6178,1.6178,1.6178,1.6178,1.6178,1.6178,1.6178,1.6178,1.6178,1.6178,1.6178,1.6178,1.6178,1.6178,1.6178,1.6178,1.6178,1.6178,1.6178,1.6254,1.6434,1.6462,1.6566,1.6745,1.6793,1.636,1.5552,1.6412,1.59,1.3915,1.5871,1.5803,1.3722,1.4645,1.4414,1.3182,1.2108,1.165,1.1572,1.0486,1.0019,1.0019,1.0019,1.0019,1.0019,1.0019,1.0019,1.0019,1.0019,1.0019,1.0036,1.2726,1.2726,1.2263,1.1029,1.0874,1.0641,1.0097,1.0019,1.0019,1.0019,1.0019,1.0019,1.0019,0.997,0.9938,0.9938,0.9835,0.9742,0.9688,0.9622,0.9536,0.941,0.9405,0.9372,0.9307,0.9302,0.9302,0.9302,0.9302,0.9302,0.9302,0.9302,0.9302,0.9302,0.9302,0.9275,0.9231,0.9231,0.9198,0.915,0.915,0.915,0.915,0.915,0.915,0.921,0.9566,1.0028,1.0448,1.0448,1.0536,1.0999,1.2783,1.3405,1.3817,1.5683,1.6178,1.6178,1.6178,1.6178,1.6178,1.6178,1.6178,1.6178,1.6178,1.6178,1.6178,1.6178,1.6178,1.6178,1.6178,1.6178,1.6178,1.6178,1.6178,1.6178,1.6178,1.6178,1.6178,1.6178,1.6178,1.6178,1.6178,1.6282,1.6386,1.6471,1.6698,1.6868,1.6963,1.7086,1.6964,1.6518,1.6982,1.6791,1.5803,1.6883,1.6883,1.5803,1.6339,1.5573,1.3645,1.3182,1.2881,1.2804,1.1566,1.1029,1.1029,1.1029,1.1029,1.1029,1.1029,1.1029,1.0952,1.0253,1.0486,1.0969]}]]